[[{"header":{"parameterUnit":"m.s-1","parameterCategory":1,"la1":31.0,"la2":29.5877,"lo1":-88.7671,"lo2":-86.6584,"dy":0.0162,"dx":0.0185,"nx":115,"ny":88,"refTime":"2024-02-23T06:00:00:Z","depth":0,"parameterNumber":2,"parameterNumberName":"U-component_of_WINDS"},"data":[0.0,0.0,0.0,0.0,0.0,0.0,0.0,0.0,0.0,0.0,0.0,0.0,0.0,0.0,0.0,0.0,0.0,0.0,0.0,0.0,0.0,0.0,0.0,0.0,0.0,0.0,0.0,0.0,0.0,0.0,0.0,0.0,0.0,0.0,0.0,0.0,0.0,0.0,0.0,0.0,0.0,0.0,0.0,0.0,0.0,0.0,0.0,0.0,0.0,0.0,0.0,0.0,0.0,0.0,0.0,0.0,0.0,0.0,0.0,0.0,0.0,0.0,0.0,0.0,0.0,0.0,0.0,0.0,0.0,0.0,0.0,0.0,0.0,0.0,0.0,0.0,0.0,0.0,0.0,0.0,0.0,0.0,0.0,0.0,0.0,0.0,0.0,0.0,0.0,0.0,0.0,0.0,0.0,0.0,0.0,0.0,0.0,0.0,0.0,0.0,0.0,0.0,0.0,0.0,0.0,0.0,0.0,0.0,0.0,0.0,0.0,0.0,0.0,0.0,0.0,0.0,0.0,0.0,0.0,0.0,0.0,0.0,0.0,0.0,0.0,0.0,0.0,0.0,0.0,0.0,0.0,0.0,0.0,0.0,0.0,0.0,0.0,0.0,0.0,0.0,0.0,0.0,0.0,0.0,0.0,0.0,0.0,0.0,0.0,0.0,0.0,0.0,0.0,0.0,0.0,0.0,0.0,0.0,0.0,0.0,0.0,0.0,0.0,0.0,0.0,0.0,0.0,0.0,0.0,0.0,0.0,0.0,0.0,0.0,0.0,0.0,0.0,0.0,0.0,0.0,0.0,0.0,0.0,0.0,0.0,0.0,0.0,0.0,0.0,0.0,0.0,0.0,0.0,0.0,0.0,0.0,0.0,0.0,0.0,0.0,0.0,0.0,0.0,0.0,0.0,0.0,0.0,0.0,0.0,0.0,0.0,0.0,0.0,0.0,0.0,0.0,0.0,0.0,0.0,0.0,0.0,0.0,0.0,0.0,0.0,0.0,0.0,0.0,0.0,0.0,0.0,0.0,0.0,0.0,0.0,0.0,0.0,0.0,0.0,0.0,0.0,0.0,0.0,0.0,0.0,0.0,0.0,0.0,0.0,0.0,0.0,0.0,0.0,0.0,0.0,0.0,0.0,0.0,0.0,0.0,0.0,0.0,0.0,0.0,0.0,0.0,0.0,0.0,0.0,0.0,0.0,0.0,0.0,0.0,0.0,0.0,0.0,0.0,0.0,0.0,0.0,0.0,0.0,0.0,0.0,0.0,0.0,0.0,0.0,0.0,0.0,0.0,0.0,0.0,0.0,0.0,0.0,0.0,0.0,0.0,0.0,0.0,0.0,0.0,0.0,0.0,0.0,0.0,0.0,0.0,0.0,0.0,0.0,0.0,0.0,0.0,0.0,0.0,0.0,0.0,0.0,0.0,0.0,0.0,0.0,0.0,0.0,0.0,0.0,0.0,0.0,0.0,0.0,0.0,0.0,0.0,0.0,0.0,0.0,0.0,0.0,0.0,0.0,0.0,0.0,0.0,0.0,0.0,0.0,0.0,0.0,0.0,0.0,0.0,0.0,0.0,0.0,0.0,0.0,0.0,0.0,0.0,0.0,0.0,0.0,0.0,0.0,0.0,0.0,0.0,0.0,0.0,0.0,0.0,0.0,0.0,0.0,0.0,0.0,0.0,0.0,0.0,0.0,0.0,0.0,0.0,0.0,0.0,0.0,0.0,0.0,0.0,0.0,0.0,0.0,0.0,0.0,0.0,0.0,0.0,0.0,0.0,0.0,0.0,0.0,0.0,0.0,0.0,0.0,0.0,0.0,0.0,0.0,0.0,0.0,0.0,0.0,0.0,0.0,0.0,0.0,0.0,0.0,0.0,0.0,0.0,0.0,0.0,0.0,0.0,0.0,0.0,0.0,0.0,0.0,0.0,0.0,0.0,0.0,0.0,0.0,0.0,0.0,0.0,0.0,0.0,0.0,0.0,0.0,0.0,0.0,0.0,0.0,0.0,0.0,0.0,0.0,0.0,0.0,0.0,0.0,0.0,0.0,0.0,0.0,0.0,0.0,0.0,0.0,0.0,0.0,0.0,0.0,0.0,0.0,0.0,0.0,0.0,0.0,0.0,0.0,0.0,0.0,0.0,0.0,0.0,0.0,0.0,0.0,0.0,0.0,0.0,0.0,0.0,0.0,0.0,0.0,0.0,0.0,0.0,0.0,0.0,0.0,0.0,0.0,0.0,0.0,0.0,0.0,0.0,0.0,0.0,0.0,0.0,0.0,0.0,0.0,0.0,0.0,0.0,0.0,0.0,0.0,0.0,0.0,0.0,0.0,0.0,0.0,0.0,0.0,0.0,0.0,0.0,0.0,0.0,0.0,0.0,0.0,0.0,0.0,0.0,0.0,0.0,0.0,0.0,0.0,0.0,0.0,0.0,0.0,0.0,0.0,0.0,0.0,0.0,0.0,0.0,0.0,0.0,0.0,0.0,0.0,0.0,0.0,0.0,0.0,0.0,0.0,0.0,0.0,0.0,0.0,0.0,0.0,0.0,0.0,0.0,0.0,0.0,0.0,0.0,0.0,0.0,0.0,0.0,0.0,0.0,0.0,0.0,0.0,0.0,0.0,0.0,0.0,0.0,0.0,0.0,0.0,0.0,0.0,0.0,0.0,0.0,0.0,0.0,0.0,0.0,0.0,0.0,0.0,0.0,0.0,0.0,0.0,0.0,0.0,0.0,0.0,0.0,0.0,0.0,0.0,0.0,0.0,0.0,0.0,0.0,0.0,0.0,0.0,0.0,0.0,0.0,0.0,0.0,0.0,0.0,0.0,0.0,0.0,0.0,0.0,0.0,0.0,0.0,0.0,0.0,0.0,0.0,0.0,0.0,0.0,0.0,0.0,0.0,0.0,0.0,0.0,0.0,0.0,0.0,0.0,0.0,0.0,0.0,0.0,0.0,0.0,0.0,0.0,0.0,0.0,0.0,0.0,0.0,0.0,0.0,0.0,0.0,0.0,0.0,0.0,0.0,0.0,0.0,0.0,0.0,0.0,0.0,0.0,0.0,0.0,0.0,0.0,0.0,0.0,0.0,0.0,0.0,0.0,0.0,0.0,0.0,0.0,0.0,0.0,0.0,0.0,0.0,0.0,0.0,0.0,0.0,0.0,0.0,0.0,0.0,0.0,0.0,0.0,0.0,0.0,0.0,0.0,0.0,0.0,0.0,0.0,0.0,0.0,0.0,0.0,0.0,0.0,0.0,0.0,0.0,0.0,0.0,0.0,0.0,0.0,0.0,0.0,0.0,0.0,0.0,0.0,0.0,0.0,0.0,0.0,0.0,0.0,0.0,0.0,0.0,0.0,0.0,0.0,0.0,0.0,0.0,0.0,0.0,0.0,0.0,0.0,0.0,0.0,0.0,0.0,0.0,0.0,0.0,0.0,0.0,0.0,0.0,0.0,0.0,0.0,0.0,0.0,0.0,0.0,0.0,0.0,0.0,0.0,0.0,0.0,0.0,0.0,0.0,0.0,0.0,0.0,0.0,0.0,0.0,0.0,0.0,0.0,0.0,0.0,0.0,0.0,0.0,0.0,0.0,0.0,0.0,0.0,0.0,0.0,0.0,0.0,0.0,0.0,0.0,0.0,0.0,0.0,0.0,0.0,0.0,0.0,0.0,0.0,0.0,0.0,0.0,0.0,0.0,0.0,0.0,0.0,0.0,0.0,0.0,0.0,0.0,0.0,0.0,0.0,0.0,0.0,0.0,0.0,0.0,0.0,0.0,0.0,0.0,0.0,0.0,0.0,0.0,0.0,0.0,0.0,0.0,0.0,0.0,0.0,0.0,0.0,0.0,0.0,0.0,0.0,0.0,0.0,0.0,0.0,0.0,0.0,0.0,0.0,0.0,0.0,0.0,0.0,0.0,0.0,0.0,0.0,0.0,0.0,0.0,0.0,0.0,0.0,0.0,0.0,0.0,0.0,0.0,0.0,0.0,0.0,0.0,0.0,0.0,0.0,0.0,0.0,0.0,0.0,0.0,0.0,0.0,0.0,0.0,0.0,0.0,0.0,0.0,0.0,0.0,0.0,0.0,0.0,0.0,0.0,0.0,0.0,0.0,0.0,0.0,0.0,0.0,0.0,0.0,0.0,0.0,0.0,0.0,0.0,0.0,0.0,0.0,0.0,0.0,0.0,0.0,0.0,0.0,0.0,0.0,0.0,0.0,0.0,0.0,0.0,0.0,0.0,0.0,0.0,0.0,0.0,0.0,0.0,0.0,-6.1718,0.0,0.0,0.0,0.0,0.0,0.0,0.0,0.0,0.0,0.0,0.0,0.0,0.0,0.0,0.0,0.0,0.0,0.0,0.0,0.0,0.0,0.0,0.0,0.0,0.0,0.0,0.0,0.0,0.0,0.0,0.0,0.0,0.0,0.0,0.0,0.0,0.0,0.0,0.0,0.0,0.0,0.0,0.0,0.0,0.0,0.0,0.0,0.0,0.0,0.0,0.0,0.0,0.0,0.0,0.0,0.0,0.0,0.0,0.0,0.0,0.0,0.0,0.0,0.0,0.0,0.0,0.0,0.0,0.0,0.0,0.0,0.0,0.0,0.0,0.0,0.0,0.0,0.0,0.0,0.0,0.0,0.0,0.0,0.0,0.0,0.0,0.0,0.0,0.0,0.0,0.0,0.0,0.0,0.0,0.0,0.0,0.0,0.0,0.0,0.0,0.0,0.0,0.0,0.0,0.0,0.0,0.0,0.0,0.0,0.0,-6.1725,-6.1718,-6.1718,-6.1718,-6.1718,0.0,0.0,0.0,0.0,0.0,0.0,0.0,0.0,0.0,0.0,0.0,0.0,0.0,0.0,0.0,0.0,0.0,0.0,0.0,0.0,0.0,0.0,0.0,0.0,0.0,0.0,0.0,0.0,0.0,0.0,0.0,0.0,0.0,0.0,0.0,0.0,0.0,0.0,0.0,0.0,0.0,0.0,0.0,0.0,0.0,0.0,0.0,0.0,0.0,0.0,0.0,0.0,0.0,0.0,0.0,0.0,0.0,0.0,0.0,0.0,0.0,0.0,0.0,0.0,0.0,0.0,0.0,0.0,0.0,0.0,0.0,0.0,0.0,0.0,0.0,0.0,0.0,0.0,0.0,0.0,0.0,0.0,0.0,0.0,0.0,0.0,0.0,0.0,0.0,0.0,0.0,0.0,0.0,0.0,0.0,0.0,0.0,0.0,0.0,0.0,0.0,0.0,0.0,0.0,0.0,0.0,0.0,0.0,0.0,0.0,0.0,0.0,-6.1718,-6.1718,-6.1718,0.0,0.0,0.0,0.0,0.0,0.0,0.0,0.0,0.0,0.0,0.0,0.0,0.0,0.0,0.0,0.0,0.0,0.0,0.0,0.0,0.0,0.0,0.0,0.0,0.0,0.0,0.0,0.0,0.0,0.0,0.0,0.0,0.0,0.0,0.0,0.0,0.0,0.0,0.0,0.0,0.0,0.0,0.0,0.0,0.0,0.0,0.0,0.0,0.0,0.0,0.0,0.0,0.0,0.0,0.0,0.0,0.0,0.0,0.0,0.0,0.0,0.0,0.0,0.0,0.0,0.0,0.0,0.0,0.0,0.0,0.0,0.0,0.0,0.0,0.0,0.0,0.0,0.0,0.0,0.0,0.0,0.0,0.0,0.0,0.0,0.0,0.0,0.0,0.0,0.0,0.0,0.0,0.0,0.0,0.0,0.0,0.0,0.0,0.0,0.0,0.0,0.0,0.0,0.0,0.0,0.0,0.0,0.0,0.0,0.0,-6.1718,-6.1718,-6.1718,0.0,-6.1718,0.0,0.0,0.0,0.0,0.0,0.0,0.0,0.0,0.0,0.0,0.0,0.0,0.0,0.0,0.0,0.0,0.0,0.0,0.0,0.0,0.0,0.0,0.0,0.0,0.0,0.0,0.0,0.0,0.0,0.0,0.0,0.0,0.0,0.0,0.0,0.0,0.0,0.0,0.0,0.0,0.0,0.0,0.0,0.0,0.0,0.0,0.0,0.0,0.0,0.0,0.0,0.0,0.0,0.0,0.0,0.0,0.0,0.0,0.0,0.0,0.0,0.0,0.0,0.0,0.0,0.0,0.0,0.0,0.0,0.0,0.0,0.0,0.0,0.0,0.0,0.0,0.0,0.0,0.0,0.0,0.0,0.0,0.0,0.0,0.0,0.0,0.0,0.0,0.0,0.0,0.0,0.0,0.0,0.0,0.0,0.0,0.0,0.0,0.0,0.0,0.0,0.0,0.0,0.0,0.0,0.0,0.0,0.0,0.0,0.0,-6.1718,-6.1718,-6.1605,-6.1584,0.0,0.0,0.0,0.0,0.0,0.0,0.0,0.0,0.0,0.0,0.0,0.0,0.0,0.0,0.0,0.0,0.0,0.0,0.0,0.0,0.0,0.0,0.0,0.0,0.0,0.0,0.0,0.0,0.0,0.0,0.0,0.0,0.0,0.0,0.0,0.0,0.0,0.0,0.0,0.0,0.0,0.0,0.0,0.0,0.0,0.0,0.0,0.0,0.0,0.0,0.0,0.0,0.0,0.0,0.0,0.0,0.0,0.0,0.0,0.0,0.0,0.0,0.0,0.0,0.0,0.0,0.0,0.0,0.0,0.0,0.0,0.0,0.0,0.0,0.0,0.0,0.0,0.0,0.0,0.0,0.0,0.0,0.0,0.0,0.0,0.0,0.0,0.0,0.0,0.0,0.0,0.0,0.0,0.0,0.0,0.0,0.0,0.0,0.0,0.0,0.0,0.0,0.0,0.0,0.0,0.0,0.0,0.0,0.0,0.0,-6.1657,-6.1609,-6.1549,-6.1486,-6.1406,-6.1406,0.0,0.0,0.0,0.0,0.0,0.0,0.0,0.0,0.0,0.0,0.0,0.0,0.0,0.0,0.0,0.0,0.0,0.0,0.0,0.0,0.0,0.0,0.0,0.0,0.0,0.0,0.0,0.0,0.0,0.0,0.0,0.0,0.0,0.0,0.0,0.0,0.0,0.0,0.0,0.0,0.0,0.0,0.0,0.0,0.0,0.0,0.0,0.0,0.0,0.0,0.0,0.0,0.0,0.0,0.0,0.0,0.0,0.0,0.0,0.0,0.0,0.0,0.0,0.0,0.0,0.0,0.0,0.0,0.0,0.0,0.0,0.0,0.0,0.0,0.0,0.0,0.0,0.0,0.0,0.0,0.0,0.0,0.0,0.0,0.0,0.0,0.0,0.0,0.0,0.0,0.0,0.0,0.0,0.0,0.0,0.0,0.0,0.0,0.0,0.0,0.0,0.0,0.0,0.0,0.0,0.0,0.0,0.0,-6.1504,-6.15,-6.1412,-6.1259,-6.12,-6.12,0.0,0.0,0.0,0.0,0.0,0.0,0.0,0.0,0.0,0.0,0.0,0.0,0.0,0.0,0.0,0.0,0.0,0.0,0.0,0.0,0.0,0.0,0.0,0.0,0.0,0.0,0.0,0.0,0.0,0.0,0.0,0.0,0.0,0.0,0.0,0.0,0.0,0.0,0.0,0.0,0.0,0.0,0.0,0.0,0.0,0.0,0.0,0.0,0.0,0.0,0.0,0.0,0.0,0.0,0.0,0.0,0.0,0.0,0.0,0.0,0.0,0.0,0.0,0.0,0.0,0.0,0.0,0.0,0.0,0.0,0.0,0.0,0.0,0.0,0.0,0.0,0.0,0.0,0.0,0.0,0.0,0.0,0.0,0.0,0.0,0.0,0.0,0.0,0.0,0.0,0.0,0.0,0.0,0.0,0.0,0.0,0.0,0.0,0.0,0.0,0.0,0.0,0.0,0.0,0.0,0.0,0.0,0.0,0.0,-6.149,-6.1384,-6.1239,-6.107,-6.1062,-6.107,0.0,0.0,0.0,0.0,0.0,0.0,0.0,0.0,0.0,0.0,0.0,0.0,0.0,0.0,0.0,0.0,0.0,0.0,0.0,0.0,0.0,0.0,0.0,0.0,0.0,0.0,0.0,0.0,0.0,0.0,0.0,0.0,0.0,0.0,0.0,0.0,0.0,0.0,0.0,0.0,0.0,0.0,0.0,0.0,0.0,0.0,0.0,0.0,0.0,0.0,0.0,0.0,0.0,0.0,0.0,0.0,0.0,0.0,0.0,0.0,0.0,0.0,0.0,0.0,0.0,0.0,0.0,0.0,0.0,0.0,0.0,0.0,0.0,0.0,0.0,0.0,0.0,0.0,0.0,0.0,0.0,0.0,0.0,0.0,0.0,0.0,0.0,0.0,0.0,0.0,0.0,0.0,0.0,0.0,0.0,0.0,0.0,0.0,0.0,0.0,0.0,0.0,0.0,0.0,0.0,0.0,0.0,0.0,0.0,-6.1337,0.0,-6.1,-6.0943,-6.0933,-6.0943,0.0,0.0,0.0,0.0,0.0,0.0,0.0,0.0,0.0,0.0,0.0,0.0,0.0,0.0,0.0,0.0,0.0,0.0,0.0,0.0,0.0,0.0,0.0,0.0,0.0,0.0,0.0,0.0,0.0,0.0,0.0,0.0,0.0,0.0,0.0,0.0,0.0,0.0,0.0,0.0,0.0,0.0,0.0,0.0,0.0,0.0,0.0,0.0,0.0,0.0,0.0,0.0,0.0,0.0,0.0,0.0,0.0,0.0,0.0,0.0,0.0,0.0,0.0,0.0,0.0,0.0,0.0,0.0,0.0,0.0,0.0,0.0,0.0,0.0,0.0,0.0,0.0,0.0,0.0,0.0,0.0,0.0,0.0,0.0,0.0,0.0,0.0,0.0,0.0,0.0,0.0,0.0,0.0,0.0,0.0,0.0,0.0,0.0,0.0,0.0,0.0,0.0,0.0,0.0,0.0,0.0,0.0,0.0,-6.1331,-6.1011,-6.0877,-6.0804,-6.0781,-6.0793,-6.0793,0.0,0.0,0.0,0.0,0.0,0.0,0.0,0.0,0.0,0.0,0.0,0.0,0.0,0.0,0.0,0.0,0.0,0.0,0.0,0.0,0.0,0.0,0.0,0.0,0.0,0.0,0.0,0.0,0.0,0.0,0.0,0.0,0.0,0.0,0.0,0.0,0.0,0.0,0.0,0.0,0.0,0.0,0.0,0.0,0.0,0.0,0.0,0.0,0.0,0.0,0.0,0.0,0.0,0.0,0.0,0.0,0.0,0.0,0.0,0.0,0.0,0.0,0.0,0.0,0.0,0.0,0.0,0.0,0.0,0.0,0.0,0.0,0.0,0.0,0.0,0.0,0.0,0.0,0.0,0.0,0.0,0.0,0.0,0.0,0.0,0.0,0.0,0.0,0.0,0.0,0.0,0.0,0.0,0.0,0.0,0.0,0.0,0.0,0.0,0.0,0.0,0.0,0.0,0.0,0.0,0.0,0.0,0.0,0.0,-6.0867,-6.0827,-6.0781,-6.0781,-6.0781,-6.0781,0.0,0.0,0.0,0.0,0.0,0.0,0.0,0.0,0.0,0.0,0.0,0.0,0.0,0.0,0.0,0.0,0.0,0.0,0.0,0.0,0.0,0.0,0.0,0.0,0.0,0.0,0.0,0.0,0.0,0.0,0.0,0.0,0.0,0.0,0.0,0.0,0.0,0.0,0.0,0.0,0.0,0.0,0.0,0.0,0.0,0.0,0.0,0.0,0.0,0.0,0.0,0.0,0.0,0.0,0.0,0.0,0.0,0.0,0.0,0.0,0.0,0.0,0.0,0.0,0.0,0.0,0.0,0.0,0.0,0.0,0.0,0.0,0.0,0.0,0.0,0.0,0.0,0.0,0.0,0.0,0.0,0.0,0.0,0.0,0.0,0.0,0.0,0.0,0.0,0.0,0.0,0.0,0.0,0.0,0.0,0.0,0.0,0.0,0.0,0.0,0.0,0.0,0.0,0.0,0.0,0.0,0.0,0.0,0.0,-6.1755,-6.1743,-6.1743,-6.1743,-6.1743,-6.1435,-6.0819,0.0,0.0,0.0,0.0,0.0,0.0,0.0,0.0,0.0,0.0,0.0,0.0,0.0,0.0,0.0,0.0,0.0,0.0,0.0,0.0,0.0,0.0,0.0,0.0,0.0,0.0,0.0,0.0,0.0,0.0,0.0,0.0,0.0,0.0,0.0,0.0,0.0,0.0,0.0,0.0,0.0,0.0,0.0,0.0,0.0,0.0,0.0,0.0,0.0,0.0,0.0,0.0,0.0,0.0,0.0,0.0,0.0,0.0,0.0,0.0,0.0,0.0,0.0,0.0,0.0,0.0,0.0,0.0,0.0,0.0,0.0,0.0,0.0,0.0,0.0,0.0,0.0,0.0,0.0,0.0,0.0,0.0,0.0,0.0,0.0,0.0,0.0,0.0,0.0,0.0,0.0,0.0,0.0,0.0,0.0,0.0,0.0,0.0,0.0,0.0,0.0,0.0,0.0,0.0,0.0,0.0,0.0,0.0,-6.3358,-6.3512,-6.3551,-6.3435,-6.3346,-6.2551,0.0,0.0,0.0,0.0,0.0,0.0,0.0,0.0,0.0,0.0,0.0,0.0,0.0,0.0,0.0,0.0,0.0,0.0,0.0,0.0,0.0,0.0,0.0,0.0,0.0,0.0,0.0,0.0,0.0,0.0,0.0,0.0,0.0,0.0,0.0,0.0,0.0,0.0,0.0,0.0,0.0,0.0,0.0,0.0,0.0,0.0,0.0,0.0,0.0,0.0,0.0,0.0,0.0,0.0,0.0,0.0,0.0,0.0,0.0,0.0,0.0,0.0,0.0,0.0,0.0,0.0,0.0,0.0,0.0,0.0,0.0,0.0,0.0,0.0,0.0,0.0,0.0,0.0,0.0,0.0,0.0,0.0,0.0,0.0,0.0,0.0,0.0,0.0,0.0,0.0,0.0,0.0,0.0,0.0,0.0,0.0,0.0,0.0,0.0,0.0,0.0,0.0,0.0,0.0,0.0,0.0,0.0,0.0,0.0,-6.4282,-6.609,-6.6474,-6.5243,-6.3974,-6.3089,0.0,0.0,0.0,0.0,0.0,0.0,0.0,0.0,0.0,0.0,0.0,0.0,0.0,0.0,0.0,0.0,0.0,0.0,0.0,0.0,0.0,0.0,0.0,0.0,0.0,0.0,0.0,0.0,0.0,0.0,0.0,0.0,0.0,0.0,0.0,0.0,0.0,0.0,0.0,0.0,0.0,0.0,0.0,0.0,0.0,0.0,0.0,0.0,0.0,0.0,0.0,0.0,0.0,0.0,0.0,0.0,0.0,0.0,0.0,0.0,0.0,0.0,0.0,0.0,0.0,0.0,0.0,0.0,0.0,0.0,0.0,0.0,0.0,0.0,0.0,0.0,0.0,0.0,0.0,0.0,0.0,0.0,0.0,0.0,0.0,0.0,0.0,0.0,0.0,0.0,0.0,0.0,0.0,0.0,0.0,0.0,0.0,0.0,0.0,0.0,0.0,0.0,0.0,0.0,0.0,0.0,0.0,0.0,-6.4628,-6.5166,-6.7975,-6.8975,-6.8013,-6.5667,-6.4051,0.0,0.0,0.0,0.0,0.0,0.0,0.0,0.0,0.0,0.0,0.0,0.0,0.0,0.0,0.0,0.0,0.0,0.0,0.0,0.0,0.0,0.0,0.0,0.0,0.0,0.0,0.0,0.0,0.0,0.0,0.0,0.0,0.0,0.0,0.0,0.0,0.0,0.0,0.0,0.0,0.0,0.0,0.0,0.0,0.0,0.0,0.0,0.0,0.0,0.0,0.0,0.0,0.0,0.0,0.0,0.0,0.0,0.0,0.0,0.0,0.0,0.0,0.0,0.0,0.0,0.0,0.0,0.0,0.0,0.0,0.0,0.0,0.0,0.0,0.0,0.0,0.0,0.0,0.0,0.0,0.0,0.0,0.0,0.0,0.0,0.0,0.0,0.0,0.0,0.0,0.0,0.0,0.0,0.0,0.0,0.0,0.0,0.0,0.0,0.0,0.0,0.0,0.0,0.0,0.0,0.0,0.0,0.0,-6.5936,-6.6051,-6.9206,-7.0898,-7.0783,-6.7667,-6.5166,0.0,0.0,0.0,0.0,0.0,0.0,0.0,0.0,0.0,0.0,0.0,0.0,0.0,0.0,0.0,0.0,0.0,0.0,0.0,0.0,0.0,0.0,0.0,0.0,0.0,0.0,0.0,0.0,0.0,0.0,0.0,0.0,0.0,0.0,0.0,0.0,0.0,0.0,0.0,0.0,0.0,0.0,0.0,0.0,0.0,0.0,0.0,0.0,0.0,0.0,0.0,0.0,0.0,0.0,0.0,0.0,0.0,0.0,0.0,0.0,0.0,0.0,0.0,0.0,0.0,0.0,0.0,0.0,0.0,0.0,0.0,0.0,0.0,0.0,0.0,0.0,0.0,0.0,0.0,0.0,0.0,0.0,0.0,0.0,0.0,0.0,0.0,0.0,0.0,0.0,0.0,0.0,0.0,0.0,0.0,0.0,0.0,0.0,0.0,0.0,0.0,0.0,0.0,0.0,0.0,0.0,0.0,0.0,-6.6205,-6.6859,-6.9513,-7.0898,-7.086,-6.7667,-6.5743,0.0,0.0,0.0,0.0,0.0,0.0,0.0,0.0,0.0,0.0,0.0,0.0,0.0,0.0,0.0,0.0,0.0,0.0,0.0,0.0,0.0,0.0,0.0,0.0,0.0,0.0,0.0,0.0,0.0,0.0,0.0,0.0,0.0,0.0,0.0,0.0,0.0,0.0,0.0,0.0,0.0,0.0,0.0,0.0,0.0,0.0,0.0,0.0,-5.9352,0.0,0.0,0.0,0.0,0.0,0.0,0.0,0.0,0.0,0.0,0.0,0.0,0.0,0.0,0.0,0.0,0.0,0.0,0.0,0.0,0.0,0.0,0.0,0.0,0.0,0.0,0.0,0.0,0.0,0.0,0.0,0.0,0.0,0.0,0.0,0.0,0.0,0.0,0.0,0.0,0.0,0.0,0.0,0.0,0.0,0.0,0.0,0.0,0.0,0.0,0.0,0.0,0.0,0.0,0.0,0.0,0.0,0.0,0.0,-6.6513,-6.7744,-6.9783,-7.0898,-7.0821,-6.8371,-6.6666,0.0,0.0,0.0,0.0,0.0,0.0,0.0,0.0,0.0,0.0,0.0,0.0,0.0,0.0,0.0,0.0,0.0,0.0,0.0,0.0,0.0,0.0,0.0,0.0,0.0,0.0,0.0,0.0,0.0,0.0,0.0,0.0,0.0,0.0,0.0,0.0,0.0,0.0,0.0,0.0,0.0,0.0,0.0,0.0,0.0,0.0,0.0,0.0,0.0,0.0,0.0,0.0,0.0,0.0,0.0,0.0,0.0,0.0,0.0,0.0,0.0,0.0,0.0,0.0,0.0,0.0,0.0,0.0,0.0,0.0,0.0,0.0,0.0,0.0,0.0,0.0,0.0,0.0,0.0,0.0,0.0,0.0,0.0,0.0,0.0,0.0,0.0,0.0,0.0,0.0,0.0,0.0,0.0,0.0,0.0,0.0,0.0,0.0,0.0,0.0,0.0,0.0,0.0,0.0,0.0,0.0,0.0,-6.5153,-6.6821,-6.8744,-7.0154,-7.0885,-7.0846,-6.9201,-6.7535,-6.5923,0.0,0.0,0.0,0.0,0.0,0.0,0.0,0.0,0.0,0.0,0.0,0.0,0.0,0.0,0.0,0.0,0.0,0.0,0.0,0.0,0.0,0.0,0.0,0.0,0.0,0.0,0.0,0.0,0.0,0.0,0.0,0.0,0.0,0.0,0.0,0.0,0.0,0.0,-5.8268,-5.8154,0.0,0.0,0.0,0.0,0.0,0.0,0.0,0.0,-5.8268,0.0,0.0,0.0,0.0,0.0,0.0,0.0,0.0,0.0,0.0,0.0,0.0,0.0,0.0,0.0,0.0,0.0,0.0,0.0,0.0,0.0,0.0,0.0,0.0,0.0,0.0,0.0,0.0,0.0,0.0,0.0,0.0,0.0,0.0,0.0,0.0,0.0,0.0,0.0,0.0,0.0,0.0,0.0,0.0,0.0,0.0,0.0,0.0,0.0,0.0,0.0,0.0,0.0,0.0,0.0,0.0,-6.5599,-6.5816,-6.7398,-7.0398,-7.0689,-7.0815,-7.0762,-6.9131,-6.7428,-6.5768,0.0,0.0,0.0,0.0,0.0,0.0,0.0,0.0,0.0,0.0,0.0,0.0,0.0,0.0,0.0,0.0,0.0,0.0,0.0,0.0,0.0,0.0,0.0,0.0,0.0,0.0,0.0,0.0,0.0,0.0,0.0,0.0,0.0,0.0,0.0,0.0,0.0,0.0,0.0,-5.9376,-5.9568,0.0,0.0,0.0,0.0,0.0,0.0,0.0,0.0,-6.0599,0.0,0.0,0.0,0.0,0.0,0.0,0.0,0.0,0.0,0.0,0.0,0.0,0.0,0.0,0.0,0.0,0.0,0.0,0.0,0.0,0.0,0.0,0.0,0.0,0.0,0.0,0.0,0.0,0.0,0.0,0.0,0.0,0.0,0.0,0.0,0.0,0.0,0.0,0.0,0.0,0.0,0.0,0.0,0.0,0.0,0.0,0.0,0.0,0.0,0.0,0.0,0.0,0.0,0.0,0.0,-6.5989,-6.683,-6.8385,-7.0728,-7.0815,-7.0772,-7.069,-6.9044,-6.7372,0.0,0.0,0.0,0.0,0.0,0.0,0.0,0.0,0.0,0.0,0.0,0.0,0.0,0.0,0.0,0.0,0.0,0.0,0.0,0.0,0.0,0.0,0.0,0.0,0.0,0.0,0.0,0.0,0.0,0.0,0.0,0.0,0.0,0.0,0.0,0.0,0.0,0.0,0.0,0.0,-6.0408,-6.1019,-6.2701,0.0,0.0,0.0,0.0,0.0,0.0,-6.0905,-6.0943,0.0,0.0,0.0,0.0,0.0,0.0,0.0,0.0,0.0,0.0,0.0,0.0,0.0,0.0,0.0,0.0,0.0,0.0,0.0,0.0,0.0,0.0,0.0,0.0,0.0,0.0,0.0,0.0,0.0,0.0,0.0,0.0,0.0,0.0,0.0,0.0,0.0,0.0,0.0,0.0,0.0,0.0,0.0,0.0,0.0,0.0,0.0,0.0,0.0,0.0,0.0,0.0,0.0,0.0,0.0,-6.6138,-6.7612,-6.9165,-7.0738,-7.0801,-7.0758,-7.0684,-6.8678,-6.6969,0.0,0.0,0.0,0.0,0.0,0.0,0.0,0.0,0.0,0.0,0.0,0.0,0.0,0.0,0.0,0.0,0.0,0.0,0.0,0.0,0.0,0.0,0.0,0.0,0.0,0.0,0.0,0.0,0.0,0.0,0.0,0.0,0.0,0.0,0.0,0.0,0.0,0.0,0.0,0.0,0.0,-6.2357,-6.3732,-6.2586,0.0,0.0,0.0,0.0,-6.1631,-6.2089,0.0,0.0,0.0,0.0,0.0,0.0,0.0,0.0,0.0,0.0,0.0,0.0,0.0,0.0,0.0,0.0,0.0,0.0,0.0,0.0,0.0,0.0,0.0,0.0,0.0,0.0,0.0,0.0,0.0,0.0,0.0,0.0,0.0,0.0,0.0,0.0,0.0,0.0,0.0,0.0,0.0,0.0,0.0,0.0,0.0,0.0,0.0,0.0,0.0,0.0,0.0,0.0,0.0,0.0,0.0,0.0,-6.6234,-6.7695,-6.9192,-7.0808,-7.0829,-7.0758,-7.0684,-6.7529,-6.5738,0.0,0.0,0.0,0.0,0.0,0.0,0.0,0.0,0.0,0.0,0.0,0.0,0.0,0.0,0.0,0.0,0.0,0.0,0.0,0.0,0.0,0.0,0.0,0.0,0.0,0.0,0.0,0.0,0.0,0.0,0.0,0.0,0.0,0.0,0.0,0.0,0.0,0.0,0.0,0.0,0.0,-6.2815,-6.3006,-6.2242,-6.1516,0.0,0.0,-6.4282,-6.5757,-6.7821,0.0,0.0,0.0,0.0,0.0,0.0,0.0,0.0,0.0,0.0,0.0,0.0,0.0,0.0,0.0,0.0,0.0,0.0,0.0,0.0,0.0,0.0,0.0,0.0,0.0,0.0,0.0,0.0,0.0,0.0,0.0,0.0,0.0,0.0,0.0,0.0,0.0,0.0,0.0,0.0,0.0,0.0,0.0,0.0,0.0,0.0,0.0,0.0,0.0,0.0,0.0,0.0,0.0,0.0,0.0,-6.5467,-6.6235,-6.8574,-7.0127,-7.0734,-7.0782,-7.0669,-7.0531,-6.721,-6.545,0.0,0.0,0.0,0.0,0.0,0.0,0.0,0.0,0.0,0.0,0.0,0.0,0.0,0.0,0.0,0.0,0.0,0.0,0.0,0.0,0.0,0.0,0.0,0.0,0.0,0.0,0.0,0.0,0.0,0.0,0.0,0.0,0.0,0.0,0.0,0.0,0.0,0.0,0.0,0.0,0.0,0.0,-6.4993,-6.4764,0.0,0.0,0.0,-6.6063,-6.5375,0.0,0.0,0.0,0.0,0.0,0.0,0.0,0.0,0.0,0.0,0.0,0.0,0.0,0.0,0.0,0.0,0.0,0.0,0.0,0.0,0.0,0.0,0.0,0.0,0.0,0.0,0.0,0.0,0.0,0.0,0.0,0.0,0.0,0.0,0.0,0.0,0.0,0.0,0.0,0.0,0.0,0.0,0.0,0.0,0.0,0.0,0.0,0.0,0.0,0.0,0.0,0.0,0.0,0.0,0.0,0.0,0.0,-6.6155,-6.9232,-7.0815,-7.0752,-7.0723,-7.0647,-7.0413,-6.7623,0.0,0.0,0.0,0.0,0.0,0.0,0.0,0.0,0.0,0.0,0.0,0.0,0.0,0.0,0.0,0.0,0.0,0.0,0.0,0.0,0.0,0.0,0.0,0.0,0.0,0.0,0.0,-6.0905,0.0,0.0,0.0,0.0,0.0,0.0,0.0,0.0,0.0,0.0,0.0,0.0,0.0,0.0,-6.5872,-6.633,-6.6904,-6.7477,0.0,0.0,-6.7553,-6.6575,-6.9938,-7.1107,0.0,0.0,0.0,0.0,0.0,0.0,0.0,0.0,0.0,0.0,0.0,0.0,0.0,0.0,0.0,0.0,0.0,0.0,0.0,0.0,0.0,0.0,0.0,0.0,0.0,0.0,0.0,0.0,0.0,0.0,0.0,0.0,0.0,0.0,0.0,0.0,0.0,0.0,0.0,0.0,0.0,0.0,0.0,0.0,0.0,0.0,0.0,0.0,0.0,0.0,0.0,0.0,0.0,0.0,-6.623,-6.6193,-6.922,-7.0787,-7.0787,-7.0752,-7.0678,-7.0531,-6.8824,-6.711,0.0,0.0,0.0,0.0,0.0,0.0,0.0,0.0,0.0,0.0,0.0,0.0,0.0,0.0,0.0,0.0,0.0,0.0,0.0,0.0,0.0,0.0,0.0,0.0,0.0,0.0,0.0,0.0,0.0,0.0,0.0,0.0,0.0,0.0,0.0,0.0,0.0,0.0,0.0,0.0,0.0,-6.633,-6.5566,-6.7515,-6.9578,0.0,0.0,-6.8929,-7.1909,-7.3972,-7.3514,-6.8562,0.0,0.0,0.0,0.0,0.0,0.0,0.0,0.0,0.0,0.0,0.0,0.0,0.0,0.0,0.0,0.0,0.0,0.0,0.0,0.0,0.0,0.0,0.0,0.0,0.0,0.0,0.0,0.0,0.0,0.0,0.0,0.0,0.0,0.0,0.0,0.0,0.0,0.0,0.0,0.0,0.0,0.0,0.0,0.0,0.0,0.0,0.0,0.0,0.0,0.0,0.0,0.0,0.0,-6.6077,-6.5907,-6.9127,-7.0743,-7.0678,-7.0647,-7.0585,-7.0467,-6.8862,-6.7164,0.0,0.0,0.0,0.0,0.0,0.0,0.0,0.0,0.0,0.0,0.0,0.0,0.0,0.0,0.0,0.0,0.0,0.0,0.0,0.0,0.0,0.0,0.0,0.0,0.0,0.0,0.0,0.0,-6.3618,-6.2892,-6.079,0.0,0.0,0.0,0.0,0.0,0.0,0.0,0.0,0.0,0.0,-6.7897,-6.9082,-7.0572,0.0,0.0,-7.168,-7.1107,-7.1374,-7.3246,-7.2979,-6.7973,-6.7171,0.0,0.0,0.0,0.0,0.0,0.0,0.0,0.0,0.0,0.0,0.0,0.0,0.0,0.0,0.0,0.0,0.0,0.0,0.0,0.0,0.0,0.0,0.0,0.0,0.0,0.0,0.0,0.0,0.0,0.0,0.0,0.0,0.0,0.0,0.0,0.0,0.0,0.0,0.0,0.0,0.0,0.0,0.0,0.0,0.0,0.0,0.0,0.0,0.0,0.0,0.0,0.0,-6.5924,-6.5717,-6.9016,-7.0693,-7.0585,-7.0554,-7.0506,-7.0381,-6.9234,-6.7859,0.0,0.0,0.0,0.0,0.0,0.0,0.0,0.0,0.0,0.0,0.0,0.0,0.0,0.0,0.0,0.0,0.0,0.0,0.0,0.0,0.0,0.0,0.0,0.0,0.0,0.0,0.0,0.0,-6.3236,-6.2013,-5.9363,0.0,0.0,0.0,0.0,0.0,0.0,0.0,0.0,0.0,0.0,-6.9502,-7.0763,-7.1871,-7.252,-7.2253,-7.1794,-7.1221,-7.0533,-7.1909,-7.1794,-6.805,0.0,0.0,0.0,0.0,0.0,0.0,0.0,0.0,0.0,0.0,0.0,0.0,0.0,0.0,0.0,0.0,0.0,0.0,0.0,0.0,0.0,0.0,0.0,0.0,0.0,0.0,0.0,0.0,0.0,0.0,-6.1718,0.0,0.0,0.0,0.0,0.0,0.0,0.0,0.0,0.0,0.0,0.0,0.0,0.0,0.0,0.0,0.0,0.0,0.0,0.0,0.0,0.0,0.0,-6.5916,-6.5717,-6.8938,-7.0585,-7.0569,-7.0451,-7.0419,-7.0419,-7.0364,-6.954,-6.7859,0.0,0.0,0.0,0.0,0.0,0.0,0.0,0.0,0.0,0.0,0.0,0.0,0.0,0.0,0.0,0.0,0.0,0.0,0.0,0.0,0.0,0.0,0.0,0.0,0.0,0.0,-5.9515,-6.0026,-6.0141,0.0,0.0,0.0,0.0,0.0,0.0,0.0,0.0,0.0,0.0,-6.8486,-7.0992,-6.954,-7.0686,-7.1489,-7.0724,-6.9196,-6.8623,-7.0228,-7.0457,-7.019,0.0,0.0,0.0,0.0,0.0,0.0,0.0,0.0,0.0,0.0,0.0,0.0,0.0,0.0,0.0,0.0,0.0,0.0,0.0,0.0,0.0,0.0,0.0,0.0,0.0,0.0,0.0,-6.3438,-6.3438,0.0,0.0,0.0,0.0,0.0,0.0,0.0,0.0,0.0,0.0,0.0,-6.6585,-6.6585,0.0,0.0,0.0,0.0,0.0,0.0,0.0,0.0,0.0,0.0,0.0,0.0,-6.5846,-6.587,-6.8958,-7.0647,-7.0623,-7.0451,-7.0402,-7.0402,-7.0402,-6.9616,-6.7935,0.0,0.0,0.0,0.0,0.0,0.0,0.0,0.0,0.0,0.0,0.0,0.0,0.0,0.0,0.0,0.0,0.0,0.0,0.0,0.0,0.0,0.0,0.0,0.0,0.0,-6.0332,0.0,0.0,0.0,0.0,0.0,0.0,0.0,0.0,0.0,0.0,0.0,-6.4382,-6.7171,-6.847,-6.9349,-6.9922,-7.0954,-7.1985,0.0,0.0,0.0,0.0,0.0,0.0,0.0,0.0,0.0,0.0,0.0,0.0,0.0,0.0,-6.7209,-6.4993,-6.5222,-6.5796,-6.5757,0.0,0.0,0.0,0.0,0.0,0.0,0.0,0.0,0.0,0.0,0.0,0.0,0.0,0.0,-6.4846,0.0,-6.4924,0.0,0.0,0.0,0.0,0.0,0.0,0.0,0.0,-6.7732,-6.8578,-6.913,-6.9137,-6.9305,0.0,-6.8423,-6.6385,0.0,0.0,0.0,0.0,0.0,0.0,0.0,0.0,-6.5781,-6.583,-6.8982,-7.0632,-7.0538,-7.0435,-7.0402,-7.0402,-7.0402,-6.9884,-6.8814,-6.7171,-6.591,0.0,0.0,0.0,0.0,0.0,0.0,0.0,0.0,0.0,0.0,0.0,0.0,0.0,0.0,0.0,0.0,0.0,0.0,0.0,0.0,0.0,0.0,0.0,-6.1287,0.0,0.0,0.0,0.0,0.0,0.0,0.0,0.0,0.0,-6.3006,-6.4688,-6.6751,-6.889,-6.9693,-6.996,-6.9578,0.0,0.0,0.0,0.0,0.0,0.0,0.0,-6.7553,-6.6522,-6.6865,-6.7439,-6.7973,-6.8929,-6.9731,-6.9999,0.0,0.0,-6.7706,-6.7782,-6.8317,-6.8356,-6.7935,-6.7744,-6.8241,-6.8165,-6.8165,0.0,0.0,0.0,0.0,0.0,0.0,0.0,0.0,-6.6873,-6.6017,0.0,-6.6209,0.0,0.0,0.0,0.0,0.0,-6.6951,0.0,0.0,-7.1636,-7.2638,-7.152,-7.1528,-7.1368,-7.0887,-6.9373,-6.8294,-6.7585,-6.6833,0.0,0.0,0.0,0.0,0.0,0.0,-6.5676,-6.5838,-6.8946,-7.0538,-7.0419,-7.0419,-7.0402,-7.0402,-7.0402,-7.0364,-7.0342,-6.8814,-6.8356,-6.9082,-6.5337,0.0,0.0,0.0,0.0,0.0,0.0,0.0,0.0,0.0,0.0,0.0,0.0,0.0,0.0,0.0,0.0,0.0,0.0,0.0,0.0,-6.2433,0.0,0.0,0.0,0.0,0.0,0.0,0.0,0.0,0.0,0.0,-6.3656,-6.6636,-6.9158,-6.912,0.0,0.0,0.0,0.0,-7.019,-6.6407,-6.5719,-6.5796,-6.5948,-6.7171,-6.8661,-7.019,0.0,0.0,-7.3017,-7.1718,-7.103,-7.1756,-7.3284,-7.3552,-7.1145,-7.0228,-6.9731,-6.9693,-6.9769,-6.954,-6.9578,-7.0495,-7.0823,-6.7224,0.0,0.0,0.0,0.0,-6.6092,-6.7068,-6.8669,-6.863,-6.8398,-6.7966,-6.8435,0.0,0.0,0.0,0.0,0.0,0.0,-6.9684,-7.0933,-7.2573,-7.3261,-7.3268,-7.3268,-7.3101,-7.2745,-7.2283,-7.1926,-7.1737,-7.0914,-6.8193,-6.3661,0.0,0.0,0.0,0.0,-6.6318,-6.7557,-6.9574,-7.0569,-7.0538,-7.0451,-7.0402,-7.0402,-7.0402,-7.0402,-7.0402,-6.996,-6.954,-6.9196,-6.805,0.0,0.0,0.0,0.0,0.0,0.0,0.0,0.0,0.0,0.0,0.0,0.0,0.0,0.0,0.0,0.0,0.0,0.0,0.0,-6.0714,-6.3121,-6.3159,0.0,0.0,0.0,0.0,0.0,0.0,0.0,0.0,0.0,-6.8279,-6.8241,-6.8279,0.0,0.0,-6.7477,-6.6292,-6.8279,-7.0113,-7.0724,-7.0801,0.0,-7.3208,-7.2367,-7.168,-7.2176,-7.3667,-7.4775,-7.4792,-7.5348,-7.5921,-7.615,-7.657,-7.6647,-7.6036,-7.5653,-7.5462,-7.5462,-7.5462,-7.5462,-7.5501,-7.5692,-7.5768,-6.9801,-6.8747,-6.7381,-6.7185,-6.781,-6.7849,-6.8825,-7.0426,-7.0426,-7.0035,-6.945,-7.0152,-6.9098,-6.6837,-6.7185,0.0,0.0,0.0,-7.1558,-7.3549,-7.4056,-7.4553,-7.4994,-7.5016,-7.4834,-7.449,-7.4514,-7.4322,-7.3937,-7.2437,-6.9785,-6.6101,0.0,0.0,-6.4359,-6.5935,-6.7226,-6.8272,-6.9804,-7.0569,-7.0522,-7.0779,-7.0916,-7.0916,-7.1259,-7.1259,-7.0916,-7.1259,-7.1221,-7.0724,-7.0037,-6.8508,0.0,0.0,0.0,0.0,0.0,0.0,0.0,0.0,0.0,0.0,0.0,-5.8484,-5.7008,0.0,0.0,0.0,-6.2204,-6.2777,-6.2433,-6.3923,0.0,0.0,0.0,0.0,0.0,0.0,0.0,-6.5108,-6.8088,-7.0495,-7.1298,-7.0533,-7.0151,-7.0801,-7.0304,-6.954,-6.8547,0.0,-7.2367,-7.2941,-7.2979,-7.3514,-7.4966,-7.4545,-7.4201,-7.4889,-7.5768,-7.6456,-7.6532,-7.7373,-7.8099,-7.8443,-7.8519,-7.8596,-7.8939,-7.8978,-7.8748,-7.8137,-7.8022,-7.8022,-7.8022,-7.8022,-7.8022,-7.1987,-7.1714,-6.8552,-6.8161,-6.9567,-6.9606,-7.0543,-7.1987,-7.1987,-7.1089,-6.9762,-7.1285,-7.023,-6.7266,-6.8044,0.0,-7.0933,-7.1792,-7.3471,-7.5816,-7.5894,-7.6157,-7.6579,-7.6579,-7.6394,-7.5976,-7.5976,-7.5592,-7.4707,-7.2322,-7.0667,-6.9783,-6.8846,-6.7538,-6.6051,-6.7318,-6.8119,-6.8201,-6.9659,-7.0423,-7.0533,-7.1298,-7.1735,-7.1794,-7.2559,-7.2597,-7.1887,-7.2559,-7.3017,-7.3055,-7.1565,-7.061,-7.0266,0.0,0.0,0.0,0.0,0.0,0.0,0.0,0.0,0.0,0.0,0.0,0.0,0.0,0.0,0.0,-6.5796,0.0,-6.5872,-6.5146,0.0,0.0,0.0,-6.5566,-6.8852,-6.9311,-6.9693,-7.0419,0.0,0.0,-7.317,-7.3284,-7.3934,-7.5653,-7.6188,-7.5577,-7.3323,-7.4927,-7.5883,-7.3743,-7.3552,-7.3667,-7.4393,-7.5233,-7.6494,-7.7793,-7.8213,-7.8213,-7.8213,-7.8213,-7.8557,-7.9245,-7.9378,-7.9589,-8.0353,-8.0353,-8.0047,-7.8557,-7.8252,-7.8252,-7.8328,-7.8328,-7.8366,-7.1987,-7.1948,-7.1089,-7.1011,-7.1363,-7.1402,-7.1636,-7.1987,-7.1987,-7.1753,-7.1402,-7.1831,-7.1558,-7.0777,-7.0972,-7.1675,-7.2726,-7.3549,-7.4603,-7.5816,-7.6477,-7.6737,-7.6579,-7.6618,-7.6394,-7.6005,-7.5976,-7.5899,-7.563,-7.3822,-7.2129,-7.0591,-6.9075,-6.7486,-6.591,-6.6137,-6.6859,-6.8127,-6.8396,-6.9496,-7.1298,-7.1603,-7.1985,-7.2673,-7.2864,-7.2902,-7.2711,-7.2902,-7.3284,-7.3858,-7.3514,-7.2444,-7.0441,-6.6636,0.0,0.0,0.0,0.0,0.0,0.0,0.0,0.0,0.0,-5.9262,-5.7351,0.0,-6.1325,0.0,-6.6636,-6.9464,-6.9311,-6.9082,0.0,0.0,-6.5987,-6.6178,-6.889,-7.0342,-7.1183,-7.1374,-7.3284,-7.4907,-7.5692,-7.5806,-7.6685,-7.8901,-7.615,-7.3667,-7.3132,-7.5119,-7.6532,-7.6112,-7.7373,-7.871,-7.8557,-7.9016,-7.936,-7.9818,-7.9895,-7.9895,-7.9895,-7.9933,-7.9971,-8.0162,-8.02,-8.0315,-8.0468,-8.0506,-8.0391,-8.0009,-7.9895,-7.9895,-7.9895,-7.9895,-7.9895,-7.1987,-7.1987,-7.1987,-7.1987,-7.1987,-7.1987,-7.1987,-7.1987,-7.1987,-7.1987,-7.1987,-7.1987,-7.1987,-7.1987,-7.1987,-7.2651,-7.3822,-7.429,-7.5188,-7.6399,-7.6794,-7.6843,-7.6609,-7.6488,-7.6293,-7.6029,-7.5976,-7.5976,-7.5899,-7.4322,-7.3014,-7.2014,-7.0319,-6.86,-6.6959,-6.6033,-6.6064,-6.6963,-6.7982,-6.9502,-7.1603,-7.2444,-7.2482,-7.1871,-7.2215,-7.1718,-7.0266,-7.0533,-7.0763,-7.0877,-7.0877,-7.0381,-6.9311,-6.5757,-6.3045,0.0,0.0,0.0,0.0,0.0,0.0,0.0,0.0,0.0,0.0,0.0,-6.3312,-6.3312,-6.7973,-7.0533,-6.9425,-6.9655,-6.9922,-7.0037,-6.9273,-6.9922,-7.2788,-7.359,-7.4201,-7.5021,-7.6321,-7.7505,-7.829,-7.8404,-7.8863,-8.0315,-7.8099,-7.6341,-7.6418,-7.7564,-7.8404,-7.8443,-7.9589,-8.0506,-8.0506,-8.0506,-8.0506,-8.0506,-8.0506,-8.0506,-8.0506,-8.0506,-8.0506,-8.0506,-8.0506,-8.0506,-8.0506,-8.0506,-8.0506,-8.0506,-8.0506,-8.0506,-8.0506,-8.0506,-8.0506,-7.1987,-7.1987,-7.1987,-7.1987,-7.1987,-7.1987,-7.1987,-7.1987,-7.1987,-7.1987,-7.1987,-7.1987,-7.1987,-7.1987,-7.1987,-7.2924,-7.4486,-7.4486,-7.5423,-7.7059,-7.6912,-7.6748,-7.6609,-7.6426,-7.6224,-7.6015,-7.5976,-7.5976,-7.5938,-7.4322,-7.3399,-7.3091,-7.1423,-6.9704,-6.7996,-6.6417,-6.5566,-6.5518,-6.7829,-6.9807,-7.1352,-7.2597,-7.2215,-7.0228,-7.0801,-6.9846,-6.7056,-6.7515,-6.7591,-6.6904,-6.6865,-6.7324,-6.8203,-6.4496,-6.2739,0.0,-6.0714,0.0,0.0,0.0,0.0,0.0,0.0,0.0,0.0,-6.5643,-6.5872,-6.6178,-6.9655,-7.1085,-6.9196,-6.9807,-7.1489,-7.4278,-7.4049,-7.4813,-7.7564,-7.7411,-7.7602,-7.9149,-7.936,-7.9742,-8.0277,-8.0506,-8.0506,-8.0468,-8.0315,-8.0009,-8.0353,-8.0277,-8.0315,-8.0506,-8.0506,-8.0506,-8.0506,-8.0506,-8.0506,-8.0506,-8.0506,-8.0506,-8.0506,-8.0506,-8.0506,-8.0506,-8.0506,-8.0506,-8.0506,-8.0506,-8.0506,-8.0506,-8.0506,-8.0506,-8.0506,-8.0506,-8.0506,-7.1987,-7.1987,-7.1987,-7.1987,-7.1987,-7.1987,-7.1987,-7.1987,-7.1987,-7.1987,-7.1987,-7.1987,-7.1987,-7.1987,-7.1987,-7.2885,-7.4486,-7.4486,-7.5423,-7.7101,-7.705,-7.6872,-7.6618,-7.6573,-7.635,-7.6005,-7.5976,-7.5976,-7.5976,-7.4322,-7.2783,-7.136,-6.9651,-6.7933,-6.6345,0.0,0.0,0.0,-6.7225,-6.8623,-6.9578,-6.8661,-6.8203,-6.8356,-6.8508,0.0,-6.7744,-6.7836,-6.7821,-6.7668,-6.7668,0.0,0.0,0.0,0.0,0.0,0.0,0.0,0.0,0.0,0.0,0.0,-6.698,-6.6636,-6.6483,-6.7056,-6.8279,-7.0304,-7.1871,-7.3399,-7.4889,-7.5806,-7.657,-7.7182,-7.7144,-7.7335,-7.7984,-7.8443,-7.8958,-7.9263,-7.9856,-8.0315,-8.0468,-8.0506,-8.0506,-8.0506,-8.0506,-8.0506,-8.0506,-8.0506,-8.0506,-8.0506,-8.0506,-8.0506,-8.0506,-8.0506,-8.0506,-8.0506,-8.0506,-8.0506,-8.0506,-8.0506,-8.0506,-8.0506,-8.0506,-8.0506,-8.0506,-8.0506,-8.0506,-8.0506,-8.0506,-8.0506,-8.0506,-8.0506,-8.0506,-7.1987,0.0,-7.1987,-7.1987,0.0,-7.1987,-7.1987,-7.1987,-7.1987,-7.1987,-7.1987,-7.1987,-7.1987,-7.1987,-7.1987,-7.2924,-7.4486,-7.4486,-7.5365,-7.6926,-7.6872,-7.6699,-7.6457,-7.635,-7.6186,-7.5976,-7.5976,-7.5976,-7.5899,-7.4322,-7.3053,-7.2168,-7.0434,-6.9138,-6.8304,-6.8139,-6.7844,-6.7332,-6.8524,-6.996,-7.1565,-7.1259,-7.0648,-6.9807,-6.9769,0.0,0.0,0.0,0.0,0.0,0.0,0.0,0.0,-6.7859,0.0,-6.9005,-6.7553,-6.7362,-6.9005,-6.9158,-6.9884,-7.1489,-7.1642,-7.0954,-6.9311,-7.0686,-7.2193,-7.3437,-7.4316,-7.5501,-7.7182,-7.8137,-7.8634,-7.8634,-7.8634,-7.8634,-7.8672,-7.9016,-7.9454,-7.9856,-8.0238,-8.0506,-8.0506,-8.0506,-8.0506,-8.0506,-8.0506,-8.0506,-8.0506,-8.0506,-8.0506,-8.0506,-8.0506,-8.0506,-8.0506,-8.0506,-8.0506,-8.0506,-8.0506,-8.0506,-8.0506,-8.0506,-8.0506,-8.0506,-8.0506,-8.0506,-8.0506,-8.0506,-8.0506,-8.0506,-8.0506,-8.0506,-8.0506,-8.0506,-8.0506,-7.2456,-7.2456,-7.2456,-7.2456,-7.2456,-7.2417,-7.2378,-7.2221,0.0,0.0,0.0,-7.1987,-7.1987,-7.1987,-7.1987,-7.2846,-7.4251,-7.4447,-7.5272,-7.6599,-7.6621,-7.6525,-7.6339,-7.616,-7.6034,-7.5976,-7.5976,-7.5899,-7.5707,-7.4361,-7.3654,-7.3399,-7.2052,-7.1318,-7.1233,-7.1084,-7.0837,-7.0423,-7.026,-7.1259,-7.3437,-7.3934,-7.317,-7.1068,-7.103,-7.0053,-6.7973,-6.7897,-6.7897,-6.7897,-6.7286,-6.7439,-6.847,-6.7935,-6.8088,-6.912,-6.9234,-7.0151,-7.2176,-7.2384,-7.3263,-7.5348,-7.5518,-7.4639,-7.2482,-7.4295,-7.5594,-7.5692,-7.6456,-7.7296,-7.8175,-7.8978,-7.9474,-7.9493,-7.9513,-7.9569,-7.9722,-7.9742,-8.0047,-8.0582,-8.0773,-8.0659,-8.0544,-8.0506,-8.0506,-8.0506,-8.0506,-8.0506,-8.0506,-8.0506,-8.0506,-8.0506,-8.0506,-8.0506,-8.0506,-8.0506,-8.0506,-8.0506,-8.0506,-8.0506,-8.0506,-8.0506,-8.0544,-8.0812,-8.0735,-8.085,-8.0926,-8.1041,-8.0926,-8.0926,-8.0926,-8.0926,-8.0926,-8.0926,-8.0888,-7.4134,-7.4134,-7.4173,-7.4134,-7.4134,-7.4173,-7.3783,-7.308,-7.2339,-7.1987,-7.1987,-7.1987,-7.1987,-7.1987,-7.1987,-7.2534,-7.351,-7.4173,-7.5026,-7.5954,-7.6521,-7.6699,-7.6564,-7.635,-7.6147,-7.5991,-7.5976,-7.563,-7.4938,-7.4668,-7.4207,-7.3538,-7.3245,-7.302,-7.2886,-7.2777,-7.3368,-7.4542,-7.1161,-6.9884,-7.0877,-6.9655,-6.8814,-6.847,-6.8562,-6.8279,-6.7897,-6.7973,-6.7897,-6.7897,-6.7782,-6.8776,-7.0992,-7.103,-7.2024,-7.4219,-7.4448,-7.4601,-7.4945,-7.4966,-7.5136,-7.5442,-7.5518,-7.5365,-7.5004,-7.5289,-7.5768,-7.6456,-7.7335,-7.8175,-7.9016,-7.9818,-8.0277,-8.0315,-8.0315,-8.0621,-8.127,-8.1385,-8.1423,-8.1538,-8.1614,-8.127,-8.0659,-8.0506,-8.0506,-8.0506,-8.0506,-8.0506,-8.0506,-8.0506,-8.0506,-8.0506,-8.0506,-8.0506,-8.0506,-8.0506,-8.0506,-8.0506,-8.0544,-8.0621,-8.0621,-8.0697,-8.0926,-8.1499,-8.1614,-8.1843,-8.2378,-8.2646,-8.2493,-8.2455,-8.2455,-8.2493,-8.2455,-8.2455,-8.2111,-7.4486,-7.4486,-7.4486,-7.4486,-7.4486,-7.4486,-7.429,-7.3939,-7.351,-7.2846,-7.2026,-7.1987,-7.1987,-7.1987,-7.1987,-7.2729,-7.3978,-7.433,-7.517,-7.6288,-7.6566,-7.6605,-7.6457,-7.6339,-7.6186,-7.6044,-7.6106,-7.59,-7.5414,-7.4938,-7.4514,-7.4115,-7.362,-7.3476,-7.3773,-7.3729,-7.4503,-7.6036,-7.3819,-7.3208,-7.4469,-7.3781,-7.3132,-7.2711,-7.2673,-7.2444,-7.204,-7.2024,-7.204,-7.2024,-7.2024,-7.2559,-7.3684,-7.3743,-7.4295,-7.5403,-7.5518,-7.5518,-7.5518,-7.5883,-7.615,-7.615,-7.6609,-7.6876,-7.6838,-7.6418,-7.6494,-7.7335,-7.8213,-7.8863,-7.9302,-8.0009,-8.0506,-8.0506,-8.0888,-8.1385,-8.1767,-8.2225,-8.2264,-8.1881,-8.1805,-8.1461,-8.0621,-8.0506,-8.0506,-8.0506,-8.0506,-8.0506,-8.0506,-8.0506,-8.0506,-8.0506,-8.0506,-8.0506,-8.0506,-8.0506,-8.0506,-8.0506,-8.0926,-8.1156,-8.127,-8.1499,-8.1958,-8.234,-8.2455,-8.2569,-8.299,-8.299,-8.299,-8.299,-8.299,-8.299,-8.299,-8.299,-8.2684,-7.5071,-7.5071,-7.5071,-7.5071,-7.5071,-7.4876,-7.4798,-7.4759,-7.4564,-7.3783,-7.2651,-7.2573,-7.2573,-7.2573,-7.2573,-7.3275,-7.4408,-7.472,-7.5432,-7.6487,-7.6628,-7.6561,-7.6397,-7.635,-7.6211,-7.6079,-7.6173,-7.6044,-7.5697,-7.5207,-7.4962,-7.4894,-7.4159,-7.4034,-7.4588,-7.4694,-7.5501,-7.6876,-7.657,-7.6876,-7.7946,-7.8022,-7.764,-7.7067,-7.6953,-7.6685,-7.6112,-7.6036,-7.6074,-7.6036,-7.6036,-7.6036,-7.6074,-7.6074,-7.6074,-7.6036,-7.6036,-7.6074,-7.6074,-7.6609,-7.6991,-7.6991,-7.7602,-7.8061,-7.8213,-7.7678,-7.7564,-7.8252,-7.8901,-7.934,-7.9665,-8.0315,-8.0773,-8.085,-8.1385,-8.1881,-8.2073,-8.2455,-8.2493,-8.1881,-8.1805,-8.1461,-8.0773,-8.0506,-8.0506,-8.0506,-8.0506,-8.0506,-8.0506,-8.0506,-8.0506,-8.0506,-8.0506,-8.0506,-8.0506,-8.0735,-8.0812,-8.0812,-8.1499,-8.1958,-8.2149,-8.2607,-8.3066,-8.3181,-8.3295,-8.3448,-8.3524,-8.3639,-8.3677,-8.3754,-8.3754,-8.3677,-8.3715,-8.3715,-8.3372,-7.6828,-7.6867,-7.6789,-7.6867,-7.6711,-7.6008,-7.5699,-7.5582,-7.4876,-7.4447,-7.429,-7.4251,-7.4251,-7.429,-7.4212,-7.433,-7.4603,-7.5345,-7.5771,-7.5989,-7.6492,-7.678,-7.6689,-7.6438,-7.6308,-7.626,-7.612,-7.5663,-7.5014,-7.5553,-7.5817,-7.578,-7.5587,-7.5452,-7.5599,-7.6164,-7.6953,-7.787,-7.8596,-7.8634,-7.8022,-7.8022,-7.7984,-7.7908,-7.7908,-7.787,-7.7678,-7.7755,-7.7755,-7.7755,-7.7717,-7.7717,-7.7755,-7.7755,-7.7755,-7.7717,-7.7755,-7.7793,-7.7755,-7.7831,-7.787,-7.787,-7.7984,-7.8404,-7.9092,-7.9092,-7.9072,-7.9263,-7.9302,-7.9722,-8.0315,-8.1156,-8.1652,-8.169,-8.1843,-8.2073,-8.2646,-8.2302,-8.1881,-8.1805,-8.1805,-8.1461,-8.0697,-8.0506,-8.0506,-8.0506,-8.0506,-8.0506,-8.0506,-8.0506,-8.0506,-8.0506,-8.0506,-8.0544,-8.0659,-8.1194,-8.1538,-8.169,-8.234,-8.2798,-8.2951,-8.3028,-8.3219,-8.4059,-8.4174,-8.4365,-8.4862,-8.5282,-8.5167,-8.49,-8.4976,-8.5167,-8.5244,-8.5129,-8.4632,-7.7101,-7.7101,-7.7101,-7.7101,-7.7023,-7.6711,-7.6555,-7.6516,-7.6203,-7.6047,-7.6047,-7.6047,-7.5462,-7.4525,-7.4486,-7.4759,-7.5305,-7.566,-7.6086,-7.6549,-7.6741,-7.6804,-7.678,-7.6588,-7.6426,-7.6293,-7.6211,-7.5914,-7.562,-7.5861,-7.6201,-7.6548,-7.6508,-7.6941,-7.7828,-7.8112,-7.867,-7.9527,-7.9855,-7.9818,-7.9513,-7.9474,-7.9245,-7.8825,-7.8748,-7.8481,-7.8061,-7.8022,-7.8022,-7.8022,-7.8022,-7.8022,-7.8022,-7.8022,-7.8022,-7.8022,-7.8022,-7.8022,-7.8022,-7.8481,-7.8748,-7.8787,-7.9207,-7.9665,-7.9971,-8.0009,-8.02,-8.0697,-8.0773,-8.0926,-8.1308,-8.2034,-8.2493,-8.2569,-8.2951,-8.3219,-8.299,-8.3142,-8.299,-8.2034,-8.1805,-8.1461,-8.0735,-8.0506,-8.0506,-8.0506,-8.0506,-8.0506,-8.0506,-8.0506,-8.0506,-8.0582,-8.0926,-8.1232,-8.1308,-8.1538,-8.1996,-8.2493,-8.3219,-8.3754,-8.3792,-8.425,-8.4632,-8.4938,-8.4938,-8.5053,-8.5358,-8.5511,-8.5511,-8.5511,-8.5511,-8.5511,-8.5511,-8.5511,-8.5091,-7.7101,-7.7101,-7.7101,-7.7101,-7.7101,-7.7101,-7.7101,-7.7101,-7.7101,-7.7101,-7.7101,-7.7101,-7.6399,-7.5345,-7.5227,-7.5579,-7.6125,-7.6125,-7.6477,-7.7056,-7.696,-7.6892,-7.6877,-7.6677,-7.6536,-7.6383,-7.6273,-7.6147,-7.6029,-7.6284,-7.6624,-7.7047,-7.7291,-7.7971,-7.8995,-7.9201,-7.9624,-8.0177,-8.039,-8.0506,-8.0468,-8.0506,-8.02,-7.9704,-7.9627,-7.9321,-7.8748,-7.8672,-7.8672,-7.8672,-7.8672,-7.8672,-7.8672,-7.871,-7.8672,-7.8672,-7.8672,-7.8672,-7.871,-7.9283,-7.9627,-7.9665,-8.02,-8.0621,-8.0812,-8.085,-8.1232,-8.1996,-8.234,-8.2416,-8.2225,-8.2875,-8.3333,-8.341,-8.3945,-8.3945,-8.3181,-8.3448,-8.2951,-8.1729,-8.1347,-8.1232,-8.0659,-8.0506,-8.0506,-8.0506,-8.0506,-8.0506,-8.0506,-8.0506,-8.0544,-8.0812,-8.1423,-8.1729,-8.1843,-8.2378,-8.2722,-8.3257,-8.4059,-8.4632,-8.4632,-8.5167,-8.5473,-8.5244,-8.5435,-8.5511,-8.5511,-8.5511,-8.5511,-8.5511,-8.5511,-8.5511,-8.5511,-8.5511,-8.5511,-7.7101,-7.7101,-7.7101,-7.7101,-7.7101,-7.7101,-7.7101,-7.7101,-7.7101,-7.7101,-7.7101,-7.7101,-7.7023,-7.6867,-7.6789,-7.6945,-7.7023,-7.6984,-7.6984,-7.7101,-7.7056,-7.7095,-7.7046,-7.6773,-7.6609,-7.6507,-7.6225,-7.602,-7.6053,-7.6784,-7.7162,-7.7162,-7.7915,-7.8295,-7.8522,-7.9159,-7.9392,-7.9587,-8.0181,-8.0506,-8.0506,-8.0506,-8.0468,-8.0391,-8.043,-8.0353,-8.0315,-8.0353,-8.0353,-8.0353,-8.0277,-8.0315,-8.0353,-8.0315,-8.0277,-8.0315,-8.0315,-8.0315,-8.0277,-8.0315,-8.043,-8.0468,-8.0544,-8.0888,-8.1652,-8.1729,-8.2111,-8.2875,-8.3601,-8.3715,-8.3219,-8.3754,-8.4212,-8.4212,-8.4289,-8.3945,-8.3142,-8.2569,-8.1614,-8.0888,-8.0735,-8.0659,-8.0506,-8.0506,-8.0506,-8.0506,-8.0506,-8.0506,-8.0506,-8.0506,-8.0888,-8.1461,-8.1805,-8.1843,-8.1996,-8.2875,-8.383,-8.4327,-8.4747,-8.5358,-8.5435,-8.5473,-8.5511,-8.5511,-8.5511,-8.5511,-8.5511,-8.5511,-8.5511,-8.5511,-8.5511,-8.5511,-8.5511,-8.5511,-8.5511,-7.7101,-7.7101,-7.7101,-7.7101,-7.7101,-7.7101,-7.7101,-7.7101,-7.7101,-7.7101,-7.7101,-7.7101,-7.7101,-7.7101,-7.7101,-7.7101,-7.7101,-7.7101,-7.7101,-7.7101,-7.7101,-7.7101,-7.7046,-7.6773,-7.6618,-7.6555,-7.6186,-7.5976,-7.6092,-7.6861,-7.7538,-7.807,-7.8743,-7.933,-7.9851,-8.004,-8.0121,-8.0177,-8.039,-8.0506,-8.0506,-8.0506,-8.0506,-8.0506,-8.0506,-8.0506,-8.0506,-8.0506,-8.0506,-8.0506,-8.0506,-8.0506,-8.0506,-8.0506,-8.0506,-8.0506,-8.0506,-8.0506,-8.0506,-8.0506,-8.0773,-8.127,-8.1347,-8.169,-8.2378,-8.2569,-8.2913,-8.3677,-8.4059,-8.425,-8.4632,-8.49,-8.5091,-8.5053,-8.5053,-8.4709,-8.3907,-8.3066,-8.2264,-8.1461,-8.0888,-8.0506,-8.0506,-8.0506,-8.0506,-8.0506,-8.0506,-8.0506,-8.0621,-8.0926,-8.1423,-8.1881,-8.2684,-8.341,-8.341,-8.3792,-8.4403,-8.49,-8.5358,-8.5435,-8.5511,-8.5511,-8.5511,-8.5511,-8.5511,-8.5511,-8.5511,-8.5511,-8.5511,-8.5511,-8.5511,-8.5511,-8.5511,-8.5511,-8.5511,-7.7101,-7.7101,-7.7101,-7.7101,-7.7101,-7.7101,-7.7101,-7.7101,-7.7101,-7.7101,-7.7101,-7.7101,-7.7101,-7.7101,-7.7101,-7.7101,-7.7101,-7.7101,-7.7101,-7.7101,-7.7101,-7.7101,-7.7039,-7.6773,-7.6618,-7.6555,-7.6186,-7.613,-7.6515,-7.7284,-7.8092,-7.8923,-7.9659,-8.0301,-8.0783,-8.0688,-8.0578,-8.056,-8.0505,-8.0506,-8.0506,-8.0506,-8.0506,-8.0506,-8.0506,-8.0506,-8.0506,-8.0506,-8.0506,-8.0506,-8.0506,-8.0506,-8.0506,-8.0506,-8.0506,-8.0506,-8.0506,-8.0621,-8.0888,-8.0926,-8.127,-8.2073,-8.2225,-8.2531,-8.3295,-8.341,-8.383,-8.4441,-8.4671,-8.4976,-8.532,-8.5511,-8.5511,-8.5511,-8.5511,-8.5167,-8.4365,-8.3486,-8.2531,-8.1499,-8.0812,-8.0544,-8.0506,-8.0506,-8.0506,-8.0506,-8.0506,-8.0544,-8.0964,-8.1385,-8.2111,-8.2569,-8.3524,-8.4212,-8.4441,-8.4709,-8.4824,-8.5244,-8.5397,-8.5473,-8.5511,-8.5511,-8.5511,-8.5511,-8.5511,-8.5511,-8.5511,-8.5511,-8.5511,-8.5511,-8.5511,-8.5511,-8.5511,-8.5511,-8.5511,-7.7101,-7.7101,-7.7101,-7.7101,-7.7101,-7.7101,-7.7101,-7.7101,-7.7101,-7.7101,-7.7101,-7.7101,-7.7101,-7.7101,-7.7101,-7.7101,-7.7101,-7.7101,-7.7101,-7.7101,-7.7101,-7.7098,-7.7043,-7.6767,-7.6582,-7.6536,-7.6173,-7.6399,-7.7092,-7.7953,-7.8823,-7.9708,-8.0484,-8.0811,-8.0792,-8.0758,-8.067,-8.0523,-8.0506,-8.0506,-8.0506,-8.0506,-8.0506,-8.0506,-8.0506,-8.0506,-8.0506,-8.0506,-8.0506,-8.0506,-8.0506,-8.0506,-8.0506,-8.0506,-8.0506,-8.0582,-8.0582,-8.0964,-8.169,-8.1805,-8.2149,-8.2837,-8.299,-8.3372,-8.4098,-8.4289,-8.4594,-8.5206,-8.5397,-8.5473,-8.5473,-8.5511,-8.5511,-8.5511,-8.5511,-8.5167,-8.4441,-8.3524,-8.2378,-8.1003,-8.0506,-8.0506,-8.0506,-8.0506,-8.0544,-8.0659,-8.0697,-8.0964,-8.169,-8.2034,-8.2646,-8.3677,-8.4365,-8.4709,-8.5129,-8.5511,-8.5473,-8.5511,-8.5511,-8.5511,-8.5511,-8.5511,-8.5511,-8.5511,-8.5511,-8.5511,-8.5511,-8.5511,-8.5511,-8.5511,-8.5511,-8.555,-8.5511,-8.5511,-8.5511,-7.7101,-7.7101,-7.7101,-7.7101,-7.7101,-7.7101,-7.7101,-7.7101,-7.7101,-7.7101,-7.7101,-7.7101,-7.7101,-7.7101,-7.7101,-7.7101,-7.7101,-7.7101,-7.7101,-7.7101,-7.7101,-7.7036,-7.6882,-7.6684,-7.6467,-7.6211,-7.6076,-7.613,-7.663,-7.7823,-7.8669,-7.9077,-8.0251,-8.0822,-8.0792,-8.067,-8.0562,-8.0525,-8.0506,-8.0506,-8.0506,-8.0506,-8.0506,-8.0506,-8.0506,-8.0506,-8.0506,-8.0506,-8.0506,-8.0544,-8.0506,-8.0506,-8.0506,-8.0506,-8.0812,-8.1308,-8.1385,-8.1767,-8.2455,-8.2646,-8.299,-8.3677,-8.3868,-8.4289,-8.4976,-8.5091,-8.5206,-8.5511,-8.5511,-8.5511,-8.5511,-8.5511,-8.5511,-8.5511,-8.5511,-8.5397,-8.4862,-8.383,-8.234,-8.0888,-8.0506,-8.0506,-8.0506,-8.0506,-8.0773,-8.1232,-8.1347,-8.169,-8.2455,-8.3066,-8.3563,-8.425,-8.4709,-8.5091,-8.5358,-8.5511,-8.5511,-8.5511,-8.5511,-8.5511,-8.5511,-8.5511,-8.5511,-8.5511,-8.5511,-8.5511,-8.5511,-8.5626,-8.5702,-8.5664,-8.5702,-8.5664,-8.555,-8.5664,-8.5932,-7.8077,-7.8077,-7.8077,-7.8038,-7.8077,-7.8077,-7.8077,-7.7999,-7.7726,-7.757,-7.7531,-7.7218,-7.7101,-7.7101,-7.7101,-7.7101,-7.7101,-7.7101,-7.7101,-7.7101,-7.7101,-7.6981,-7.6786,-7.6579,-7.6316,-7.6062,-7.5976,-7.6169,-7.6553,-7.7799,-7.8669,-7.9177,-8.0219,-8.0826,-8.0831,-8.0958,-8.1002,-8.1003,-8.1308,-8.1423,-8.1423,-8.1423,-8.1423,-8.1423,-8.1423,-8.1423,-8.1423,-8.1423,-8.127,-8.1117,-8.127,-8.1423,-8.1423,-8.1461,-8.1652,-8.2073,-8.2302,-8.2607,-8.3333,-8.3486,-8.383,-8.4556,-8.4747,-8.4938,-8.5397,-8.5511,-8.5511,-8.5511,-8.5511,-8.5511,-8.5511,-8.5511,-8.5511,-8.5511,-8.5511,-8.5206,-8.4632,-8.3677,-8.2302,-8.1003,-8.0506,-8.0506,-8.0506,-8.0888,-8.1156,-8.1729,-8.2073,-8.2531,-8.3295,-8.3907,-8.4289,-8.4632,-8.5091,-8.5358,-8.5473,-8.5511,-8.5511,-8.5511,-8.5511,-8.5511,-8.5511,-8.5511,-8.5511,-8.5511,-8.5511,-8.5511,-8.5511,-8.597,-8.6161,-8.6046,-8.6161,-8.6581,-8.6849,-8.6734,-8.681,-7.9678,-7.9717,-7.9678,-7.96,-7.9561,-7.9561,-7.9483,-7.9483,-7.8819,-7.8468,-7.8311,-7.7804,-7.7414,-7.7335,-7.7531,-7.7531,-7.7296,-7.7453,-7.7531,-7.7489,-7.744,-7.7311,-7.6982,-7.6777,-7.6636,-7.6405,-7.6322,-7.6669,-7.7361,-7.8284,-7.8977,-7.9731,-8.0443,-8.0838,-8.0907,-8.1454,-8.1574,-8.1538,-8.2302,-8.2646,-8.2684,-8.2837,-8.2875,-8.2837,-8.2798,-8.2798,-8.2722,-8.2837,-8.2607,-8.2073,-8.2455,-8.276,-8.2913,-8.299,-8.2875,-8.3028,-8.3066,-8.3524,-8.4136,-8.4365,-8.4632,-8.5282,-8.5397,-8.5511,-8.5511,-8.5511,-8.5511,-8.5511,-8.5511,-8.5511,-8.5511,-8.5511,-8.5511,-8.5511,-8.5511,-8.4862,-8.3333,-8.3028,-8.2225,-8.0964,-8.0506,-8.0544,-8.0659,-8.1308,-8.1729,-8.2225,-8.2722,-8.341,-8.4098,-8.4594,-8.4785,-8.5091,-8.5435,-8.5473,-8.5511,-8.5511,-8.5511,-8.5511,-8.5511,-8.555,-8.555,-8.555,-8.5741,-8.5702,-8.5779,-8.5702,-8.5932,-8.6543,-8.6849,-8.6887,-8.7269,-8.7918,-8.7957,-8.7651,-8.7498,-7.9717,-7.9717,-7.9717,-7.9717,-7.9717,-7.9717,-7.9717,-7.9678,-7.9483,-7.9366,-7.9287,-7.9131,-7.8936,-7.9014,-7.8975,-7.9014,-7.8897,-7.8936,-7.9014,-7.9005,-7.8867,-7.83,-7.7753,-7.7792,-7.7848,-7.7761,-7.7669,-7.7977,-7.8246,-7.8977,-7.9515,-7.9808,-8.0487,-8.0826,-8.0852,-8.0902,-8.0849,-8.0964,-8.1729,-8.2225,-8.234,-8.2837,-8.299,-8.299,-8.3066,-8.3066,-8.3104,-8.3601,-8.3524,-8.276,-8.2837,-8.299,-8.3104,-8.3104,-8.3372,-8.383,-8.3983,-8.4289,-8.4938,-8.5167,-8.5282,-8.5473,-8.5511,-8.5511,-8.5511,-8.5511,-8.5511,-8.5511,-8.5511,-8.5511,-8.5511,-8.5511,-8.5511,-8.5511,-8.5473,-8.4785,-8.3448,-8.2951,-8.234,-8.085,-8.0544,-8.0812,-8.127,-8.1767,-8.234,-8.3257,-8.3792,-8.4174,-8.4785,-8.5053,-8.5206,-8.5282,-8.5511,-8.5511,-8.5511,-8.5511,-8.5511,-8.5511,-8.555,-8.5588,-8.5626,-8.5664,-8.6008,-8.6275,-8.6505,-8.6505,-8.7078,-8.7689,-8.7727,-8.7766,-8.8071,-8.8492,-8.8262,-8.7995,-8.8033,-8.0771,-8.081,-8.0771,-8.081,-8.081,-8.0771,-8.0771,-8.0732,-8.0381,-8.0224,-8.0185,-7.9834,-7.9717,-7.9717,-7.9717,-7.9717,-7.9717,-7.9717,-7.9678,-7.9697,-7.9727,-7.9195,-7.8491,-7.8447,-7.8492,-7.8492,-7.8515,-7.8492,-7.8631,-7.9361,-7.9746,-7.9908,-8.0455,-8.0792,-8.0813,-8.0999,-8.1232,-8.1652,-8.2378,-8.299,-8.3372,-8.3792,-8.4021,-8.4059,-8.4021,-8.4059,-8.4136,-8.4556,-8.4403,-8.383,-8.383,-8.4059,-8.4059,-8.4059,-8.4289,-8.4785,-8.4785,-8.5015,-8.5358,-8.5511,-8.5511,-8.5511,-8.5511,-8.5511,-8.5511,-8.5511,-8.5511,-8.5511,-8.5511,-8.5511,-8.5511,-8.5511,-8.5511,-8.5473,-8.5206,-8.448,-8.3162,-8.299,-8.2187,-8.1156,-8.085,-8.1194,-8.1805,-8.234,-8.3219,-8.4059,-8.4556,-8.4938,-8.5358,-8.5473,-8.5511,-8.5511,-8.5511,-8.5511,-8.555,-8.5588,-8.5779,-8.5779,-8.6275,-8.6199,-8.6199,-8.6275,-8.6734,-8.7154,-8.7269,-8.7536,-8.8033,-8.8453,-8.8606,-8.8644,-8.8874,-8.9027,-8.9027,-8.8797,-8.8797,-8.2293,-8.2293,-8.2293,-8.2293,-8.2215,-8.2293,-8.2137,-8.2098,-8.1435,-8.1122,-8.1005,-8.0302,-8.0263,-7.999,-8.0302,-8.0068,-8.0068,-8.0263,-8.0087,-8.0222,-8.0294,-8.0037,-7.9275,-7.9124,-7.9069,-7.9015,-7.8823,-7.89,-7.9208,-7.9746,-7.9939,-8.0177,-8.0625,-8.0771,-8.0911,-8.142,-8.213,-8.2646,-8.3486,-8.4212,-8.4709,-8.5015,-8.5167,-8.5167,-8.5206,-8.5244,-8.5282,-8.5397,-8.5129,-8.4441,-8.5129,-8.5282,-8.5397,-8.5435,-8.5435,-8.5397,-8.5397,-8.5435,-8.5511,-8.5511,-8.5511,-8.5511,-8.5511,-8.5511,-8.5511,-8.5511,-8.5511,-8.5511,-8.5511,-8.5511,-8.5511,-8.5511,-8.5511,-8.5397,-8.4824,-8.3983,-8.3372,-8.3066,-8.2378,-8.1003,-8.1423,-8.1843,-8.2416,-8.3219,-8.4327,-8.4594,-8.5015,-8.5244,-8.5435,-8.5473,-8.5511,-8.5511,-8.5511,-8.5511,-8.5588,-8.5626,-8.5932,-8.6199,-8.7078,-8.7345,-8.7384,-8.7498,-8.7842,-8.8148,-8.8186,-8.8377,-8.8721,-8.9065,-8.9294,-8.9523,-8.9714,-9.0135,-9.044,-9.002,-8.9867,-8.2293,-8.2293,-8.2293,-8.2293,-8.2293,-8.2293,-8.2293,-8.2293,-8.2098,-8.1942,-8.1942,-8.1786,-8.1669,-8.1669,-8.1591,-8.1747,-8.1591,-8.1584,-8.1602,-8.1306,-8.1334,-8.1147,-8.0646,-8.0416,-8.0439,-8.0439,-8.0477,-8.0477,-8.0554,-8.0516,-8.0785,-8.0808,-8.0751,-8.086,-8.089,-8.1398,-8.188,-8.2321,-8.3524,-8.4327,-8.4747,-8.5282,-8.5511,-8.5511,-8.5511,-8.5511,-8.5511,-8.5511,-8.5435,-8.5358,-8.5397,-8.5511,-8.5511,-8.5511,-8.5511,-8.5511,-8.5511,-8.5511,-8.5511,-8.5511,-8.5511,-8.5511,-8.5511,-8.5511,-8.5511,-8.5511,-8.5511,-8.5511,-8.5511,-8.5511,-8.5511,-8.5511,-8.5435,-8.5244,-8.4709,-8.4136,-8.3907,-8.3372,-8.2531,-8.1996,-8.2225,-8.299,-8.3601,-8.3868,-8.4594,-8.5091,-8.532,-8.5473,-8.5511,-8.5511,-8.5511,-8.5511,-8.5511,-8.5588,-8.597,-8.6237,-8.6772,-8.7078,-8.7804,-8.8492,-8.853,-8.8492,-8.8759,-8.8912,-8.9027,-8.9256,-8.9485,-8.9829,-9.0096,-9.0326,-9.044,-9.0517,-9.0631,-9.0631,-9.0593,-8.2293,-8.2293,-8.2293,-8.2293,-8.2293,-8.2293,-8.2293,-8.2293,-8.2293,-8.2293,-8.2293,-8.2293,-8.2293,-8.2293,-8.2293,-8.2293,-8.2293,-8.229,-8.2078,-8.174,-8.1679,-8.1484,-8.1176,-8.1093,-8.1093,-8.1093,-8.1054,-8.1093,-8.1093,-8.1093,-8.1054,-8.1077,-8.0926,-8.0843,-8.0775,-8.1168,-8.167,-8.2397,-8.3181,-8.3983,-8.4824,-8.5244,-8.5511,-8.5511,-8.5511,-8.5511,-8.5511,-8.5511,-8.5511,-8.5511,-8.5511,-8.5511,-8.5511,-8.5511,-8.5511,-8.5511,-8.5511,-8.5511,-8.5511,-8.5511,-8.5511,-8.5511,-8.5511,-8.5511,-8.5511,-8.5511,-8.5511,-8.5511,-8.5511,-8.5511,-8.5473,-8.5053,-8.5015,-8.4785,-8.4212,-8.3715,-8.3639,-8.3257,-8.2875,-8.2607,-8.3104,-8.3677,-8.4174,-8.4518,-8.4862,-8.5358,-8.5358,-8.5511,-8.5511,-8.5511,-8.5511,-8.5511,-8.5511,-8.5741,-8.6275,-8.6887,-8.7766,-8.8148,-8.8683,-8.9294,-8.9638,-8.9561,-8.9523,-8.9638,-8.9752,-8.9982,-9.0249,-9.0555,-9.0631,-9.0555,-9.0555,-9.0593,-9.0631,-9.0631,-9.0631,-8.2293,-8.2293,-8.2293,-8.2293,-8.2293,-8.2293,-8.2293,-8.2293,-8.2293,-8.2293,-8.2293,-8.2293,-8.2293,-8.2293,-8.2293,-8.2293,-8.229,-8.2226,-8.1993,-8.1735,-8.1902,-8.1722,-8.1508,-8.1593,-8.1708,-8.1477,-8.1208,-8.1131,-8.1093,-8.1093,-8.1093,-8.1061,-8.091,-8.0826,-8.0758,-8.0864,-8.1422,-8.2474,-8.3181,-8.3907,-8.4976,-8.532,-8.5511,-8.5511,-8.5511,-8.5511,-8.5511,-8.5511,-8.5511,-8.5511,-8.5511,-8.5511,-8.5511,-8.5511,-8.5511,-8.5511,-8.5511,-8.5511,-8.5511,-8.5511,-8.5511,-8.5511,-8.5511,-8.5511,-8.5511,-8.5511,-8.5511,-8.5511,-8.5511,-8.5435,-8.5282,-8.4824,-8.4441,-8.4174,-8.3563,-8.3181,-8.3333,-8.3295,-8.3257,-8.3372,-8.3907,-8.4518,-8.4747,-8.5015,-8.5282,-8.5511,-8.5511,-8.5511,-8.5511,-8.5588,-8.5626,-8.5893,-8.6008,-8.6734,-8.7384,-8.7689,-8.8568,-8.9065,-8.9523,-8.9867,-9.0364,-9.0249,-9.0096,-9.0326,-9.0478,-9.0555,-9.0555,-9.0593,-9.0631,-9.0631,-9.0631,-9.0631,-9.0631,-9.0631,-9.0631,-8.2293,-8.2293,-8.2293,-8.2293,-8.2293,-8.2293,-8.2293,-8.2293,-8.2293,-8.2293,-8.2293,-8.2293,-8.2293,-8.2293,-8.2293,-8.2332,-8.2362,-8.2309,-8.2065,-8.2,-8.2273,-8.2314,-8.2248,-8.2631,-8.2978,-8.2747,-8.2016,-8.1323,-8.117,-8.1093,-8.1093,-8.1061,-8.0943,-8.086,-8.0967,-8.1283,-8.167,-8.2435,-8.3333,-8.4212,-8.4594,-8.5091,-8.5473,-8.5473,-8.5435,-8.5435,-8.5511,-8.5511,-8.5511,-8.5511,-8.5511,-8.5511,-8.5511,-8.5511,-8.5511,-8.5511,-8.5511,-8.5511,-8.5511,-8.5511,-8.5511,-8.5511,-8.5511,-8.5511,-8.5511,-8.5511,-8.5511,-8.5473,-8.5397,-8.5206,-8.4556,-8.4289,-8.4289,-8.4059,-8.3715,-8.3563,-8.4403,-8.4441,-8.4059,-8.4136,-8.4747,-8.5206,-8.5244,-8.5282,-8.5397,-8.5511,-8.5511,-8.5511,-8.5511,-8.5702,-8.5893,-8.6237,-8.6619,-8.7651,-8.8644,-8.8874,-8.9332,-8.9867,-9.0211,-9.0211,-9.0517,-9.0555,-9.0631,-9.0631,-9.0631,-9.0593,-9.0593,-9.0631,-9.0631,-9.0631,-9.0631,-9.0631,-9.0631,-9.0631,-9.0631,-8.2293,-8.2293,-8.2293,-8.2293,-8.2293,-8.2293,-8.2293,-8.2293,-8.2293,-8.2293,-8.2293,-8.2293,-8.2293,-8.2293,-8.2293,-8.2489,-8.278,-8.2702,-8.2761,-8.2971,-8.32,-8.3161,-8.3009,-8.3478,-8.3516,-8.3362,-8.2747,-8.2093,-8.1708,-8.1285,-8.1208,-8.1061,-8.0926,-8.0843,-8.0967,-8.1438,-8.2014,-8.2569,-8.3601,-8.4289,-8.4327,-8.4785,-8.5015,-8.5358,-8.5167,-8.5091,-8.5397,-8.5015,-8.5129,-8.5397,-8.5511,-8.5511,-8.5511,-8.5511,-8.5511,-8.5511,-8.5511,-8.5511,-8.5511,-8.5511,-8.5511,-8.5511,-8.5511,-8.5511,-8.5511,-8.5511,-8.5511,-8.5435,-8.5015,-8.4747,-8.4365,-8.3945,-8.3639,-8.3639,-8.3601,-8.4059,-8.4632,-8.4824,-8.4862,-8.4862,-8.5167,-8.5397,-8.5435,-8.5473,-8.5511,-8.5511,-8.5511,-8.5588,-8.5626,-8.6008,-8.6428,-8.6963,-8.746,-8.8377,-8.9332,-8.9638,-8.9829,-9.0326,-9.0631,-9.0631,-9.0631,-9.0631,-9.0631,-9.0631,-9.0631,-9.0631,-9.0631,-9.0631,-9.0631,-9.0631,-9.0631,-9.0631,-9.0631,-9.0631,-9.0631,-8.2293,-8.2293,-8.2293,-8.2293,-8.2293,-8.2293,-8.2293,-8.2293,-8.2293,-8.2293,-8.2293,-8.2293,-8.2293,-8.2371,-8.2567,-8.2996,-8.3689,-8.3498,-8.3648,-8.3961,-8.4095,-8.4001,-8.3942,-8.4055,-8.4247,-8.4362,-8.3862,-8.3401,-8.2593,-8.2093,-8.1708,-8.1737,-8.1508,-8.1329,-8.1563,-8.1994,-8.2531,-8.3028,-8.383,-8.4327,-8.4518,-8.4556,-8.4824,-8.5397,-8.4862,-8.49,-8.5358,-8.5053,-8.5053,-8.5358,-8.5511,-8.5511,-8.5511,-8.5511,-8.5511,-8.5511,-8.5511,-8.5511,-8.5511,-8.5511,-8.5511,-8.5511,-8.5511,-8.5511,-8.5511,-8.5473,-8.5435,-8.5206,-8.5015,-8.4365,-8.3983,-8.3601,-8.3372,-8.3486,-8.3945,-8.4403,-8.4747,-8.5053,-8.532,-8.5397,-8.5511,-8.5511,-8.5511,-8.5511,-8.5511,-8.5741,-8.5741,-8.6084,-8.6199,-8.681,-8.7269,-8.7804,-8.8415,-8.9179,-8.9829,-9.0135,-9.0287,-9.0478,-9.0631,-9.0631,-9.0631,-9.0631,-9.0631,-9.0631,-9.0631,-9.0631,-9.0631,-9.0631,-9.0631,-9.0631,-9.0631,-9.0631,-9.0631,-9.0631,-9.0631,-8.2293,-8.2293,-8.2293,-8.2293,-8.2293,-8.2293,-8.2293,-8.2293,-8.2293,-8.2293,-8.2293,-8.2332,-8.2332,-8.2528,-8.3113,-8.3816,-8.4312,-8.4309,-8.4252,-8.452,-8.4684,-8.4789,-8.4863,-8.5517,-8.5478,-8.5363,-8.4978,-8.4286,-8.3632,-8.3324,-8.317,-8.3045,-8.2813,-8.2901,-8.2674,-8.2778,-8.2932,-8.3181,-8.3868,-8.4632,-8.5167,-8.5244,-8.5282,-8.5397,-8.532,-8.5282,-8.5397,-8.5206,-8.5282,-8.5435,-8.5511,-8.5511,-8.5511,-8.5511,-8.5511,-8.5511,-8.5511,-8.5511,-8.5511,-8.5511,-8.5511,-8.5511,-8.5511,-8.5511,-8.5511,-8.5473,-8.5282,-8.4518,-8.4862,-8.4632,-8.3868,-8.383,-8.3983,-8.4136,-8.425,-8.4747,-8.5129,-8.5167,-8.5473,-8.5511,-8.5511,-8.5511,-8.5511,-8.5511,-8.555,-8.5779,-8.6046,-8.639,-8.6849,-8.7498,-8.8224,-8.8797,-8.9179,-8.9867,-9.0096,-9.044,-9.0517,-9.0631,-9.0631,-9.0631,-9.0631,-9.0631,-9.0631,-9.0631,-9.0631,-9.0631,-9.0631,-9.0631,-9.0631,-9.0631,-9.0631,-9.0631,-9.0631,-9.0631,-9.0631,-8.2293,-8.2293,-8.2293,-8.2293,-8.2293,-8.2293,-8.2293,-8.2293,-8.2293,-8.2293,-8.2293,-8.2293,-8.2528,-8.3113,-8.3855,-8.465,-8.5159,-8.508,-8.5152,-8.5316,-8.5497,-8.5555,-8.5632,-8.5901,-8.6094,-8.6017,-8.5786,-8.5517,-8.4824,-8.4055,-8.3577,-8.355,-8.3393,-8.3173,-8.3481,-8.3601,-8.3697,-8.3868,-8.4174,-8.4709,-8.5167,-8.5129,-8.5053,-8.5473,-8.5091,-8.5167,-8.532,-8.5015,-8.5129,-8.5358,-8.5511,-8.5511,-8.5511,-8.5511,-8.5511,-8.5511,-8.5511,-8.5511,-8.5511,-8.5511,-8.5511,-8.5511,-8.5511,-8.5511,-8.5511,-8.5473,-8.5435,-8.5091,-8.4824,-8.4403,-8.3945,-8.4059,-8.4212,-8.4365,-8.4671,-8.4976,-8.5358,-8.5435,-8.5511,-8.5511,-8.555,-8.5626,-8.5741,-8.5817,-8.597,-8.6275,-8.6658,-8.7078,-8.7613,-8.8301,-8.9065,-8.9905,-9.0135,-9.044,-9.0478,-9.0593,-9.0555,-9.0631,-9.0631,-9.0631,-9.0631,-9.0631,-9.0631,-9.0631,-9.0631,-9.0631,-9.0631,-9.0631,-9.0631,-9.0631,-9.0631,-9.0631,-9.0631,-9.0631,-9.0593,-8.2293,-8.2293,-8.2293,-8.2293,-8.2293,-8.2293,-8.2293,-8.2293,-8.2293,-8.2293,-8.2371,-8.2567,-8.3191,-8.4089,-8.4863,-8.5492,-8.6118,-8.5939,-8.604,-8.6248,-8.6208,-8.6072,-8.6017,-8.6094,-8.6094,-8.6094,-8.6017,-8.594,-8.5632,-8.5016,-8.4368,-8.4054,-8.422,-8.4072,-8.4058,-8.4328,-8.4594,-8.4632,-8.4632,-8.4976,-8.532,-8.4976,-8.5091,-8.5167,-8.5053,-8.49,-8.5282,-8.5053,-8.5091,-8.5358,-8.5511,-8.5511,-8.5511,-8.5511,-8.5511,-8.5511,-8.5511,-8.5511,-8.5511,-8.5511,-8.5511,-8.5511,-8.5511,-8.5511,-8.5511,-8.5511,-8.5282,-8.5053,-8.5015,-8.4632,-8.4403,-8.4441,-8.4671,-8.49,-8.5091,-8.5358,-8.5511,-8.5511,-8.555,-8.5626,-8.5741,-8.6008,-8.6123,-8.6199,-8.6428,-8.6752,-8.7231,-8.7766,-8.8453,-8.9179,-8.9638,-9.0402,-9.0478,-9.0631,-9.0631,-9.0631,-9.0631,-9.0631,-9.0631,-9.0631,-9.0631,-9.0631,-9.0631,-9.0631,-9.0631,-9.0631,-9.0631,-9.0631,-9.0631,-9.0631,-9.0631,-9.0631,-9.0631,-9.0631,-9.0593,-8.2293,-8.2293,-8.2293,-8.2293,-8.2293,-8.2293,-8.2293,-8.2293,-8.2293,-8.2332,-8.2528,-8.3191,-8.4401,-8.5495,-8.5878,-8.6341,-8.6922,-8.6804,-8.6522,-8.6337,-8.6192,-8.611,-8.6094,-8.6094,-8.6094,-8.6094,-8.6094,-8.6094,-8.6055,-8.5824,-8.5709,-8.5868,-8.5273,-8.5488,-8.5397,-8.5169,-8.5244,-8.5244,-8.5244,-8.5282,-8.5473,-8.5358,-8.5435,-8.5435,-8.5435,-8.5473,-8.5473,-8.5358,-8.532,-8.5511,-8.5511,-8.5511,-8.5511,-8.5511,-8.5511,-8.5511,-8.5511,-8.5511,-8.5511,-8.5511,-8.5511,-8.5511,-8.5511,-8.5511,-8.5511,-8.5511,-8.5206,-8.4785,-8.5015,-8.4976,-8.4824,-8.4862,-8.5129,-8.5244,-8.532,-8.5397,-8.5511,-8.5511,-8.5588,-8.5702,-8.5893,-8.6123,-8.6772,-8.6963,-8.7231,-8.7575,-8.8453,-8.9027,-8.9485,-9.0096,-9.0211,-9.0555,-9.0555,-9.0631,-9.0631,-9.0631,-9.0631,-9.0631,-9.0631,-9.0631,-9.0631,-9.0631,-9.0631,-9.0631,-9.0631,-9.0631,-9.0631,-9.0631,-9.0631,-9.0631,-9.0631,-9.0631,-9.0631,-9.0631,-9.0631,-8.2293,-8.2293,-8.2293,-8.2293,-8.2293,-8.2293,-8.2293,-8.2293,-8.2293,-8.2606,-8.3113,-8.4441,-8.5456,-8.608,-8.6694,-8.6891,-8.6925,-8.6836,-8.6556,-8.6288,-8.6104,-8.6094,-8.6094,-8.6094,-8.6094,-8.6094,-8.6094,-8.6094,-8.6094,-8.6094,-8.6094,-8.6043,-8.5905,-8.5759,-8.5686,-8.559,-8.5531,-8.5511,-8.5511,-8.5511,-8.5511,-8.5511,-8.5511,-8.5511,-8.5511,-8.5511,-8.5511,-8.5511,-8.5511,-8.5511,-8.5511,-8.5511,-8.5511,-8.5511,-8.5511,-8.5511,-8.5511,-8.5473,-8.5473,-8.5473,-8.5511,-8.5511,-8.5511,-8.5511,-8.5511,-8.5511,-8.5397,-8.5244,-8.5244,-8.5244,-8.5244,-8.532,-8.5473,-8.5511,-8.5511,-8.5511,-8.5511,-8.5511,-8.5702,-8.5855,-8.6008,-8.6237,-8.704,-8.7804,-8.811,-8.8453,-8.9409,-9.0173,-9.044,-9.0631,-9.0631,-9.0631,-9.0631,-9.0631,-9.0631,-9.0631,-9.0631,-9.0631,-9.0631,-9.0631,-9.0631,-9.0631,-9.0631,-9.0631,-9.0631,-9.0631,-9.0631,-9.0631,-9.0631,-9.0631,-9.0631,-9.0631,-9.0631,-9.0631,-9.0631,-8.2528,-8.2332,-8.2293,-8.2293,-8.2293,-8.2293,-8.2293,-8.2293,-8.2293,-8.2957,-8.3972,-8.5416,-8.6275,-8.6627,-8.7053,-8.7142,-8.6891,-8.6757,-8.6507,-8.6253,-8.611,-8.6094,-8.6094,-8.6094,-8.6094,-8.6094,-8.6094,-8.6094,-8.6094,-8.6094,-8.6094,-8.6043,-8.594,-8.5834,-8.5704,-8.557,-8.5511,-8.5511,-8.5511,-8.5511,-8.5511,-8.5511,-8.5511,-8.5511,-8.5511,-8.5511,-8.5511,-8.5511,-8.5511,-8.5511,-8.5511,-8.5511,-8.5511,-8.5511,-8.5511,-8.5511,-8.5473,-8.5435,-8.5244,-8.5397,-8.5358,-8.5091,-8.5397,-8.5473,-8.5511,-8.5511,-8.5435,-8.5473,-8.5473,-8.5511,-8.5511,-8.5511,-8.5511,-8.5511,-8.5511,-8.5511,-8.5511,-8.555,-8.5817,-8.6046,-8.639,-8.6963,-8.7651,-8.8568,-8.9141,-8.9409,-8.9829,-9.0402,-9.0478,-9.0631,-9.0631,-9.0631,-9.0631,-9.0631,-9.0631,-9.0631,-9.0631,-9.0631,-9.0631,-9.0631,-9.0631,-9.0631,-9.0631,-9.0631,-9.0631,-9.0631,-9.0631,-9.0631,-9.0631,-9.0631,-9.0631,-9.0708,-9.0631,-9.0631,-9.0631,-8.2996,-8.2332,-8.2293,-8.2293,-8.2293,-8.2293,-8.2293,-8.2371,-8.2489,-8.3386,-8.4792,-8.5846,-8.6627,-8.7131,-8.7358,-8.7111,-8.6854,-8.6757,-8.6506,-8.6184,-8.6094,-8.6094,-8.6094,-8.6094,-8.6094,-8.6094,-8.6094,-8.6094,-8.6094,-8.6094,-8.6094,-8.606,-8.5992,-8.5887,-8.5797,-8.5609,-8.5511,-8.5511,-8.5511,-8.5531,-8.5511,-8.5511,-8.5531,-8.5511,-8.5511,-8.5511,-8.5511,-8.5511,-8.5511,-8.5511,-8.5511,-8.5511,-8.5511,-8.5511,-8.5511,-8.5511,-8.5435,-8.5053,-8.4441,-8.5091,-8.5129,-8.4862,-8.5282,-8.5473,-8.5511,-8.5511,-8.5511,-8.5511,-8.5511,-8.5511,-8.5511,-8.5511,-8.5511,-8.5511,-8.5511,-8.5511,-8.5511,-8.555,-8.5779,-8.6428,-8.7345,-8.811,-8.8644,-8.9294,-9.0058,-9.044,-9.0555,-9.0631,-9.0631,-9.0631,-9.0631,-9.0631,-9.0631,-9.0631,-9.0631,-9.0631,-9.0631,-9.0631,-9.0631,-9.0631,-9.0631,-9.0631,-9.0631,-9.0631,-9.0631,-9.0631,-9.0631,-9.0631,-9.0631,-9.0631,-9.0784,-9.0822,-9.0708,-9.0746,-9.0861,-8.3347,-8.3035,-8.2528,-8.2293,-8.2293,-8.2293,-8.2293,-8.2528,-8.3465,-8.4597,-8.5651,-8.6588,-8.7056,-8.7315,-8.7219,-8.7064,-8.6817,-8.658,-8.6331,-8.6143,-8.6094,-8.6094,-8.6094,-8.6094,-8.6094,-8.6094,-8.6094,-8.6094,-8.6094,-8.6094,-8.6094,-8.6077,-8.5992,-8.587,-8.5723,-8.557,-8.5511,-8.5531,-8.557,-8.559,-8.5531,-8.557,-8.557,-8.5511,-8.5511,-8.5511,-8.5511,-8.5511,-8.5511,-8.5511,-8.5511,-8.5511,-8.5511,-8.5511,-8.5473,-8.532,-8.5129,-8.4289,-8.4059,-8.4518,-8.5358,-8.5244,-8.5282,-8.5511,-8.5511,-8.5511,-8.5511,-8.5511,-8.5511,-8.5511,-8.5511,-8.5511,-8.5511,-8.5511,-8.5511,-8.5511,-8.5511,-8.555,-8.5817,-8.681,-8.7727,-8.8377,-8.895,-8.96,-9.0364,-9.0631,-9.0631,-9.0631,-9.0631,-9.0631,-9.0631,-9.0631,-9.0631,-9.0631,-9.0631,-9.0631,-9.0631,-9.0631,-9.0631,-9.0631,-9.0631,-9.0631,-9.0631,-9.0631,-9.0631,-9.0631,-9.0631,-9.0631,-9.0631,-9.0669,-9.1013,-9.1243,-9.1243,-9.1319,-9.1472,-8.3621,-8.3035,-8.2528,-8.2293,-8.2293,-8.2293,-8.245,-8.2918,-8.4206,-8.5299,-8.6158,-8.6978,-8.7404,-8.7343,-8.7186,-8.7005,-8.6777,-8.6544,-8.6288,-8.6126,-8.6094,-8.6094,-8.6094,-8.6094,-8.6094,-8.6094,-8.6094,-8.6094,-8.6094,-8.6094,-8.6094,-8.6077,-8.6048,-8.5961,-8.5797,-8.5704,-8.5628,-8.5648,-8.5686,-8.5667,-8.5628,-8.5609,-8.5647,-8.5551,-8.5511,-8.5511,-8.5511,-8.5511,-8.5511,-8.5511,-8.5511,-8.5511,-8.5511,-8.5511,-8.5358,-8.4976,-8.4289,-8.3868,-8.4289,-8.4327,-8.5091,-8.5435,-8.5511,-8.5511,-8.5511,-8.5511,-8.5511,-8.5511,-8.5511,-8.5511,-8.5511,-8.5511,-8.5511,-8.5511,-8.5511,-8.5511,-8.5664,-8.5702,-8.6199,-8.7192,-8.8186,-8.8759,-8.9332,-8.9905,-9.0593,-9.0631,-9.0631,-9.0631,-9.0631,-9.0631,-9.0631,-9.0631,-9.0631,-9.0631,-9.0631,-9.0631,-9.0631,-9.0631,-9.0631,-9.0631,-9.0631,-9.0631,-9.0631,-9.0631,-9.0631,-9.0631,-9.0631,-9.0631,-9.0631,-9.1052,-9.1663,-9.1816,-9.1816,-9.2007,-9.2236,-8.3855,-8.2489,-8.2332,-8.2293,-8.2293,-8.2371,-8.284,-8.3621,-8.448,-8.5416,-8.6236,-8.7095,-8.7358,-8.7343,-8.7175,-8.6942,-8.6726,-8.6481,-8.6259,-8.6137,-8.6094,-8.6094,-8.6094,-8.6094,-8.6094,-8.6094,-8.6094,-8.6094,-8.6094,-8.6094,-8.6094,-8.6077,-8.6065,-8.6014,-8.5961,-8.587,-8.5797,-8.5779,-8.5797,-8.576,-8.5704,-8.5724,-8.5648,-8.557,-8.5531,-8.5511,-8.5511,-8.5531,-8.5531,-8.5531,-8.5531,-8.5531,-8.5511,-8.5511,-8.5015,-8.4365,-8.3601,-8.425,-8.4671,-8.4632,-8.4938,-8.5435,-8.5511,-8.5511,-8.5511,-8.5511,-8.5511,-8.5511,-8.5511,-8.5511,-8.5511,-8.5511,-8.5511,-8.5511,-8.5511,-8.5626,-8.5817,-8.6161,-8.6696,-8.7613,-8.8721,-8.9447,-9.0058,-9.0593,-9.0631,-9.0631,-9.0631,-9.0631,-9.0631,-9.0631,-9.0631,-9.0631,-9.0631,-9.0631,-9.0631,-9.0631,-9.0631,-9.0631,-9.0631,-9.0631,-9.0631,-9.0631,-9.0631,-9.0631,-9.0631,-9.0631,-9.0631,-9.0631,-9.0708,-9.1243,-9.2045,-9.2312,-9.2312,-9.2886,-9.3115,-8.4519,-8.3969,-8.2801,-8.2293,-8.2371,-8.2918,-8.366,-8.448,-8.5338,-8.6236,-8.7017,-8.729,-8.7338,-8.7181,-8.6997,-8.6767,-8.6531,-8.6303,-8.62,-8.611,-8.6094,-8.6094,-8.6094,-8.6055,-8.6094,-8.6055,-8.6017,-8.594,-8.6055,-8.6055,-8.6094,-8.6077,-8.6099,-8.6082,-8.6082,-8.6026,-8.5923,-8.587,-8.5887,-8.5852,-8.5797,-8.5779,-8.5704,-8.5648,-8.557,-8.5551,-8.5551,-8.559,-8.5609,-8.5628,-8.5628,-8.5628,-8.5628,-8.5513,-8.5167,-8.448,-8.4441,-8.4862,-8.4747,-8.4976,-8.5244,-8.5435,-8.5511,-8.5511,-8.5511,-8.5511,-8.5511,-8.5511,-8.5511,-8.5511,-8.5511,-8.5511,-8.5511,-8.5511,-8.5626,-8.5932,-8.6199,-8.681,-8.7384,-8.853,-8.96,-8.9944,-9.0555,-9.0631,-9.0631,-9.0631,-9.0631,-9.0631,-9.0631,-9.0631,-9.0631,-9.0631,-9.0631,-9.0631,-9.0631,-9.0631,-9.0631,-9.0631,-9.0631,-9.0631,-9.0631,-9.0631,-9.0631,-9.0631,-9.0631,-9.0631,-9.0631,-9.0708,-9.0937,-9.1625,-9.2351,-9.2618,-9.2962,-9.3535,-9.3994,-8.4401,-8.3699,-8.2723,-8.2489,-8.2879,-8.366,-8.4519,-8.5338,-8.5885,-8.6588,-8.7365,-8.7404,-8.7282,-8.7092,-8.6891,-8.6672,-8.6416,-8.6223,-8.611,-8.611,-8.6055,-8.6094,-8.6055,-8.5786,-8.5593,-8.5555,-8.5363,-8.5093,-8.5593,-8.6017,-8.6094,-8.6094,-8.6094,-8.6094,-8.6077,-8.606,-8.6026,-8.5992,-8.5975,-8.594,-8.5905,-8.587,-8.5854,-8.5742,-8.5648,-8.5628,-8.5628,-8.5704,-8.5723,-8.5723,-8.5704,-8.5705,-8.5571,-8.5303,-8.5244,-8.4671,-8.4671,-8.49,-8.4976,-8.5244,-8.5435,-8.5511,-8.5511,-8.5511,-8.5511,-8.5511,-8.5511,-8.5511,-8.5511,-8.5511,-8.5511,-8.5511,-8.5511,-8.5511,-8.5893,-8.6275,-8.6849,-8.746,-8.8453,-8.9561,-9.0135,-9.0402,-9.0631,-9.0631,-9.0631,-9.0631,-9.0631,-9.0631,-9.0631,-9.0631,-9.0631,-9.0631,-9.0631,-9.0631,-9.0631,-9.0631,-9.0631,-9.0631,-9.0631,-9.0631,-9.0631,-9.0631,-9.0631,-9.0631,-9.0631,-9.0669,-9.0822,-9.109,-9.1395,-9.2121,-9.2847,-9.3382,-9.3841,-9.4376,-9.4681,-8.3894,-8.2489,-8.2332,-8.2762,-8.3582,-8.4362,-8.526,-8.608,-8.6197,-8.6666,-8.7326,-8.7404,-8.7273,-8.7043,-8.6854,-8.6627,-8.6387,-8.6168,-8.594,-8.5978,-8.5824,-8.5747,-8.5401,-8.5209,-8.4824,-8.4516,-8.4401,-8.4478,-8.5055,-8.5632,-8.6094,-8.6094,-8.6094,-8.6094,-8.6094,-8.6094,-8.606,-8.606,-8.6043,-8.6043,-8.5992,-8.5996,-8.5961,-8.5834,-8.5797,-8.5759,-8.5797,-8.5815,-8.5834,-8.5797,-8.576,-8.5762,-8.5456,-8.5111,-8.5072,-8.5053,-8.4938,-8.5015,-8.5206,-8.5435,-8.5473,-8.5511,-8.5511,-8.5511,-8.5511,-8.5511,-8.5511,-8.5511,-8.5511,-8.5511,-8.5511,-8.555,-8.555,-8.5855,-8.6275,-8.6925,-8.7651,-8.8377,-8.937,-9.0211,-9.0364,-9.0631,-9.0631,-9.0631,-9.0631,-9.0631,-9.0631,-9.0631,-9.0631,-9.0631,-9.0631,-9.0631,-9.0631,-9.0631,-9.0631,-9.0631,-9.0631,-9.0631,-9.0631,-9.0631,-9.0631,-9.0631,-9.0631,-9.0631,-9.0631,-9.0937,-9.1166,-9.1395,-9.1816,-9.2656,-9.3421,-9.4146,-9.472,-9.5102,-9.5216,-8.4206,-8.3152,-8.2567,-8.2762,-8.3582,-8.4441,-8.5299,-8.6158,-8.6822,-8.717,-8.7368,-8.7397,-8.7198,-8.6929,-8.6729,-8.6451,-8.6146,-8.579,-8.5687,-8.5324,-8.517,-8.4901,-8.4362,-8.4132,-8.3939,-8.3862,-8.3824,-8.4055,-8.4901,-8.5632,-8.6094,-8.6094,-8.6094,-8.6094,-8.6094,-8.6094,-8.6094,-8.6094,-8.6094,-8.6077,-8.606,-8.6031,-8.5979,-8.5905,-8.5887,-8.5834,-8.5852,-8.5887,-8.5923,-8.5961,-8.5944,-8.5854,-8.5686,-8.5341,-8.532,-8.5435,-8.5282,-8.532,-8.5397,-8.5511,-8.5511,-8.5511,-8.5511,-8.5511,-8.5511,-8.5511,-8.5511,-8.5511,-8.5511,-8.5511,-8.555,-8.5588,-8.5741,-8.6237,-8.679,-8.7689,-8.853,-8.937,-9.0287,-9.044,-9.0593,-9.0631,-9.0631,-9.0631,-9.0631,-9.0631,-9.0631,-9.0631,-9.0631,-9.0631,-9.0631,-9.0631,-9.0631,-9.0631,-9.0631,-9.0631,-9.0631,-9.0631,-9.0631,-9.0631,-9.0631,-9.0631,-9.0631,-9.0631,-9.0669,-9.1052,-9.1357,-9.151,-9.2083,-9.3229,-9.3917,-9.4643,-9.5025,-9.5407,-9.5484,-8.4089,-8.2996,-8.2879,-8.3308,-8.4167,-8.5026,-8.5885,-8.6666,-8.7212,-8.7404,-8.7397,-8.7282,-8.7085,-8.6661,-8.6344,-8.6004,-8.5581,-8.511,-8.4709,-8.4401,-8.4286,-8.4055,-8.3632,-8.317,-8.3054,-8.3054,-8.3516,-8.4055,-8.4901,-8.5632,-8.6094,-8.6094,-8.6094,-8.6094,-8.6094,-8.6094,-8.6094,-8.6094,-8.6094,-8.6094,-8.6094,-8.6043,-8.6065,-8.5992,-8.5975,-8.5923,-8.594,-8.5992,-8.6009,-8.6014,-8.594,-8.5854,-8.5724,-8.5532,-8.5473,-8.5511,-8.5473,-8.5511,-8.5511,-8.5511,-8.5511,-8.5511,-8.5511,-8.5511,-8.5511,-8.5511,-8.5511,-8.5511,-8.5511,-8.5511,-8.5741,-8.5817,-8.6199,-8.6619,-8.7689,-8.8721,-8.9409,-9.0096,-9.0478,-9.0555,-9.0631,-9.0631,-9.0631,-9.0631,-9.0631,-9.0631,-9.0631,-9.0631,-9.0631,-9.0631,-9.0631,-9.0631,-9.0631,-9.0631,-9.0631,-9.0631,-9.0631,-9.0631,-9.0631,-9.0631,-9.0631,-9.0631,-9.0631,-9.0708,-9.0899,-9.1243,-9.1472,-9.1969,-9.3038,-9.4338,-9.4758,-9.5102,-9.5407,-9.5598,-9.5598,-8.3816,-8.2489,-8.3152,-8.4011,-8.487,-8.5729,-8.6549,-8.729,-8.7404,-8.7404,-8.735,-8.7169,-8.6981,-8.6505,-8.5846,-8.5323,-8.492,-8.4686,-8.4093,-8.3478,-8.3439,-8.3131,-8.2785,-8.2477,-8.2362,-8.2785,-8.3439,-8.4132,-8.4901,-8.5632,-8.6094,-8.6094,-8.6094,-8.6094,-8.6094,-8.6094,-8.6094,-8.6094,-8.6094,-8.6094,-8.6094,-8.6094,-8.6077,-8.6077,-8.6094,-8.6094,-8.6094,-8.6094,-8.6094,-8.6026,-8.5923,-8.5815,-8.5704,-8.559,-8.5531,-8.5511,-8.5511,-8.5531,-8.5531,-8.5531,-8.5531,-8.5531,-8.5511,-8.555,-8.555,-8.5702,-8.5702,-8.5741,-8.5741,-8.5817,-8.6046,-8.639,-8.681,-8.7422,-8.8644,-8.9561,-9.0135,-9.0593,-9.0593,-9.0631,-9.0631,-9.0631,-9.0631,-9.0631,-9.0631,-9.0631,-9.0631,-9.0631,-9.0631,-9.0631,-9.0631,-9.0631,-9.0631,-9.0631,-9.0631,-9.0631,-9.0631,-9.0631,-9.0631,-9.0631,-9.0631,-9.0631,-9.0708,-9.0937,-9.1166,-9.1548,-9.2274,-9.2962,-9.4146,-9.5025,-9.5255,-9.5331,-9.5446,-9.5598,-9.5598,-8.3816,-8.2371,-8.3152,-8.4011,-8.487,-8.5768,-8.6588,-8.7326,-8.7404,-8.7404,-8.7326,-8.7035,-8.6807,-8.6777,-8.6415,-8.5709,-8.4642,-8.4247,-8.3439,-8.2747,-8.2593,-8.217,-8.2016,-8.2208,-8.1939,-8.267,-8.3785,-8.4632,-8.517,-8.5747,-8.6094,-8.6094,-8.6094,-8.6094,-8.6094,-8.6094,-8.6094,-8.6094,-8.6094,-8.6094,-8.6094,-8.6094,-8.6094,-8.6094,-8.6094,-8.6094,-8.6094,-8.6094,-8.6094,-8.6043,-8.5923,-8.5834,-8.5723,-8.5609,-8.5531,-8.5511,-8.5511,-8.557,-8.559,-8.5551,-8.5551,-8.5647,-8.5647,-8.5702,-8.5893,-8.6352,-8.6428,-8.6581,-8.6619,-8.6658,-8.6887,-8.7422,-8.7918,-8.8683,-8.9752,-9.0096,-9.0517,-9.0593,-9.0593,-9.0631,-9.0631,-9.0631,-9.0631,-9.0631,-9.0631,-9.0631,-9.0631,-9.0631,-9.0631,-9.0631,-9.0631,-9.0631,-9.0631,-9.0631,-9.0631,-9.0631,-9.0631,-9.0631,-9.0631,-9.0631,-9.0631,-9.0631,-9.0746,-9.1166,-9.1548,-9.1969,-9.2771,-9.3688,-9.4185,-9.4911,-9.5331,-9.5522,-9.5598,-9.5423,-9.5287]},{"header":{"parameterUnit":"m.s-1","parameterCategory":1,"la1":31.0,"la2":29.5877,"lo1":-88.7671,"lo2":-86.6584,"dy":0.0162,"dx":0.0185,"nx":115,"ny":88,"refTime":"2024-02-23T06:00:00:Z","depth":0,"parameterNumber":3,"parameterNumberName":"V-component_of_WINDS"},"data":[0.0,0.0,0.0,0.0,0.0,0.0,0.0,0.0,0.0,0.0,0.0,0.0,0.0,0.0,0.0,0.0,0.0,0.0,0.0,0.0,0.0,0.0,0.0,0.0,0.0,0.0,0.0,0.0,0.0,0.0,0.0,0.0,0.0,0.0,0.0,0.0,0.0,0.0,0.0,0.0,0.0,0.0,0.0,0.0,0.0,0.0,0.0,0.0,0.0,0.0,0.0,0.0,0.0,0.0,0.0,0.0,0.0,0.0,0.0,0.0,0.0,0.0,0.0,0.0,0.0,0.0,0.0,0.0,0.0,0.0,0.0,0.0,0.0,0.0,0.0,0.0,0.0,0.0,0.0,0.0,0.0,0.0,0.0,0.0,0.0,0.0,0.0,0.0,0.0,0.0,0.0,0.0,0.0,0.0,0.0,0.0,0.0,0.0,0.0,0.0,0.0,0.0,0.0,0.0,0.0,0.0,0.0,0.0,0.0,0.0,0.0,0.0,0.0,0.0,0.0,0.0,0.0,0.0,0.0,0.0,0.0,0.0,0.0,0.0,0.0,0.0,0.0,0.0,0.0,0.0,0.0,0.0,0.0,0.0,0.0,0.0,0.0,0.0,0.0,0.0,0.0,0.0,0.0,0.0,0.0,0.0,0.0,0.0,0.0,0.0,0.0,0.0,0.0,0.0,0.0,0.0,0.0,0.0,0.0,0.0,0.0,0.0,0.0,0.0,0.0,0.0,0.0,0.0,0.0,0.0,0.0,0.0,0.0,0.0,0.0,0.0,0.0,0.0,0.0,0.0,0.0,0.0,0.0,0.0,0.0,0.0,0.0,0.0,0.0,0.0,0.0,0.0,0.0,0.0,0.0,0.0,0.0,0.0,0.0,0.0,0.0,0.0,0.0,0.0,0.0,0.0,0.0,0.0,0.0,0.0,0.0,0.0,0.0,0.0,0.0,0.0,0.0,0.0,0.0,0.0,0.0,0.0,0.0,0.0,0.0,0.0,0.0,0.0,0.0,0.0,0.0,0.0,0.0,0.0,0.0,0.0,0.0,0.0,0.0,0.0,0.0,0.0,0.0,0.0,0.0,0.0,0.0,0.0,0.0,0.0,0.0,0.0,0.0,0.0,0.0,0.0,0.0,0.0,0.0,0.0,0.0,0.0,0.0,0.0,0.0,0.0,0.0,0.0,0.0,0.0,0.0,0.0,0.0,0.0,0.0,0.0,0.0,0.0,0.0,0.0,0.0,0.0,0.0,0.0,0.0,0.0,0.0,0.0,0.0,0.0,0.0,0.0,0.0,0.0,0.0,0.0,0.0,0.0,0.0,0.0,0.0,0.0,0.0,0.0,0.0,0.0,0.0,0.0,0.0,0.0,0.0,0.0,0.0,0.0,0.0,0.0,0.0,0.0,0.0,0.0,0.0,0.0,0.0,0.0,0.0,0.0,0.0,0.0,0.0,0.0,0.0,0.0,0.0,0.0,0.0,0.0,0.0,0.0,0.0,0.0,0.0,0.0,0.0,0.0,0.0,0.0,0.0,0.0,0.0,0.0,0.0,0.0,0.0,0.0,0.0,0.0,0.0,0.0,0.0,0.0,0.0,0.0,0.0,0.0,0.0,0.0,0.0,0.0,0.0,0.0,0.0,0.0,0.0,0.0,0.0,0.0,0.0,0.0,0.0,0.0,0.0,0.0,0.0,0.0,0.0,0.0,0.0,0.0,0.0,0.0,0.0,0.0,0.0,0.0,0.0,0.0,0.0,0.0,0.0,0.0,0.0,0.0,0.0,0.0,0.0,0.0,0.0,0.0,0.0,0.0,0.0,0.0,0.0,0.0,0.0,0.0,0.0,0.0,0.0,0.0,0.0,0.0,0.0,0.0,0.0,0.0,0.0,0.0,0.0,0.0,0.0,0.0,0.0,0.0,0.0,0.0,0.0,0.0,0.0,0.0,0.0,0.0,0.0,0.0,0.0,0.0,0.0,0.0,0.0,0.0,0.0,0.0,0.0,0.0,0.0,0.0,0.0,0.0,0.0,0.0,0.0,0.0,0.0,0.0,0.0,0.0,0.0,0.0,0.0,0.0,0.0,0.0,0.0,0.0,0.0,0.0,0.0,0.0,0.0,0.0,0.0,0.0,0.0,0.0,0.0,0.0,0.0,0.0,0.0,0.0,0.0,0.0,0.0,0.0,0.0,0.0,0.0,0.0,0.0,0.0,0.0,0.0,0.0,0.0,0.0,0.0,0.0,0.0,0.0,0.0,0.0,0.0,0.0,0.0,0.0,0.0,0.0,0.0,0.0,0.0,0.0,0.0,0.0,0.0,0.0,0.0,0.0,0.0,0.0,0.0,0.0,0.0,0.0,0.0,0.0,0.0,0.0,0.0,0.0,0.0,0.0,0.0,0.0,0.0,0.0,0.0,0.0,0.0,0.0,0.0,0.0,0.0,0.0,0.0,0.0,0.0,0.0,0.0,0.0,0.0,0.0,0.0,0.0,0.0,0.0,0.0,0.0,0.0,0.0,0.0,0.0,0.0,0.0,0.0,0.0,0.0,0.0,0.0,0.0,0.0,0.0,0.0,0.0,0.0,0.0,0.0,0.0,0.0,0.0,0.0,0.0,0.0,0.0,0.0,0.0,0.0,0.0,0.0,0.0,0.0,0.0,0.0,0.0,0.0,0.0,0.0,0.0,0.0,0.0,0.0,0.0,0.0,0.0,0.0,0.0,0.0,0.0,0.0,0.0,0.0,0.0,0.0,0.0,0.0,0.0,0.0,0.0,0.0,0.0,0.0,0.0,0.0,0.0,0.0,0.0,0.0,0.0,0.0,0.0,0.0,0.0,0.0,0.0,0.0,0.0,0.0,0.0,0.0,0.0,0.0,0.0,0.0,0.0,0.0,0.0,0.0,0.0,0.0,0.0,0.0,0.0,0.0,0.0,0.0,0.0,0.0,0.0,0.0,0.0,0.0,0.0,0.0,0.0,0.0,0.0,0.0,0.0,0.0,0.0,0.0,0.0,0.0,0.0,0.0,0.0,0.0,0.0,0.0,0.0,0.0,0.0,0.0,0.0,0.0,0.0,0.0,0.0,0.0,0.0,0.0,0.0,0.0,0.0,0.0,0.0,0.0,0.0,0.0,0.0,0.0,0.0,0.0,0.0,0.0,0.0,0.0,0.0,0.0,0.0,0.0,0.0,0.0,0.0,0.0,0.0,0.0,0.0,0.0,0.0,0.0,0.0,0.0,0.0,0.0,0.0,0.0,0.0,0.0,0.0,0.0,0.0,0.0,0.0,0.0,0.0,0.0,0.0,0.0,0.0,0.0,0.0,0.0,0.0,0.0,0.0,0.0,0.0,0.0,0.0,0.0,0.0,0.0,0.0,0.0,0.0,0.0,0.0,0.0,0.0,0.0,0.0,0.0,0.0,0.0,0.0,0.0,0.0,0.0,0.0,0.0,0.0,0.0,0.0,0.0,0.0,0.0,0.0,0.0,0.0,0.0,0.0,0.0,0.0,0.0,0.0,0.0,0.0,0.0,0.0,0.0,0.0,0.0,0.0,0.0,0.0,0.0,0.0,0.0,0.0,0.0,0.0,0.0,0.0,0.0,0.0,0.0,0.0,0.0,0.0,0.0,0.0,0.0,0.0,0.0,0.0,0.0,0.0,0.0,0.0,0.0,0.0,0.0,0.0,0.0,0.0,0.0,0.0,0.0,0.0,0.0,0.0,0.0,0.0,0.0,0.0,0.0,0.0,0.0,0.0,0.0,0.0,0.0,0.0,0.0,0.0,0.0,0.0,0.0,0.0,0.0,0.0,0.0,0.0,0.0,0.0,0.0,0.0,0.0,0.0,0.0,0.0,0.0,0.0,0.0,0.0,0.0,0.0,0.0,0.0,0.0,0.0,0.0,0.0,0.0,0.0,0.0,0.0,0.0,0.0,0.0,0.0,0.0,0.0,0.0,0.0,0.0,0.0,0.0,0.0,0.0,0.0,0.0,0.0,0.0,0.0,0.0,0.0,0.0,0.0,0.0,0.0,0.0,0.0,0.0,0.0,0.0,0.0,0.0,0.0,0.0,0.0,0.0,0.0,0.0,0.0,0.0,0.0,0.0,0.0,0.0,0.0,0.0,0.0,0.0,0.0,0.0,0.0,0.0,0.0,0.0,0.0,0.0,0.0,0.0,0.0,0.0,0.0,0.0,0.0,0.0,0.0,0.0,0.0,0.0,0.0,0.0,0.0,0.0,0.0,0.0,0.0,0.0,0.0,0.0,0.0,0.0,0.2223,0.0,0.0,0.0,0.0,0.0,0.0,0.0,0.0,0.0,0.0,0.0,0.0,0.0,0.0,0.0,0.0,0.0,0.0,0.0,0.0,0.0,0.0,0.0,0.0,0.0,0.0,0.0,0.0,0.0,0.0,0.0,0.0,0.0,0.0,0.0,0.0,0.0,0.0,0.0,0.0,0.0,0.0,0.0,0.0,0.0,0.0,0.0,0.0,0.0,0.0,0.0,0.0,0.0,0.0,0.0,0.0,0.0,0.0,0.0,0.0,0.0,0.0,0.0,0.0,0.0,0.0,0.0,0.0,0.0,0.0,0.0,0.0,0.0,0.0,0.0,0.0,0.0,0.0,0.0,0.0,0.0,0.0,0.0,0.0,0.0,0.0,0.0,0.0,0.0,0.0,0.0,0.0,0.0,0.0,0.0,0.0,0.0,0.0,0.0,0.0,0.0,0.0,0.0,0.0,0.0,0.0,0.0,0.0,0.0,0.0,0.2021,0.2223,0.2223,0.2223,0.2223,0.0,0.0,0.0,0.0,0.0,0.0,0.0,0.0,0.0,0.0,0.0,0.0,0.0,0.0,0.0,0.0,0.0,0.0,0.0,0.0,0.0,0.0,0.0,0.0,0.0,0.0,0.0,0.0,0.0,0.0,0.0,0.0,0.0,0.0,0.0,0.0,0.0,0.0,0.0,0.0,0.0,0.0,0.0,0.0,0.0,0.0,0.0,0.0,0.0,0.0,0.0,0.0,0.0,0.0,0.0,0.0,0.0,0.0,0.0,0.0,0.0,0.0,0.0,0.0,0.0,0.0,0.0,0.0,0.0,0.0,0.0,0.0,0.0,0.0,0.0,0.0,0.0,0.0,0.0,0.0,0.0,0.0,0.0,0.0,0.0,0.0,0.0,0.0,0.0,0.0,0.0,0.0,0.0,0.0,0.0,0.0,0.0,0.0,0.0,0.0,0.0,0.0,0.0,0.0,0.0,0.0,0.0,0.0,0.0,0.0,0.0,0.0,0.2223,0.2223,0.2223,0.0,0.0,0.0,0.0,0.0,0.0,0.0,0.0,0.0,0.0,0.0,0.0,0.0,0.0,0.0,0.0,0.0,0.0,0.0,0.0,0.0,0.0,0.0,0.0,0.0,0.0,0.0,0.0,0.0,0.0,0.0,0.0,0.0,0.0,0.0,0.0,0.0,0.0,0.0,0.0,0.0,0.0,0.0,0.0,0.0,0.0,0.0,0.0,0.0,0.0,0.0,0.0,0.0,0.0,0.0,0.0,0.0,0.0,0.0,0.0,0.0,0.0,0.0,0.0,0.0,0.0,0.0,0.0,0.0,0.0,0.0,0.0,0.0,0.0,0.0,0.0,0.0,0.0,0.0,0.0,0.0,0.0,0.0,0.0,0.0,0.0,0.0,0.0,0.0,0.0,0.0,0.0,0.0,0.0,0.0,0.0,0.0,0.0,0.0,0.0,0.0,0.0,0.0,0.0,0.0,0.0,0.0,0.0,0.0,0.0,0.2223,0.2223,0.2223,0.0,0.2223,0.0,0.0,0.0,0.0,0.0,0.0,0.0,0.0,0.0,0.0,0.0,0.0,0.0,0.0,0.0,0.0,0.0,0.0,0.0,0.0,0.0,0.0,0.0,0.0,0.0,0.0,0.0,0.0,0.0,0.0,0.0,0.0,0.0,0.0,0.0,0.0,0.0,0.0,0.0,0.0,0.0,0.0,0.0,0.0,0.0,0.0,0.0,0.0,0.0,0.0,0.0,0.0,0.0,0.0,0.0,0.0,0.0,0.0,0.0,0.0,0.0,0.0,0.0,0.0,0.0,0.0,0.0,0.0,0.0,0.0,0.0,0.0,0.0,0.0,0.0,0.0,0.0,0.0,0.0,0.0,0.0,0.0,0.0,0.0,0.0,0.0,0.0,0.0,0.0,0.0,0.0,0.0,0.0,0.0,0.0,0.0,0.0,0.0,0.0,0.0,0.0,0.0,0.0,0.0,0.0,0.0,0.0,0.0,0.0,0.0,0.2223,0.2223,0.3026,0.343,0.0,0.0,0.0,0.0,0.0,0.0,0.0,0.0,0.0,0.0,0.0,0.0,0.0,0.0,0.0,0.0,0.0,0.0,0.0,0.0,0.0,0.0,0.0,0.0,0.0,0.0,0.0,0.0,0.0,0.0,0.0,0.0,0.0,0.0,0.0,0.0,0.0,0.0,0.0,0.0,0.0,0.0,0.0,0.0,0.0,0.0,0.0,0.0,0.0,0.0,0.0,0.0,0.0,0.0,0.0,0.0,0.0,0.0,0.0,0.0,0.0,0.0,0.0,0.0,0.0,0.0,0.0,0.0,0.0,0.0,0.0,0.0,0.0,0.0,0.0,0.0,0.0,0.0,0.0,0.0,0.0,0.0,0.0,0.0,0.0,0.0,0.0,0.0,0.0,0.0,0.0,0.0,0.0,0.0,0.0,0.0,0.0,0.0,0.0,0.0,0.0,0.0,0.0,0.0,0.0,0.0,0.0,0.0,0.0,0.0,0.2759,0.2959,0.336,0.4367,0.49,0.49,0.0,0.0,0.0,0.0,0.0,0.0,0.0,0.0,0.0,0.0,0.0,0.0,0.0,0.0,0.0,0.0,0.0,0.0,0.0,0.0,0.0,0.0,0.0,0.0,0.0,0.0,0.0,0.0,0.0,0.0,0.0,0.0,0.0,0.0,0.0,0.0,0.0,0.0,0.0,0.0,0.0,0.0,0.0,0.0,0.0,0.0,0.0,0.0,0.0,0.0,0.0,0.0,0.0,0.0,0.0,0.0,0.0,0.0,0.0,0.0,0.0,0.0,0.0,0.0,0.0,0.0,0.0,0.0,0.0,0.0,0.0,0.0,0.0,0.0,0.0,0.0,0.0,0.0,0.0,0.0,0.0,0.0,0.0,0.0,0.0,0.0,0.0,0.0,0.0,0.0,0.0,0.0,0.0,0.0,0.0,0.0,0.0,0.0,0.0,0.0,0.0,0.0,0.0,0.0,0.0,0.0,0.0,0.0,0.4099,0.4166,0.4833,0.6101,0.6297,0.6297,0.0,0.0,0.0,0.0,0.0,0.0,0.0,0.0,0.0,0.0,0.0,0.0,0.0,0.0,0.0,0.0,0.0,0.0,0.0,0.0,0.0,0.0,0.0,0.0,0.0,0.0,0.0,0.0,0.0,0.0,0.0,0.0,0.0,0.0,0.0,0.0,0.0,0.0,0.0,0.0,0.0,0.0,0.0,0.0,0.0,0.0,0.0,0.0,0.0,0.0,0.0,0.0,0.0,0.0,0.0,0.0,0.0,0.0,0.0,0.0,0.0,0.0,0.0,0.0,0.0,0.0,0.0,0.0,0.0,0.0,0.0,0.0,0.0,0.0,0.0,0.0,0.0,0.0,0.0,0.0,0.0,0.0,0.0,0.0,0.0,0.0,0.0,0.0,0.0,0.0,0.0,0.0,0.0,0.0,0.0,0.0,0.0,0.0,0.0,0.0,0.0,0.0,0.0,0.0,0.0,0.0,0.0,0.0,0.0,0.43,0.5168,0.6301,0.7769,0.7836,0.7769,0.0,0.0,0.0,0.0,0.0,0.0,0.0,0.0,0.0,0.0,0.0,0.0,0.0,0.0,0.0,0.0,0.0,0.0,0.0,0.0,0.0,0.0,0.0,0.0,0.0,0.0,0.0,0.0,0.0,0.0,0.0,0.0,0.0,0.0,0.0,0.0,0.0,0.0,0.0,0.0,0.0,0.0,0.0,0.0,0.0,0.0,0.0,0.0,0.0,0.0,0.0,0.0,0.0,0.0,0.0,0.0,0.0,0.0,0.0,0.0,0.0,0.0,0.0,0.0,0.0,0.0,0.0,0.0,0.0,0.0,0.0,0.0,0.0,0.0,0.0,0.0,0.0,0.0,0.0,0.0,0.0,0.0,0.0,0.0,0.0,0.0,0.0,0.0,0.0,0.0,0.0,0.0,0.0,0.0,0.0,0.0,0.0,0.0,0.0,0.0,0.0,0.0,0.0,0.0,0.0,0.0,0.0,0.0,0.0,0.5704,0.0,0.8302,0.9244,0.931,0.9244,0.0,0.0,0.0,0.0,0.0,0.0,0.0,0.0,0.0,0.0,0.0,0.0,0.0,0.0,0.0,0.0,0.0,0.0,0.0,0.0,0.0,0.0,0.0,0.0,0.0,0.0,0.0,0.0,0.0,0.0,0.0,0.0,0.0,0.0,0.0,0.0,0.0,0.0,0.0,0.0,0.0,0.0,0.0,0.0,0.0,0.0,0.0,0.0,0.0,0.0,0.0,0.0,0.0,0.0,0.0,0.0,0.0,0.0,0.0,0.0,0.0,0.0,0.0,0.0,0.0,0.0,0.0,0.0,0.0,0.0,0.0,0.0,0.0,0.0,0.0,0.0,0.0,0.0,0.0,0.0,0.0,0.0,0.0,0.0,0.0,0.0,0.0,0.0,0.0,0.0,0.0,0.0,0.0,0.0,0.0,0.0,0.0,0.0,0.0,0.0,0.0,0.0,0.0,0.0,0.0,0.0,0.0,0.0,0.577,0.8507,0.9915,1.0585,1.0717,1.0651,1.0651,0.0,0.0,0.0,0.0,0.0,0.0,0.0,0.0,0.0,0.0,0.0,0.0,0.0,0.0,0.0,0.0,0.0,0.0,0.0,0.0,0.0,0.0,0.0,0.0,0.0,0.0,0.0,0.0,0.0,0.0,0.0,0.0,0.0,0.0,0.0,0.0,0.0,0.0,0.0,0.0,0.0,0.0,0.0,0.0,0.0,0.0,0.0,0.0,0.0,0.0,0.0,0.0,0.0,0.0,0.0,0.0,0.0,0.0,0.0,0.0,0.0,0.0,0.0,0.0,0.0,0.0,0.0,0.0,0.0,0.0,0.0,0.0,0.0,0.0,0.0,0.0,0.0,0.0,0.0,0.0,0.0,0.0,0.0,0.0,0.0,0.0,0.0,0.0,0.0,0.0,0.0,0.0,0.0,0.0,0.0,0.0,0.0,0.0,0.0,0.0,0.0,0.0,0.0,0.0,0.0,0.0,0.0,0.0,0.0,0.9981,1.0452,1.0717,1.0717,1.0717,1.0717,0.0,0.0,0.0,0.0,0.0,0.0,0.0,0.0,0.0,0.0,0.0,0.0,0.0,0.0,0.0,0.0,0.0,0.0,0.0,0.0,0.0,0.0,0.0,0.0,0.0,0.0,0.0,0.0,0.0,0.0,0.0,0.0,0.0,0.0,0.0,0.0,0.0,0.0,0.0,0.0,0.0,0.0,0.0,0.0,0.0,0.0,0.0,0.0,0.0,0.0,0.0,0.0,0.0,0.0,0.0,0.0,0.0,0.0,0.0,0.0,0.0,0.0,0.0,0.0,0.0,0.0,0.0,0.0,0.0,0.0,0.0,0.0,0.0,0.0,0.0,0.0,0.0,0.0,0.0,0.0,0.0,0.0,0.0,0.0,0.0,0.0,0.0,0.0,0.0,0.0,0.0,0.0,0.0,0.0,0.0,0.0,0.0,0.0,0.0,0.0,0.0,0.0,0.0,0.0,0.0,0.0,0.0,0.0,0.0,1.082,1.0887,1.0887,1.0887,1.0887,1.0833,1.0724,0.0,0.0,0.0,0.0,0.0,0.0,0.0,0.0,0.0,0.0,0.0,0.0,0.0,0.0,0.0,0.0,0.0,0.0,0.0,0.0,0.0,0.0,0.0,0.0,0.0,0.0,0.0,0.0,0.0,0.0,0.0,0.0,0.0,0.0,0.0,0.0,0.0,0.0,0.0,0.0,0.0,0.0,0.0,0.0,0.0,0.0,0.0,0.0,0.0,0.0,0.0,0.0,0.0,0.0,0.0,0.0,0.0,0.0,0.0,0.0,0.0,0.0,0.0,0.0,0.0,0.0,0.0,0.0,0.0,0.0,0.0,0.0,0.0,0.0,0.0,0.0,0.0,0.0,0.0,0.0,0.0,0.0,0.0,0.0,0.0,0.0,0.0,0.0,0.0,0.0,0.0,0.0,0.0,0.0,0.0,0.0,0.0,0.0,0.0,0.0,0.0,0.0,0.0,0.0,0.0,0.0,0.0,0.0,1.1172,1.1199,1.1206,1.1185,1.1241,1.1029,0.0,0.0,0.0,0.0,0.0,0.0,0.0,0.0,0.0,0.0,0.0,0.0,0.0,0.0,0.0,0.0,0.0,0.0,0.0,0.0,0.0,0.0,0.0,0.0,0.0,0.0,0.0,0.0,0.0,0.0,0.0,0.0,0.0,0.0,0.0,0.0,0.0,0.0,0.0,0.0,0.0,0.0,0.0,0.0,0.0,0.0,0.0,0.0,0.0,0.0,0.0,0.0,0.0,0.0,0.0,0.0,0.0,0.0,0.0,0.0,0.0,0.0,0.0,0.0,0.0,0.0,0.0,0.0,0.0,0.0,0.0,0.0,0.0,0.0,0.0,0.0,0.0,0.0,0.0,0.0,0.0,0.0,0.0,0.0,0.0,0.0,0.0,0.0,0.0,0.0,0.0,0.0,0.0,0.0,0.0,0.0,0.0,0.0,0.0,0.0,0.0,0.0,0.0,0.0,0.0,0.0,0.0,0.0,0.0,1.1335,1.1653,1.1721,1.1504,1.128,1.1124,0.0,0.0,0.0,0.0,0.0,0.0,0.0,0.0,0.0,0.0,0.0,0.0,0.0,0.0,0.0,0.0,0.0,0.0,0.0,0.0,0.0,0.0,0.0,0.0,0.0,0.0,0.0,0.0,0.0,0.0,0.0,0.0,0.0,0.0,0.0,0.0,0.0,0.0,0.0,0.0,0.0,0.0,0.0,0.0,0.0,0.0,0.0,0.0,0.0,0.0,0.0,0.0,0.0,0.0,0.0,0.0,0.0,0.0,0.0,0.0,0.0,0.0,0.0,0.0,0.0,0.0,0.0,0.0,0.0,0.0,0.0,0.0,0.0,0.0,0.0,0.0,0.0,0.0,0.0,0.0,0.0,0.0,0.0,0.0,0.0,0.0,0.0,0.0,0.0,0.0,0.0,0.0,0.0,0.0,0.0,0.0,0.0,0.0,0.0,0.0,0.0,0.0,0.0,0.0,0.0,0.0,0.0,0.0,1.1396,1.1491,1.1986,1.2162,1.1993,1.1579,1.1294,0.0,0.0,0.0,0.0,0.0,0.0,0.0,0.0,0.0,0.0,0.0,0.0,0.0,0.0,0.0,0.0,0.0,0.0,0.0,0.0,0.0,0.0,0.0,0.0,0.0,0.0,0.0,0.0,0.0,0.0,0.0,0.0,0.0,0.0,0.0,0.0,0.0,0.0,0.0,0.0,0.0,0.0,0.0,0.0,0.0,0.0,0.0,0.0,0.0,0.0,0.0,0.0,0.0,0.0,0.0,0.0,0.0,0.0,0.0,0.0,0.0,0.0,0.0,0.0,0.0,0.0,0.0,0.0,0.0,0.0,0.0,0.0,0.0,0.0,0.0,0.0,0.0,0.0,0.0,0.0,0.0,0.0,0.0,0.0,0.0,0.0,0.0,0.0,0.0,0.0,0.0,0.0,0.0,0.0,0.0,0.0,0.0,0.0,0.0,0.0,0.0,0.0,0.0,0.0,0.0,0.0,0.0,0.0,1.1626,1.1647,1.2203,1.2501,1.2481,1.1932,1.1491,0.0,0.0,0.0,0.0,0.0,0.0,0.0,0.0,0.0,0.0,0.0,0.0,0.0,0.0,0.0,0.0,0.0,0.0,0.0,0.0,0.0,0.0,0.0,0.0,0.0,0.0,0.0,0.0,0.0,0.0,0.0,0.0,0.0,0.0,0.0,0.0,0.0,0.0,0.0,0.0,0.0,0.0,0.0,0.0,0.0,0.0,0.0,0.0,0.0,0.0,0.0,0.0,0.0,0.0,0.0,0.0,0.0,0.0,0.0,0.0,0.0,0.0,0.0,0.0,0.0,0.0,0.0,0.0,0.0,0.0,0.0,0.0,0.0,0.0,0.0,0.0,0.0,0.0,0.0,0.0,0.0,0.0,0.0,0.0,0.0,0.0,0.0,0.0,0.0,0.0,0.0,0.0,0.0,0.0,0.0,0.0,0.0,0.0,0.0,0.0,0.0,0.0,0.0,0.0,0.0,0.0,0.0,0.0,1.1674,1.1789,1.2257,1.2501,1.2494,1.1932,1.1592,0.0,0.0,0.0,0.0,0.0,0.0,0.0,0.0,0.0,0.0,0.0,0.0,0.0,0.0,0.0,0.0,0.0,0.0,0.0,0.0,0.0,0.0,0.0,0.0,0.0,0.0,0.0,0.0,0.0,0.0,0.0,0.0,0.0,0.0,0.0,0.0,0.0,0.0,0.0,0.0,0.0,0.0,0.0,0.0,0.0,0.0,0.0,0.0,1.2548,0.0,0.0,0.0,0.0,0.0,0.0,0.0,0.0,0.0,0.0,0.0,0.0,0.0,0.0,0.0,0.0,0.0,0.0,0.0,0.0,0.0,0.0,0.0,0.0,0.0,0.0,0.0,0.0,0.0,0.0,0.0,0.0,0.0,0.0,0.0,0.0,0.0,0.0,0.0,0.0,0.0,0.0,0.0,0.0,0.0,0.0,0.0,0.0,0.0,0.0,0.0,0.0,0.0,0.0,0.0,0.0,0.0,0.0,0.0,1.1728,1.1945,1.2305,1.2501,1.2488,1.221,1.198,0.0,0.0,0.0,0.0,0.0,0.0,0.0,0.0,0.0,0.0,0.0,0.0,0.0,0.0,0.0,0.0,0.0,0.0,0.0,0.0,0.0,0.0,0.0,0.0,0.0,0.0,0.0,0.0,0.0,0.0,0.0,0.0,0.0,0.0,0.0,0.0,0.0,0.0,0.0,0.0,0.0,0.0,0.0,0.0,0.0,0.0,0.0,0.0,0.0,0.0,0.0,0.0,0.0,0.0,0.0,0.0,0.0,0.0,0.0,0.0,0.0,0.0,0.0,0.0,0.0,0.0,0.0,0.0,0.0,0.0,0.0,0.0,0.0,0.0,0.0,0.0,0.0,0.0,0.0,0.0,0.0,0.0,0.0,0.0,0.0,0.0,0.0,0.0,0.0,0.0,0.0,0.0,0.0,0.0,0.0,0.0,0.0,0.0,0.0,0.0,0.0,0.0,0.0,0.0,0.0,0.0,0.0,1.1342,1.1782,1.2121,1.2449,1.2579,1.2572,1.267,1.2441,1.1698,0.0,0.0,0.0,0.0,0.0,0.0,0.0,0.0,0.0,0.0,0.0,0.0,0.0,0.0,0.0,0.0,0.0,0.0,0.0,0.0,0.0,0.0,0.0,0.0,0.0,0.0,0.0,0.0,0.0,0.0,0.0,0.0,0.0,0.0,0.0,0.0,0.0,0.0,1.2385,1.2361,0.0,0.0,0.0,0.0,0.0,0.0,0.0,0.0,1.2385,0.0,0.0,0.0,0.0,0.0,0.0,0.0,0.0,0.0,0.0,0.0,0.0,0.0,0.0,0.0,0.0,0.0,0.0,0.0,0.0,0.0,0.0,0.0,0.0,0.0,0.0,0.0,0.0,0.0,0.0,0.0,0.0,0.0,0.0,0.0,0.0,0.0,0.0,0.0,0.0,0.0,0.0,0.0,0.0,0.0,0.0,0.0,0.0,0.0,0.0,0.0,0.0,0.0,0.0,0.0,0.0,0.9804,1.094,1.1884,1.2413,1.2783,1.2965,1.3035,1.3047,1.2802,1.2115,0.0,0.0,0.0,0.0,0.0,0.0,0.0,0.0,0.0,0.0,0.0,0.0,0.0,0.0,0.0,0.0,0.0,0.0,0.0,0.0,0.0,0.0,0.0,0.0,0.0,0.0,0.0,0.0,0.0,0.0,0.0,0.0,0.0,0.0,0.0,0.0,0.0,0.0,0.0,1.2621,1.2661,0.0,0.0,0.0,0.0,0.0,0.0,0.0,0.0,1.2881,0.0,0.0,0.0,0.0,0.0,0.0,0.0,0.0,0.0,0.0,0.0,0.0,0.0,0.0,0.0,0.0,0.0,0.0,0.0,0.0,0.0,0.0,0.0,0.0,0.0,0.0,0.0,0.0,0.0,0.0,0.0,0.0,0.0,0.0,0.0,0.0,0.0,0.0,0.0,0.0,0.0,0.0,0.0,0.0,0.0,0.0,0.0,0.0,0.0,0.0,0.0,0.0,0.0,0.0,0.0,0.9568,1.1034,1.2135,1.279,1.2965,1.3197,1.3421,1.3499,1.3096,0.0,0.0,0.0,0.0,0.0,0.0,0.0,0.0,0.0,0.0,0.0,0.0,0.0,0.0,0.0,0.0,0.0,0.0,0.0,0.0,0.0,0.0,0.0,0.0,0.0,0.0,0.0,0.0,0.0,0.0,0.0,0.0,0.0,0.0,0.0,0.0,0.0,0.0,0.0,0.0,1.284,1.297,1.3327,0.0,0.0,0.0,0.0,0.0,0.0,1.2946,1.2954,0.0,0.0,0.0,0.0,0.0,0.0,0.0,0.0,0.0,0.0,0.0,0.0,0.0,0.0,0.0,0.0,0.0,0.0,0.0,0.0,0.0,0.0,0.0,0.0,0.0,0.0,0.0,0.0,0.0,0.0,0.0,0.0,0.0,0.0,0.0,0.0,0.0,0.0,0.0,0.0,0.0,0.0,0.0,0.0,0.0,0.0,0.0,0.0,0.0,0.0,0.0,0.0,0.0,0.0,0.0,0.9074,1.1087,1.2429,1.2951,1.3042,1.3274,1.366,1.3739,1.3321,0.0,0.0,0.0,0.0,0.0,0.0,0.0,0.0,0.0,0.0,0.0,0.0,0.0,0.0,0.0,0.0,0.0,0.0,0.0,0.0,0.0,0.0,0.0,0.0,0.0,0.0,0.0,0.0,0.0,0.0,0.0,0.0,0.0,0.0,0.0,0.0,0.0,0.0,0.0,0.0,0.0,1.3254,1.3547,1.3303,0.0,0.0,0.0,0.0,1.31,1.3197,0.0,0.0,0.0,0.0,0.0,0.0,0.0,0.0,0.0,0.0,0.0,0.0,0.0,0.0,0.0,0.0,0.0,0.0,0.0,0.0,0.0,0.0,0.0,0.0,0.0,0.0,0.0,0.0,0.0,0.0,0.0,0.0,0.0,0.0,0.0,0.0,0.0,0.0,0.0,0.0,0.0,0.0,0.0,0.0,0.0,0.0,0.0,0.0,0.0,0.0,0.0,0.0,0.0,0.0,0.0,0.0,0.7693,1.0571,1.2278,1.2565,1.2888,1.3274,1.366,1.3509,1.33,0.0,0.0,0.0,0.0,0.0,0.0,0.0,0.0,0.0,0.0,0.0,0.0,0.0,0.0,0.0,0.0,0.0,0.0,0.0,0.0,0.0,0.0,0.0,0.0,0.0,0.0,0.0,0.0,0.0,0.0,0.0,0.0,0.0,0.0,0.0,0.0,0.0,0.0,0.0,0.0,0.0,1.3352,1.3392,1.323,1.3076,0.0,0.0,1.359,1.3977,1.4416,0.0,0.0,0.0,0.0,0.0,0.0,0.0,0.0,0.0,0.0,0.0,0.0,0.0,0.0,0.0,0.0,0.0,0.0,0.0,0.0,0.0,0.0,0.0,0.0,0.0,0.0,0.0,0.0,0.0,0.0,0.0,0.0,0.0,0.0,0.0,0.0,0.0,0.0,0.0,0.0,0.0,0.0,0.0,0.0,0.0,0.0,0.0,0.0,0.0,0.0,0.0,0.0,0.0,0.0,0.0,0.8183,0.8646,1.1014,1.2602,1.319,1.3358,1.3737,1.443,1.3903,1.3539,0.0,0.0,0.0,0.0,0.0,0.0,0.0,0.0,0.0,0.0,0.0,0.0,0.0,0.0,0.0,0.0,0.0,0.0,0.0,0.0,0.0,0.0,0.0,0.0,0.0,0.0,0.0,0.0,0.0,0.0,0.0,0.0,0.0,0.0,0.0,0.0,0.0,0.0,0.0,0.0,0.0,0.0,1.3815,1.3766,0.0,0.0,0.0,1.4042,1.3896,0.0,0.0,0.0,0.0,0.0,0.0,0.0,0.0,0.0,0.0,0.0,0.0,0.0,0.0,0.0,0.0,0.0,0.0,0.0,0.0,0.0,0.0,0.0,0.0,0.0,0.0,0.0,0.0,0.0,0.0,0.0,0.0,0.0,0.0,0.0,0.0,0.0,0.0,0.0,0.0,0.0,0.0,0.0,0.0,0.0,0.0,0.0,0.0,0.0,0.0,0.0,0.0,0.0,0.0,0.0,0.0,0.0,0.9518,1.1586,1.2965,1.3513,1.3667,1.4053,1.4806,1.4219,0.0,0.0,0.0,0.0,0.0,0.0,0.0,0.0,0.0,0.0,0.0,0.0,0.0,0.0,0.0,0.0,0.0,0.0,0.0,0.0,0.0,0.0,0.0,0.0,0.0,0.0,0.0,1.2946,0.0,0.0,0.0,0.0,0.0,0.0,0.0,0.0,0.0,0.0,0.0,0.0,0.0,0.0,1.4002,1.4099,1.4221,1.4343,0.0,0.0,1.4359,1.4075,1.4786,1.5114,0.0,0.0,0.0,0.0,0.0,0.0,0.0,0.0,0.0,0.0,0.0,0.0,0.0,0.0,0.0,0.0,0.0,0.0,0.0,0.0,0.0,0.0,0.0,0.0,0.0,0.0,0.0,0.0,0.0,0.0,0.0,0.0,0.0,0.0,0.0,0.0,0.0,0.0,0.0,0.0,0.0,0.0,0.0,0.0,0.0,0.0,0.0,0.0,0.0,0.0,0.0,0.0,0.0,0.0,0.8059,0.9524,1.1894,1.312,1.312,1.3513,1.3898,1.443,1.4002,1.3806,0.0,0.0,0.0,0.0,0.0,0.0,0.0,0.0,0.0,0.0,0.0,0.0,0.0,0.0,0.0,0.0,0.0,0.0,0.0,0.0,0.0,0.0,0.0,0.0,0.0,0.0,0.0,0.0,0.0,0.0,0.0,0.0,0.0,0.0,0.0,0.0,0.0,0.0,0.0,0.0,0.0,1.4099,1.3937,1.4351,1.4789,0.0,0.0,1.4651,1.5285,1.5723,1.5626,1.4495,0.0,0.0,0.0,0.0,0.0,0.0,0.0,0.0,0.0,0.0,0.0,0.0,0.0,0.0,0.0,0.0,0.0,0.0,0.0,0.0,0.0,0.0,0.0,0.0,0.0,0.0,0.0,0.0,0.0,0.0,0.0,0.0,0.0,0.0,0.0,0.0,0.0,0.0,0.0,0.0,0.0,0.0,0.0,0.0,0.0,0.0,0.0,0.0,0.0,0.0,0.0,0.0,0.0,0.9507,1.1103,1.2422,1.3351,1.3898,1.4053,1.4361,1.4737,1.4402,1.4123,0.0,0.0,0.0,0.0,0.0,0.0,0.0,0.0,0.0,0.0,0.0,0.0,0.0,0.0,0.0,0.0,0.0,0.0,0.0,0.0,0.0,0.0,0.0,0.0,0.0,0.0,0.0,0.0,1.3522,1.3368,1.2921,0.0,0.0,0.0,0.0,0.0,0.0,0.0,0.0,0.0,0.0,1.4432,1.4684,1.5,0.0,0.0,1.5236,1.5114,1.5171,1.5569,1.5512,1.4448,1.4278,0.0,0.0,0.0,0.0,0.0,0.0,0.0,0.0,0.0,0.0,0.0,0.0,0.0,0.0,0.0,0.0,0.0,0.0,0.0,0.0,0.0,0.0,0.0,0.0,0.0,0.0,0.0,0.0,0.0,0.0,0.0,0.0,0.0,0.0,0.0,0.0,0.0,0.0,0.0,0.0,0.0,0.0,0.0,0.0,0.0,0.0,0.0,0.0,0.0,0.0,0.0,0.0,1.0515,1.218,1.3025,1.3821,1.4361,1.4515,1.4745,1.496,1.4716,1.4424,0.0,0.0,0.0,0.0,0.0,0.0,0.0,0.0,0.0,0.0,0.0,0.0,0.0,0.0,0.0,0.0,0.0,0.0,0.0,0.0,0.0,0.0,0.0,0.0,0.0,0.0,0.0,0.0,1.3441,1.3181,1.2686,0.0,0.0,0.0,0.0,0.0,0.0,0.0,0.0,0.0,0.0,1.4773,1.5041,1.5277,1.5415,1.5358,1.526,1.5139,1.4992,1.5285,1.526,1.4464,0.0,0.0,0.0,0.0,0.0,0.0,0.0,0.0,0.0,0.0,0.0,0.0,0.0,0.0,0.0,0.0,0.0,0.0,0.0,0.0,0.0,0.0,0.0,0.0,0.0,0.0,0.0,0.0,0.0,0.0,0.2223,0.0,0.0,0.0,0.0,0.0,0.0,0.0,0.0,0.0,0.0,0.0,0.0,0.0,0.0,0.0,0.0,0.0,0.0,0.0,0.0,0.0,0.0,1.0809,1.218,1.3634,1.4361,1.4438,1.4814,1.4968,1.4968,1.5037,1.4781,1.4424,0.0,0.0,0.0,0.0,0.0,0.0,0.0,0.0,0.0,0.0,0.0,0.0,0.0,0.0,0.0,0.0,0.0,0.0,0.0,0.0,0.0,0.0,0.0,0.0,0.0,0.0,1.2718,1.2759,1.2783,0.0,0.0,0.0,0.0,0.0,0.0,0.0,0.0,0.0,0.0,1.4479,1.509,1.4781,1.5025,1.5195,1.5033,1.4708,1.4586,1.4927,1.4976,1.4919,0.0,0.0,0.0,0.0,0.0,0.0,0.0,0.0,0.0,0.0,0.0,0.0,0.0,0.0,0.0,0.0,0.0,0.0,0.0,0.0,0.0,0.0,0.0,0.0,0.0,0.0,0.0,0.2215,0.2215,0.0,0.0,0.0,0.0,0.0,0.0,0.0,0.0,0.0,0.0,0.0,0.4802,0.4802,0.0,0.0,0.0,0.0,0.0,0.0,0.0,0.0,0.0,0.0,0.0,0.0,1.1462,1.2208,1.3326,1.4053,1.4368,1.4814,1.5045,1.5045,1.5045,1.4797,1.444,0.0,0.0,0.0,0.0,0.0,0.0,0.0,0.0,0.0,0.0,0.0,0.0,0.0,0.0,0.0,0.0,0.0,0.0,0.0,0.0,0.0,0.0,0.0,0.0,0.0,1.2824,0.0,0.0,0.0,0.0,0.0,0.0,0.0,0.0,0.0,0.0,0.0,1.3685,1.4278,1.4554,1.4741,1.4862,1.5082,1.5301,0.0,0.0,0.0,0.0,0.0,0.0,0.0,0.0,0.0,0.0,0.0,0.0,0.0,0.0,1.4286,1.3815,1.3863,1.3985,1.3977,0.0,0.0,0.0,0.0,0.0,0.0,0.0,0.0,0.0,0.0,0.0,0.0,0.0,0.0,0.2194,0.0,0.2196,0.0,0.0,0.0,0.0,0.0,0.0,0.0,0.0,0.2365,0.3594,0.582,0.5745,0.6902,0.0,0.9084,0.8078,0.0,0.0,0.0,0.0,0.0,0.0,0.0,0.0,1.2043,1.2424,1.3409,1.413,1.4592,1.4891,1.5045,1.5045,1.5045,1.4854,1.4627,1.4278,1.401,0.0,0.0,0.0,0.0,0.0,0.0,0.0,0.0,0.0,0.0,0.0,0.0,0.0,0.0,0.0,0.0,0.0,0.0,0.0,0.0,0.0,0.0,0.0,1.3027,0.0,0.0,0.0,0.0,0.0,0.0,0.0,0.0,0.0,1.3392,1.375,1.4188,1.4643,1.4814,1.4871,1.4789,0.0,0.0,0.0,0.0,0.0,0.0,0.0,1.4359,1.414,1.4213,1.4335,1.4448,1.4651,1.4822,1.4879,0.0,0.0,1.4391,1.4408,1.4521,1.4529,1.444,1.4399,1.4505,1.4489,1.4489,0.0,0.0,0.0,0.0,0.0,0.0,0.0,0.0,0.2335,0.2233,0.0,0.2312,0.0,0.0,0.0,0.0,0.0,0.2338,0.0,0.0,0.2502,0.4443,0.7517,0.7439,0.9158,1.234,1.2154,1.1275,0.9724,0.828,0.0,0.0,0.0,0.0,0.0,0.0,1.2395,1.2798,1.3792,1.4592,1.4968,1.4968,1.5045,1.5045,1.5045,1.5037,1.4952,1.4627,1.4529,1.4684,1.3888,0.0,0.0,0.0,0.0,0.0,0.0,0.0,0.0,0.0,0.0,0.0,0.0,0.0,0.0,0.0,0.0,0.0,0.0,0.0,0.0,1.3271,0.0,0.0,0.0,0.0,0.0,0.0,0.0,0.0,0.0,0.0,1.353,1.4164,1.47,1.4692,0.0,0.0,0.0,0.0,1.4919,1.4115,1.3969,1.3985,1.4018,1.4278,1.4594,1.4919,0.0,0.0,1.552,1.5244,1.5098,1.5252,1.5577,1.5634,1.5122,1.4927,1.4822,1.4814,1.483,1.4781,1.4789,1.4984,1.5135,0.2348,0.0,0.0,0.0,0.0,0.2308,0.2342,0.2398,0.2397,0.2314,0.2373,0.239,0.0,0.0,0.0,0.0,0.0,0.0,0.2433,0.2477,0.2534,0.4481,0.7701,0.7701,0.9462,1.2827,1.2745,1.2521,1.2005,1.147,1.042,0.9018,0.0,0.0,0.0,0.0,1.2366,1.275,1.3839,1.4438,1.4592,1.4814,1.5045,1.5045,1.5045,1.5045,1.5045,1.4871,1.4781,1.4708,1.4464,0.0,0.0,0.0,0.0,0.0,0.0,0.0,0.0,0.0,0.0,0.0,0.0,0.0,0.0,0.0,0.0,0.0,0.0,0.0,1.2905,1.3417,1.3425,0.0,0.0,0.0,0.0,0.0,0.0,0.0,0.0,0.0,1.4513,1.4505,1.4513,0.0,0.0,1.4343,1.4091,1.4513,1.4903,1.5033,1.5049,0.0,1.5561,1.5382,1.5236,1.5342,1.5658,1.5894,1.5812,1.6016,1.6137,1.6186,1.6276,1.6292,1.6162,1.6081,1.604,1.604,1.604,1.604,1.6048,1.6089,1.6105,0.2438,0.2401,0.2353,0.2346,0.2368,0.2369,0.2403,0.2459,0.2459,0.2446,0.2425,0.245,0.2413,0.2261,0.2346,0.0,0.0,0.0,0.2499,0.2568,0.2586,0.4478,0.7717,0.7885,0.9769,1.3051,1.3139,1.3105,1.3037,1.2773,1.1835,1.0396,0.0,0.0,1.1348,1.2072,1.2611,1.2962,1.3885,1.4438,1.4669,1.4964,1.5074,1.5074,1.5147,1.5147,1.5074,1.5147,1.5139,1.5033,1.4887,1.4562,0.0,0.0,0.0,0.0,0.0,0.0,0.0,0.0,0.0,0.0,0.0,1.2498,1.2117,0.0,0.0,0.0,1.3222,1.3344,1.3271,1.3587,0.0,0.0,0.0,0.0,0.0,0.0,0.0,1.3839,1.4473,1.4984,1.5155,1.4992,1.4911,1.5049,1.4944,1.4781,1.457,0.0,1.5382,1.5504,1.5512,1.5626,1.5934,1.5845,1.5772,1.5918,1.6105,1.6251,1.6267,1.6446,1.66,1.6674,1.669,1.6706,1.6779,1.6787,1.6738,1.6609,1.6584,1.6584,1.6584,1.6584,1.6584,0.2514,0.2504,0.2394,0.238,0.2429,0.2431,0.2463,0.2514,0.2514,0.2482,0.2436,0.2489,0.2453,0.2276,0.2376,0.0,0.2477,0.2507,0.2566,0.2565,0.2567,0.4491,0.7964,0.7964,0.9888,1.3397,1.3397,1.3329,1.3173,1.2752,1.2461,1.2305,1.2217,1.1985,1.1647,1.2325,1.2933,1.3334,1.4014,1.4568,1.4992,1.5155,1.5166,1.526,1.5423,1.5431,1.5198,1.5423,1.552,1.5528,1.5212,1.5009,1.4935,0.0,0.0,0.0,0.0,0.0,0.0,0.0,0.0,0.0,0.0,0.0,0.0,0.0,0.0,0.0,1.3985,0.0,1.4002,1.3847,0.0,0.0,0.0,1.3937,1.4635,1.4732,1.4814,1.4968,0.0,0.0,1.5553,1.5577,1.5715,1.6081,1.6194,1.6064,1.5585,1.5926,1.6129,1.5675,1.5634,1.5658,1.5813,1.5991,1.6259,1.6535,1.6625,1.6625,1.6625,1.6625,1.6698,1.6844,1.6782,1.6917,1.708,1.708,1.7015,1.6698,1.6633,1.6633,1.6649,1.6649,1.6657,0.2514,0.2512,0.2482,0.248,0.2492,0.2493,0.2502,0.2514,0.2514,0.2506,0.2493,0.2508,0.2499,0.2472,0.2478,0.2503,0.2619,0.2568,0.2605,0.2565,0.2671,0.4609,0.7964,0.7968,0.9888,1.3231,1.3397,1.3383,1.3336,1.3017,1.2718,1.2447,1.2491,1.2279,1.1993,1.2482,1.3072,1.3706,1.4148,1.4613,1.5155,1.522,1.5301,1.5447,1.5488,1.5496,1.5455,1.5496,1.5577,1.5699,1.5626,1.5398,1.5053,1.4164,0.0,0.0,0.0,0.0,0.0,0.0,0.0,0.0,0.0,1.2596,1.219,0.0,1.3035,0.0,1.4164,1.4765,1.4732,1.4684,0.0,0.0,1.4026,1.4066,1.4643,1.4952,1.513,1.5171,1.5577,1.5837,1.6089,1.6113,1.63,1.6771,1.6186,1.5658,1.5545,1.5967,1.6267,1.6178,1.6446,1.673,1.6698,1.6795,1.6868,1.6966,1.6982,1.6982,1.6982,1.699,1.6998,1.7039,1.7047,1.7071,1.7104,1.7112,1.7088,1.7006,1.6982,1.6982,1.6982,1.6982,1.6982,0.2514,0.2514,0.2514,0.2514,0.2514,0.2514,0.2514,0.2514,0.2514,0.2514,0.2514,0.2514,0.2514,0.2514,0.2514,0.2537,0.2578,0.2594,0.2626,0.2668,0.3521,0.5373,0.8052,0.8799,1.0637,1.3321,1.3397,1.3397,1.3383,1.3105,1.2874,1.2698,1.2637,1.2482,1.2335,1.2611,1.3066,1.3548,1.4218,1.4773,1.522,1.5398,1.5407,1.5277,1.535,1.5244,1.4935,1.4992,1.5041,1.5065,1.5065,1.496,1.4732,1.3977,1.3401,0.0,0.0,0.0,0.0,0.0,0.0,0.0,0.0,0.0,0.0,0.0,1.3457,1.3457,1.4448,1.4992,1.4757,1.4806,1.4862,1.4887,1.4724,1.4862,1.5472,1.5642,1.5772,1.5861,1.6135,1.6386,1.6641,1.6665,1.6763,1.7071,1.66,1.6227,1.6243,1.6487,1.6665,1.6674,1.6917,1.7112,1.7112,1.7112,1.7112,1.7112,1.7112,1.7112,1.7112,1.7112,1.7112,1.7112,1.7112,1.7112,1.7112,1.7112,1.7112,1.7112,1.7112,1.7112,1.7112,1.7112,1.7112,0.2514,0.2514,0.2514,0.2514,0.2514,0.2514,0.2514,0.2514,0.2514,0.2514,0.2514,0.2514,0.2514,0.2514,0.2514,0.2547,0.2601,0.2601,0.2634,0.2775,0.4283,0.6124,0.8052,0.9638,1.1392,1.3403,1.3397,1.3397,1.339,1.3105,1.2942,1.2888,1.2674,1.2526,1.2526,1.2685,1.2968,1.3404,1.4186,1.4838,1.5085,1.5431,1.535,1.4927,1.5049,1.4846,1.4253,1.4351,1.4367,1.4221,1.4213,1.431,1.4497,1.3709,1.3336,0.0,1.2905,0.0,0.0,0.0,0.0,0.0,0.0,0.0,0.0,1.3953,1.4002,1.4066,1.4806,1.5029,1.4708,1.4838,1.5195,1.5788,1.574,1.5902,1.6487,1.6454,1.6495,1.6733,1.6868,1.695,1.7063,1.7112,1.7112,1.7104,1.7071,1.7006,1.708,1.7063,1.7071,1.7112,1.7112,1.7112,1.7112,1.7112,1.7112,1.7112,1.7112,1.7112,1.7112,1.7112,1.7112,1.7112,1.7112,1.7112,1.7112,1.7112,1.7112,1.7112,1.7112,1.7112,1.7112,1.7112,1.7112,0.2514,0.2514,0.2514,0.2514,0.2514,0.2514,0.2514,0.2514,0.2514,0.2514,0.2514,0.2514,0.2514,0.2514,0.2514,0.2545,0.2601,0.2601,0.2634,0.2692,0.3027,0.4954,0.7968,0.8386,1.0221,1.3231,1.3397,1.3397,1.3397,1.3105,1.2834,1.2583,1.2595,1.2437,1.2221,0.0,0.0,0.0,1.4212,1.4586,1.4789,1.4594,1.4497,1.4529,1.4562,0.0,1.4399,1.4342,1.4416,1.4383,1.4383,0.0,0.0,0.0,0.0,0.0,0.0,0.0,0.0,0.0,0.0,0.0,1.4237,1.4164,1.4131,1.4253,1.4513,1.4944,1.5277,1.5601,1.5918,1.6113,1.6276,1.6405,1.6397,1.6438,1.6576,1.6674,1.6693,1.6758,1.6974,1.7071,1.7104,1.7112,1.7112,1.7112,1.7112,1.7112,1.7112,1.7112,1.7112,1.7112,1.7112,1.7112,1.7112,1.7112,1.7112,1.7112,1.7112,1.7112,1.7112,1.7112,1.7112,1.7112,1.7112,1.7112,1.7112,1.7112,1.7112,1.7112,1.7112,1.7112,1.7112,1.7112,1.7112,0.2514,0.0,0.2514,0.2514,0.0,0.2514,0.2514,0.2514,0.2514,0.2514,0.2514,0.2514,0.2514,0.2514,0.2514,0.2547,0.2601,0.2601,0.3126,0.4031,0.4954,0.671,0.9388,1.0221,1.1641,1.3397,1.3397,1.3397,1.3383,1.3105,1.2881,1.2725,1.2657,1.258,1.2582,1.3245,1.3726,1.4082,1.4487,1.4871,1.5212,1.5147,1.5017,1.4838,1.483,0.0,0.0,0.0,0.0,0.0,0.0,0.0,0.0,1.4424,0.0,1.4667,1.4359,1.4318,1.4667,1.47,1.4854,1.5195,1.5228,1.5082,1.4732,1.5025,1.5263,1.561,1.5796,1.6048,1.6405,1.6609,1.6714,1.6714,1.6714,1.6714,1.6722,1.6795,1.6798,1.6974,1.7055,1.7112,1.7112,1.7112,1.7112,1.7112,1.7112,1.7112,1.7112,1.7112,1.7112,1.7112,1.7112,1.7112,1.7112,1.7112,1.7112,1.7112,1.7112,1.7112,1.7112,1.7112,1.7112,1.7112,1.7112,1.7112,1.7112,1.7112,1.7112,1.7112,1.7112,1.7112,1.7112,1.7112,1.7112,0.253,0.253,0.253,0.253,0.253,0.2529,0.2527,0.2522,0.0,0.0,0.0,0.2514,0.2514,0.2514,0.2514,0.2544,0.2593,0.26,0.3451,0.4937,0.6703,0.8465,1.0304,1.2063,1.3065,1.3397,1.3397,1.3383,1.3349,1.3112,1.307,1.2942,1.2705,1.2816,1.3283,1.4059,1.4492,1.4568,1.4774,1.5147,1.561,1.5715,1.5553,1.5106,1.5098,1.481,1.4448,1.4432,1.4432,1.4432,1.4302,1.4335,1.4554,1.444,1.4473,1.4692,1.4716,1.4911,1.5342,1.5303,1.5489,1.6016,1.5966,1.578,1.5407,1.5707,1.5982,1.6089,1.6251,1.643,1.6617,1.6787,1.6893,1.6806,1.6901,1.6822,1.6855,1.695,1.7015,1.7128,1.7169,1.7145,1.712,1.7112,1.7112,1.7112,1.7112,1.7112,1.7112,1.7112,1.7112,1.7112,1.7112,1.7112,1.7112,1.7112,1.7112,1.7112,1.7112,1.7112,1.7112,1.7112,1.712,1.7177,1.7161,1.7185,1.7201,1.7226,1.7201,1.7201,1.7201,1.7201,1.7201,1.7201,1.7193,0.2589,0.2589,0.259,0.2589,0.2589,0.259,0.2577,0.2552,0.2526,0.2514,0.2514,0.2514,0.2514,0.2514,0.2514,0.2533,0.2567,0.259,0.2784,0.3067,0.4932,0.671,0.847,1.0221,1.189,1.3314,1.3397,1.3336,1.3214,1.3166,1.3085,1.305,1.2915,1.3286,1.4003,1.4559,1.5177,1.5674,1.5045,1.4854,1.5065,1.4806,1.4627,1.4554,1.4495,1.4513,1.4432,1.4448,1.4432,1.4432,1.4408,1.4619,1.509,1.5098,1.5309,1.5691,1.574,1.5772,1.5845,1.5934,1.5885,1.595,1.5966,1.5933,1.5943,1.5917,1.6105,1.6251,1.6438,1.6617,1.6795,1.6966,1.7063,1.7071,1.7071,1.7136,1.7274,1.7299,1.7307,1.7331,1.7348,1.7274,1.7145,1.7112,1.7112,1.7112,1.7112,1.7112,1.7112,1.7112,1.7112,1.7112,1.7112,1.7112,1.7112,1.7112,1.7112,1.7112,1.712,1.7136,1.7136,1.7153,1.7201,1.7323,1.7348,1.7396,1.751,1.7567,1.7534,1.7526,1.7526,1.7534,1.7526,1.7526,1.7453,0.2601,0.2601,0.2601,0.2601,0.2601,0.2601,0.2594,0.2582,0.2567,0.2544,0.2515,0.2514,0.2514,0.2514,0.2514,0.254,0.2583,0.2596,0.3118,0.4248,0.5942,0.7714,0.9388,1.0304,1.1641,1.3238,1.2395,1.2446,1.3213,1.3214,1.3139,1.3152,1.3479,1.4033,1.4758,1.5168,1.5666,1.6162,1.5691,1.5561,1.5829,1.5683,1.5545,1.5455,1.5447,1.5398,1.5231,1.5309,1.5231,1.5309,1.5309,1.5423,1.5578,1.5675,1.5707,1.5942,1.5966,1.5966,1.5966,1.6129,1.6186,1.6186,1.6284,1.6341,1.6332,1.6243,1.6259,1.6438,1.6625,1.6763,1.6766,1.7006,1.7112,1.7112,1.7193,1.7299,1.738,1.7478,1.7486,1.7404,1.7388,1.7315,1.7136,1.7112,1.7112,1.7112,1.7112,1.7112,1.7112,1.7112,1.7112,1.7112,1.7112,1.7112,1.7112,1.7112,1.7112,1.7112,1.7201,1.725,1.7274,1.7323,1.7421,1.7502,1.7526,1.7551,1.764,1.764,1.764,1.764,1.764,1.764,1.764,1.764,1.7575,0.2622,0.2622,0.2622,0.2622,0.2622,0.2615,0.2612,0.2611,0.2604,0.2577,0.2537,0.2534,0.2534,0.2534,0.2534,0.2559,0.2598,0.2609,0.3376,0.4846,0.662,0.8131,0.955,1.0221,1.1475,1.2561,1.1724,1.2044,1.3177,1.3261,1.3302,1.3459,1.3996,1.4642,1.526,1.5707,1.6048,1.6341,1.6276,1.6341,1.6568,1.6584,1.6503,1.6381,1.6357,1.63,1.6178,1.6162,1.617,1.6162,1.6162,1.6162,1.617,1.617,1.617,1.6162,1.6162,1.617,1.617,1.6284,1.6365,1.6365,1.6495,1.6592,1.6625,1.6511,1.6487,1.6633,1.6771,1.6774,1.6933,1.7071,1.7169,1.7185,1.7299,1.7404,1.7445,1.7526,1.7534,1.7404,1.7388,1.7315,1.7169,1.7112,1.7112,1.7112,1.7112,1.7112,1.7112,1.7112,1.7112,1.7112,1.7112,1.7112,1.7112,1.7161,1.7177,1.7177,1.7323,1.7421,1.7461,1.7559,1.7656,1.7681,1.7705,1.7737,1.7754,1.7778,1.7786,1.7802,1.7802,1.7786,1.7794,1.7794,1.7721,0.2683,0.2684,0.2682,0.2684,0.2679,0.2654,0.2561,0.2557,0.2615,0.26,0.2594,0.2593,0.2593,0.2594,0.2592,0.2596,0.2605,0.2631,0.2729,0.3152,0.4762,0.5706,0.6372,0.9216,1.0809,1.1142,1.2312,1.2916,1.3227,1.3322,1.3624,1.4045,1.4436,1.4923,1.5381,1.5929,1.6357,1.6552,1.6706,1.6714,1.6584,1.6584,1.6576,1.656,1.656,1.6552,1.6511,1.6527,1.6527,1.6527,1.6519,1.6519,1.6527,1.6527,1.6527,1.6519,1.6527,1.6535,1.6527,1.6544,1.6552,1.6552,1.6576,1.6665,1.6812,1.6812,1.6717,1.6758,1.6766,1.6855,1.7071,1.725,1.7356,1.7364,1.7396,1.7445,1.7567,1.7494,1.7404,1.7388,1.7388,1.7315,1.7153,1.7112,1.7112,1.7112,1.7112,1.7112,1.7112,1.7112,1.7112,1.7112,1.7112,1.712,1.7145,1.7258,1.7331,1.7364,1.7502,1.7599,1.7632,1.7648,1.7689,1.7867,1.7892,1.7932,1.8038,1.8127,1.8103,1.8046,1.8062,1.8103,1.8119,1.8095,1.7989,0.2692,0.2692,0.2692,0.2692,0.269,0.2679,0.2673,0.2672,0.2661,0.2656,0.2656,0.2656,0.2635,0.2602,0.2601,0.2611,0.263,0.2559,0.2657,0.284,0.4526,0.5371,0.5706,0.7881,0.9638,1.0637,1.1475,1.2363,1.3164,1.3376,1.3694,1.4187,1.4612,1.5043,1.5393,1.6158,1.6543,1.6451,1.6792,1.6966,1.6901,1.6893,1.6844,1.6755,1.6738,1.6682,1.6592,1.6584,1.6584,1.6584,1.6584,1.6584,1.6584,1.6584,1.6584,1.6584,1.6584,1.6584,1.6584,1.6682,1.6738,1.6747,1.6836,1.6933,1.6998,1.7006,1.7047,1.7153,1.7169,1.7201,1.7283,1.7437,1.7534,1.7551,1.7632,1.7689,1.764,1.7672,1.764,1.7437,1.7388,1.7315,1.7161,1.7112,1.7112,1.7112,1.7112,1.7112,1.7112,1.7112,1.7112,1.7128,1.7201,1.7266,1.7283,1.7331,1.7429,1.7534,1.7689,1.7802,1.7811,1.7908,1.7989,1.8054,1.8054,1.8079,1.8144,1.8176,1.8176,1.8176,1.8176,1.8176,1.8176,1.8176,1.8087,0.2692,0.2692,0.2692,0.2692,0.2692,0.2692,0.2692,0.2692,0.2692,0.2692,0.2692,0.2692,0.2668,0.2631,0.2627,0.2639,0.2658,0.2658,0.2671,0.2859,0.4117,0.4619,0.487,0.6961,0.872,0.9971,1.1059,1.2146,1.3321,1.3451,1.377,1.428,1.4674,1.5068,1.5534,1.6294,1.6562,1.6586,1.6904,1.7112,1.7104,1.7112,1.7047,1.6942,1.6925,1.686,1.6738,1.6722,1.6722,1.6722,1.6722,1.6722,1.6722,1.673,1.6722,1.6722,1.6722,1.6722,1.673,1.6852,1.6925,1.6933,1.7047,1.7136,1.7177,1.7185,1.7266,1.7429,1.7502,1.7518,1.7478,1.7616,1.7713,1.7729,1.7843,1.7843,1.7681,1.7737,1.7632,1.7372,1.7291,1.7266,1.7145,1.7112,1.7112,1.7112,1.7112,1.7112,1.7112,1.7112,1.712,1.7177,1.7307,1.7372,1.7396,1.751,1.7583,1.7697,1.7867,1.7989,1.7989,1.8103,1.8168,1.8119,1.816,1.8176,1.8176,1.8176,1.8176,1.8176,1.8176,1.8176,1.8176,1.8176,1.8176,0.2692,0.2692,0.2692,0.2692,0.2692,0.2692,0.2692,0.2692,0.2692,0.2692,0.2692,0.2692,0.269,0.2684,0.2682,0.2687,0.269,0.2688,0.2688,0.2692,0.2859,0.2861,0.3111,0.6295,0.8052,0.8632,1.1647,1.3148,1.341,1.3539,1.3866,1.4301,1.4529,1.5042,1.5708,1.6105,1.6333,1.6735,1.6952,1.7112,1.7112,1.7112,1.7104,1.7088,1.7096,1.708,1.7071,1.708,1.708,1.708,1.7063,1.7071,1.708,1.7071,1.7063,1.7071,1.7071,1.7071,1.7063,1.7071,1.7096,1.7104,1.712,1.7193,1.7356,1.7372,1.7453,1.7616,1.777,1.7794,1.7689,1.7802,1.79,1.79,1.7916,1.7843,1.7672,1.7551,1.7348,1.7193,1.7161,1.7145,1.7112,1.7112,1.7112,1.7112,1.7112,1.7112,1.7112,1.7112,1.7193,1.7315,1.7388,1.7396,1.7429,1.7616,1.7819,1.7924,1.8014,1.8144,1.816,1.8168,1.8176,1.8176,1.8176,1.8176,1.8176,1.8176,1.8176,1.8176,1.8176,1.8176,1.8176,1.8176,1.8176,0.2692,0.2692,0.2692,0.2692,0.2692,0.2692,0.2692,0.2692,0.2692,0.2692,0.2692,0.2692,0.2692,0.2692,0.2692,0.2692,0.2692,0.2692,0.2692,0.2692,0.2692,0.2692,0.3111,0.6295,0.7968,0.8553,1.1641,1.3397,1.3417,1.3553,1.3759,1.4117,1.4772,1.5241,1.5431,1.6284,1.6665,1.6586,1.6904,1.7112,1.7112,1.7112,1.7112,1.7112,1.7112,1.7112,1.7112,1.7112,1.7112,1.7112,1.7112,1.7112,1.7112,1.7112,1.7112,1.7112,1.7112,1.7112,1.7112,1.7112,1.7169,1.7274,1.7291,1.7364,1.751,1.7551,1.7624,1.7786,1.7867,1.7908,1.7989,1.8046,1.8087,1.8079,1.8079,1.8005,1.7835,1.7656,1.7486,1.7315,1.7193,1.7112,1.7112,1.7112,1.7112,1.7112,1.7112,1.7112,1.7136,1.7201,1.7307,1.7404,1.7575,1.7729,1.7729,1.7811,1.794,1.8046,1.8144,1.816,1.8176,1.8176,1.8176,1.8176,1.8176,1.8176,1.8176,1.8176,1.8176,1.8176,1.8176,1.8176,1.8176,1.8176,1.8176,0.2692,0.2692,0.2692,0.2692,0.2692,0.2692,0.2692,0.2692,0.2692,0.2692,0.2692,0.2692,0.2692,0.2692,0.2692,0.2692,0.2692,0.2692,0.2692,0.2692,0.2692,0.2692,0.3279,0.6295,0.7968,0.8553,1.1641,1.3424,1.3492,1.3627,1.377,1.4005,1.4764,1.5155,1.5337,1.6233,1.6577,1.6665,1.6928,1.7112,1.7112,1.7112,1.7112,1.7112,1.7112,1.7112,1.7112,1.7112,1.7112,1.7112,1.7112,1.7112,1.7112,1.7112,1.7112,1.7112,1.7112,1.7136,1.7193,1.7201,1.7274,1.7445,1.7478,1.7543,1.7705,1.7729,1.7819,1.7949,1.7997,1.8062,1.8135,1.8176,1.8176,1.8176,1.8176,1.8103,1.7932,1.7746,1.7543,1.7323,1.7177,1.712,1.7112,1.7112,1.7112,1.7112,1.7112,1.712,1.721,1.7299,1.7453,1.7551,1.7754,1.79,1.7949,1.8005,1.803,1.8119,1.8152,1.8168,1.8176,1.8176,1.8176,1.8176,1.8176,1.8176,1.8176,1.8176,1.8176,1.8176,1.8176,1.8176,1.8176,1.8176,1.8176,0.2692,0.2692,0.2692,0.2692,0.2692,0.2692,0.2692,0.2692,0.2692,0.2692,0.2692,0.2692,0.2692,0.2692,0.2692,0.2692,0.2692,0.2692,0.2692,0.2692,0.2692,0.2777,0.3195,0.6379,0.8303,0.872,1.1724,1.3471,1.3593,1.3658,1.3899,1.4055,1.4373,1.4977,1.5704,1.5881,1.6321,1.6841,1.7112,1.7112,1.7112,1.7112,1.7112,1.7112,1.7112,1.7112,1.7112,1.7112,1.7112,1.7112,1.7112,1.7112,1.7112,1.7112,1.7112,1.7128,1.7128,1.721,1.7364,1.7388,1.7461,1.7607,1.764,1.7721,1.7875,1.7916,1.7981,1.8111,1.8152,1.8168,1.8168,1.8176,1.8176,1.8176,1.8176,1.8103,1.7949,1.7754,1.751,1.7218,1.7112,1.7112,1.7112,1.7112,1.712,1.7145,1.7153,1.721,1.7364,1.7437,1.7567,1.7786,1.7932,1.8005,1.8095,1.8176,1.8168,1.8176,1.8176,1.8176,1.8176,1.8176,1.8176,1.8176,1.8176,1.8176,1.8176,1.8176,1.8176,1.8176,1.8176,1.8184,1.8176,1.8176,1.8176,0.2692,0.2692,0.2692,0.2692,0.2692,0.2692,0.2692,0.2692,0.2692,0.2692,0.2692,0.2692,0.2692,0.2692,0.2692,0.2692,0.2692,0.2692,0.2692,0.2692,0.2692,0.3363,0.4787,0.6878,0.9304,1.1475,1.2816,1.3424,1.3512,1.3722,1.3871,1.4032,1.4783,1.5344,1.5704,1.6321,1.6849,1.7024,1.7112,1.7112,1.7112,1.7112,1.7112,1.7112,1.7112,1.7112,1.7112,1.7112,1.7112,1.712,1.7112,1.7112,1.7112,1.7112,1.7177,1.7283,1.7299,1.738,1.7526,1.7567,1.764,1.7786,1.7827,1.7916,1.8062,1.8087,1.8111,1.8176,1.8176,1.8176,1.8176,1.8176,1.8176,1.8176,1.8176,1.8152,1.8038,1.7819,1.7502,1.7193,1.7112,1.7112,1.7112,1.7112,1.7169,1.7266,1.7291,1.7364,1.7526,1.7656,1.7762,1.7908,1.8005,1.8087,1.8144,1.8176,1.8176,1.8176,1.8176,1.8176,1.8176,1.8176,1.8176,1.8176,1.8176,1.8176,1.8176,1.82,1.8217,1.8208,1.8217,1.8208,1.8184,1.8208,1.8265,0.2727,0.2727,0.2727,0.2725,0.2727,0.2727,0.2727,0.2724,0.2714,0.2709,0.2707,0.2697,0.2692,0.2692,0.2692,0.2692,0.2692,0.2692,0.2692,0.2692,0.2692,0.3698,0.5622,0.7964,1.0471,1.2899,1.3397,1.3431,1.3498,1.3631,1.3871,1.4139,1.4958,1.5528,1.5712,1.6471,1.7033,1.7218,1.7283,1.7307,1.7307,1.7307,1.7307,1.7307,1.7307,1.7307,1.7307,1.7307,1.7274,1.7242,1.7274,1.7307,1.7307,1.7315,1.7356,1.7445,1.7494,1.7559,1.7713,1.7746,1.7819,1.7973,1.8014,1.8054,1.8152,1.8176,1.8176,1.8176,1.8176,1.8176,1.8176,1.8176,1.8176,1.8176,1.8176,1.8111,1.7989,1.7786,1.7494,1.7218,1.7112,1.7112,1.7112,1.7193,1.725,1.7372,1.7445,1.7543,1.7705,1.7835,1.7916,1.7989,1.8087,1.8144,1.8168,1.8176,1.8176,1.8176,1.8176,1.8176,1.8176,1.8176,1.8176,1.8176,1.8176,1.8176,1.8176,1.8273,1.8314,1.829,1.8314,1.8403,1.846,1.8436,1.8452,0.2782,0.2784,0.2782,0.278,0.2778,0.2778,0.2776,0.2776,0.2752,0.274,0.2735,0.2717,0.2703,0.2701,0.2707,0.2707,0.2699,0.2705,0.2707,0.2791,0.3043,0.4136,0.6143,0.9342,1.1795,1.3215,1.3458,1.3519,1.3641,1.3804,1.3926,1.4148,1.4819,1.5256,1.5727,1.6387,1.6967,1.7331,1.7494,1.7567,1.7575,1.7607,1.7616,1.7607,1.7599,1.7599,1.7583,1.7607,1.7559,1.7445,1.7526,1.7591,1.7624,1.764,1.7616,1.7648,1.7656,1.7754,1.7884,1.7932,1.7989,1.8127,1.8152,1.8176,1.8176,1.8176,1.8176,1.8176,1.8176,1.8176,1.8176,1.8176,1.8176,1.8176,1.8176,1.8038,1.7713,1.7648,1.7478,1.721,1.7112,1.712,1.7145,1.7283,1.7372,1.7478,1.7583,1.7729,1.7875,1.7981,1.8022,1.8087,1.816,1.8168,1.8176,1.8176,1.8176,1.8176,1.8176,1.8184,1.8184,1.8184,1.8225,1.8217,1.8233,1.8217,1.8265,1.8395,1.846,1.8468,1.855,1.8688,1.8696,1.8631,1.8598,0.2784,0.2784,0.2784,0.2784,0.2784,0.2784,0.2784,0.2782,0.2776,0.2772,0.2769,0.2763,0.2757,0.2759,0.2758,0.2759,0.2755,0.2757,0.2759,0.3018,0.4306,0.5819,0.8001,1.1193,1.3115,1.3624,1.3695,1.3749,1.3797,1.3926,1.4021,1.4162,1.5008,1.5528,1.5808,1.6552,1.7001,1.721,1.7372,1.7478,1.7502,1.7607,1.764,1.764,1.7656,1.7656,1.7664,1.777,1.7754,1.7591,1.7607,1.764,1.7664,1.7664,1.7721,1.7819,1.7851,1.7916,1.8054,1.8103,1.8127,1.8168,1.8176,1.8176,1.8176,1.8176,1.8176,1.8176,1.8176,1.8176,1.8176,1.8176,1.8176,1.8176,1.8168,1.8022,1.7737,1.7632,1.7502,1.7185,1.712,1.7177,1.7274,1.738,1.7502,1.7697,1.7811,1.7892,1.8022,1.8079,1.8111,1.8127,1.8176,1.8176,1.8176,1.8176,1.8176,1.8176,1.8184,1.8192,1.82,1.8208,1.8282,1.8338,1.8387,1.8387,1.8509,1.8639,1.8647,1.8655,1.872,1.8809,1.8761,1.8704,1.8712,0.2821,0.2822,0.2821,0.2822,0.2822,0.2821,0.2821,0.2819,0.2807,0.2801,0.28,0.2788,0.2784,0.2784,0.2784,0.2784,0.2784,0.2784,0.2782,0.3305,0.5575,0.7713,0.9811,1.26,1.3752,1.3752,1.3844,1.3752,1.3865,1.3994,1.4061,1.427,1.5184,1.5704,1.58,1.6664,1.7266,1.7356,1.751,1.764,1.7721,1.7811,1.7859,1.7867,1.7859,1.7867,1.7884,1.7973,1.794,1.7819,1.7819,1.7867,1.7867,1.7867,1.7916,1.8022,1.8022,1.807,1.8144,1.8176,1.8176,1.8176,1.8176,1.8176,1.8176,1.8176,1.8176,1.8176,1.8176,1.8176,1.8176,1.8176,1.8176,1.8168,1.8111,1.7957,1.7582,1.764,1.7469,1.725,1.7185,1.7258,1.7388,1.7502,1.7689,1.7867,1.7973,1.8054,1.8144,1.8168,1.8176,1.8176,1.8176,1.8176,1.8184,1.8192,1.8233,1.8233,1.8338,1.8322,1.8322,1.8338,1.8436,1.8525,1.855,1.8606,1.8712,1.8801,1.8834,1.8842,1.8891,1.8923,1.8923,1.8874,1.8874,0.2874,0.2874,0.2874,0.2874,0.2871,0.2874,0.2868,0.2867,0.2844,0.2833,0.2829,0.2804,0.2803,0.2793,0.2804,0.2796,0.2796,0.2803,0.3322,0.4555,0.6848,0.9385,1.1583,1.3063,1.3853,1.3933,1.3899,1.3912,1.3966,1.4061,1.4095,1.4318,1.5125,1.5609,1.5911,1.675,1.7364,1.7567,1.7746,1.79,1.8005,1.807,1.8103,1.8103,1.8111,1.8119,1.8127,1.8152,1.8095,1.7949,1.8095,1.8127,1.8152,1.816,1.816,1.8152,1.8152,1.816,1.8176,1.8176,1.8176,1.8176,1.8176,1.8176,1.8176,1.8176,1.8176,1.8176,1.8176,1.8176,1.8176,1.8176,1.8176,1.8152,1.803,1.7851,1.7721,1.7656,1.751,1.7218,1.7307,1.7396,1.7518,1.7689,1.7924,1.7981,1.807,1.8119,1.816,1.8168,1.8176,1.8176,1.8176,1.8176,1.8192,1.82,1.8265,1.8322,1.8509,1.8566,1.8574,1.8598,1.8671,1.8736,1.8744,1.8785,1.8858,1.8931,1.898,1.9029,1.9069,1.9159,1.9224,1.9134,1.9102,0.2874,0.2874,0.2874,0.2874,0.2874,0.2874,0.2874,0.2874,0.2867,0.2861,0.2861,0.2856,0.2852,0.2852,0.2849,0.2855,0.2849,0.3027,0.4366,0.7382,0.7921,1.0593,1.2953,1.4089,1.4183,1.4183,1.419,1.419,1.4204,1.4197,1.4245,1.4339,1.4875,1.5352,1.5815,1.6468,1.7031,1.7404,1.7754,1.7924,1.8014,1.8127,1.8176,1.8176,1.8176,1.8176,1.8176,1.8176,1.816,1.8144,1.8152,1.8176,1.8176,1.8176,1.8176,1.8176,1.8176,1.8176,1.8176,1.8176,1.8176,1.8176,1.8176,1.8176,1.8176,1.8176,1.8176,1.8176,1.8176,1.8176,1.8176,1.8176,1.816,1.8119,1.8005,1.7884,1.7835,1.7721,1.7543,1.7429,1.7478,1.764,1.777,1.7827,1.7981,1.8087,1.8135,1.8168,1.8176,1.8176,1.8176,1.8176,1.8176,1.8192,1.8273,1.833,1.8444,1.8509,1.8663,1.8809,1.8818,1.8809,1.8866,1.8899,1.8923,1.8972,1.9021,1.9094,1.9151,1.9199,1.9224,1.924,1.9264,1.9264,1.9256,0.2874,0.2874,0.2874,0.2874,0.2874,0.2874,0.2874,0.2874,0.2874,0.2874,0.2874,0.2874,0.2874,0.2874,0.2874,0.2874,0.2874,0.2964,0.493,0.7781,0.8765,1.0728,1.3584,1.4299,1.4299,1.4299,1.4292,1.4299,1.4299,1.4299,1.4292,1.4387,1.4999,1.544,1.5793,1.6422,1.708,1.742,1.7681,1.7851,1.803,1.8119,1.8176,1.8176,1.8176,1.8176,1.8176,1.8176,1.8176,1.8176,1.8176,1.8176,1.8176,1.8176,1.8176,1.8176,1.8176,1.8176,1.8176,1.8176,1.8176,1.8176,1.8176,1.8176,1.8176,1.8176,1.8176,1.8176,1.8176,1.8176,1.8168,1.8079,1.807,1.8022,1.79,1.7794,1.7778,1.7697,1.7616,1.7559,1.7664,1.7786,1.7892,1.7965,1.8038,1.8144,1.8144,1.8176,1.8176,1.8176,1.8176,1.8176,1.8176,1.8225,1.8338,1.8468,1.8655,1.8736,1.885,1.898,1.9053,1.9037,1.9029,1.9053,1.9077,1.9126,1.9183,1.9248,1.9264,1.9248,1.9248,1.9256,1.9264,1.9264,1.9264,0.2874,0.2874,0.2874,0.2874,0.2874,0.2874,0.2874,0.2874,0.2874,0.2874,0.2874,0.2874,0.2874,0.2874,0.2874,0.2874,0.2964,0.359,0.5644,0.823,0.9241,1.1303,1.3731,1.4387,1.4407,1.4367,1.4319,1.4306,1.4299,1.4299,1.4299,1.4476,1.5087,1.5528,1.5881,1.6544,1.7121,1.7436,1.7681,1.7835,1.8062,1.8135,1.8176,1.8176,1.8176,1.8176,1.8176,1.8176,1.8176,1.8176,1.8176,1.8176,1.8176,1.8176,1.8176,1.8176,1.8176,1.8176,1.8176,1.8176,1.8176,1.8176,1.8176,1.8176,1.8176,1.8176,1.8176,1.8176,1.8176,1.816,1.8127,1.803,1.7949,1.7892,1.7762,1.7681,1.7713,1.7705,1.7697,1.7721,1.7835,1.7965,1.8014,1.807,1.8127,1.8176,1.8176,1.8176,1.8176,1.8192,1.82,1.8257,1.8282,1.8436,1.8574,1.8639,1.8826,1.8931,1.9029,1.9102,1.9207,1.9183,1.9151,1.9199,1.9232,1.9248,1.9248,1.9256,1.9264,1.9264,1.9264,1.9264,1.9264,1.9264,1.9264,0.2874,0.2874,0.2874,0.2874,0.2874,0.2874,0.2874,0.2874,0.2874,0.2874,0.2874,0.2874,0.2874,0.2874,0.2874,0.2875,0.3146,0.4314,0.6279,0.8709,1.0102,1.2394,1.404,1.457,1.4631,1.459,1.4462,1.434,1.4312,1.4299,1.4299,1.4476,1.4911,1.5352,1.583,1.6445,1.708,1.7428,1.7713,1.79,1.7981,1.8087,1.8168,1.8168,1.816,1.816,1.8176,1.8176,1.8176,1.8176,1.8176,1.8176,1.8176,1.8176,1.8176,1.8176,1.8176,1.8176,1.8176,1.8176,1.8176,1.8176,1.8176,1.8176,1.8176,1.8176,1.8176,1.8168,1.8152,1.8111,1.7973,1.7916,1.7916,1.7867,1.7794,1.7762,1.794,1.7949,1.7867,1.7884,1.8014,1.8111,1.8119,1.8127,1.8152,1.8176,1.8176,1.8176,1.8176,1.8217,1.8257,1.833,1.8412,1.8631,1.8842,1.8891,1.8988,1.9102,1.9175,1.9175,1.924,1.9248,1.9264,1.9264,1.9264,1.9256,1.9256,1.9264,1.9264,1.9264,1.9264,1.9264,1.9264,1.9264,1.9264,0.2874,0.2874,0.2874,0.2874,0.2874,0.2874,0.2874,0.2874,0.2874,0.2874,0.2874,0.2874,0.2874,0.2874,0.2874,0.2881,0.3433,0.4968,0.6877,0.8812,1.0861,1.28,1.445,1.4719,1.4726,1.4699,1.459,1.4475,1.4407,1.4333,1.4319,1.4476,1.4999,1.544,1.583,1.6661,1.7152,1.7551,1.777,1.7916,1.7924,1.8022,1.807,1.8144,1.8103,1.8087,1.8152,1.807,1.8095,1.8152,1.8176,1.8176,1.8176,1.8176,1.8176,1.8176,1.8176,1.8176,1.8176,1.8176,1.8176,1.8176,1.8176,1.8176,1.8176,1.8176,1.8176,1.816,1.807,1.8014,1.7932,1.7843,1.7778,1.7778,1.777,1.7867,1.7989,1.803,1.8038,1.8038,1.8103,1.8152,1.816,1.8168,1.8176,1.8176,1.8176,1.8192,1.82,1.8282,1.8371,1.8485,1.859,1.8785,1.8988,1.9053,1.9094,1.9199,1.9264,1.9264,1.9264,1.9264,1.9264,1.9264,1.9264,1.9264,1.9264,1.9264,1.9264,1.9264,1.9264,1.9264,1.9264,1.9264,1.9264,0.2874,0.2874,0.2874,0.2874,0.2874,0.2874,0.2874,0.2874,0.2874,0.2874,0.2874,0.2874,0.2874,0.2876,0.2883,0.2898,0.3197,0.5381,0.7502,0.9103,1.1538,1.3492,1.433,1.4821,1.4855,1.4875,1.4787,1.4706,1.4563,1.4475,1.4407,1.4688,1.5291,1.5809,1.6039,1.6868,1.7354,1.7648,1.7819,1.7924,1.7965,1.7973,1.803,1.8152,1.8038,1.8046,1.8144,1.8079,1.8079,1.8144,1.8176,1.8176,1.8176,1.8176,1.8176,1.8176,1.8176,1.8176,1.8176,1.8176,1.8176,1.8176,1.8176,1.8176,1.8176,1.8168,1.816,1.8111,1.807,1.7932,1.7851,1.777,1.7721,1.7746,1.7843,1.794,1.8014,1.8079,1.8135,1.8152,1.8176,1.8176,1.8176,1.8176,1.8176,1.8225,1.8225,1.8298,1.8322,1.8452,1.855,1.8663,1.8793,1.8956,1.9094,1.9159,1.9191,1.9232,1.9264,1.9264,1.9264,1.9264,1.9264,1.9264,1.9264,1.9264,1.9264,1.9264,1.9264,1.9264,1.9264,1.9264,1.9264,1.9264,1.9264,0.2874,0.2874,0.2874,0.2874,0.2874,0.2874,0.2874,0.2874,0.2874,0.2874,0.2874,0.2875,0.2875,0.2882,0.2902,0.2927,0.4142,0.6635,0.8577,0.9723,1.2656,1.4474,1.4964,1.5079,1.5072,1.5052,1.4984,1.4862,1.4746,1.4692,1.4665,1.4923,1.5535,1.6114,1.6258,1.7124,1.7533,1.7681,1.7827,1.7989,1.8103,1.8119,1.8127,1.8152,1.8135,1.8127,1.8152,1.8111,1.8127,1.816,1.8176,1.8176,1.8176,1.8176,1.8176,1.8176,1.8176,1.8176,1.8176,1.8176,1.8176,1.8176,1.8176,1.8176,1.8176,1.8168,1.8127,1.7965,1.8038,1.7989,1.7827,1.7819,1.7851,1.7884,1.7908,1.8014,1.8095,1.8103,1.8168,1.8176,1.8176,1.8176,1.8176,1.8176,1.8184,1.8233,1.829,1.8363,1.846,1.8598,1.8753,1.8874,1.8956,1.9102,1.9151,1.9224,1.924,1.9264,1.9264,1.9264,1.9264,1.9264,1.9264,1.9264,1.9264,1.9264,1.9264,1.9264,1.9264,1.9264,1.9264,1.9264,1.9264,1.9264,1.9264,0.2874,0.2874,0.2874,0.2874,0.2874,0.2874,0.2874,0.2874,0.2874,0.2874,0.2874,0.2874,0.2882,0.2902,0.2928,0.3603,0.5115,0.7724,0.9702,1.0948,1.3541,1.5086,1.5099,1.5147,1.5181,1.5167,1.5126,1.5079,1.4957,1.4821,1.4831,1.5202,1.5833,1.6355,1.6606,1.7389,1.7695,1.7827,1.7892,1.8005,1.8103,1.8095,1.8079,1.8168,1.8087,1.8103,1.8135,1.807,1.8095,1.8144,1.8176,1.8176,1.8176,1.8176,1.8176,1.8176,1.8176,1.8176,1.8176,1.8176,1.8176,1.8176,1.8176,1.8176,1.8176,1.8168,1.816,1.8087,1.803,1.794,1.7843,1.7867,1.79,1.7932,1.7997,1.8062,1.8144,1.816,1.8176,1.8176,1.8184,1.82,1.8225,1.8241,1.8273,1.8338,1.842,1.8509,1.8623,1.8769,1.8931,1.911,1.9159,1.9224,1.9232,1.9256,1.9248,1.9264,1.9264,1.9264,1.9264,1.9264,1.9264,1.9264,1.9264,1.9264,1.9264,1.9264,1.9264,1.9264,1.9264,1.9264,1.9264,1.9264,1.9256,0.2874,0.2874,0.2874,0.2874,0.2874,0.2874,0.2874,0.2874,0.2874,0.2874,0.2876,0.2883,0.2905,0.2936,0.3149,0.4013,0.6022,0.818,1.0183,1.2217,1.404,1.508,1.5167,1.5181,1.5181,1.5181,1.5167,1.5153,1.5099,1.4991,1.5066,1.5484,1.6085,1.6437,1.6911,1.754,1.7981,1.7989,1.7989,1.8062,1.8135,1.8062,1.8087,1.8103,1.8079,1.8046,1.8127,1.8079,1.8087,1.8144,1.8176,1.8176,1.8176,1.8176,1.8176,1.8176,1.8176,1.8176,1.8176,1.8176,1.8176,1.8176,1.8176,1.8176,1.8176,1.8176,1.8127,1.8079,1.807,1.7989,1.794,1.7949,1.7997,1.8046,1.8087,1.8144,1.8176,1.8176,1.8184,1.82,1.8225,1.8282,1.8306,1.8322,1.8371,1.8539,1.8541,1.8655,1.8801,1.8956,1.9053,1.9216,1.9232,1.9264,1.9264,1.9264,1.9264,1.9264,1.9264,1.9264,1.9264,1.9264,1.9264,1.9264,1.9264,1.9264,1.9264,1.9264,1.9264,1.9264,1.9264,1.9264,1.9264,1.9264,1.9256,0.2874,0.2874,0.2874,0.2874,0.2874,0.2874,0.2874,0.2874,0.2874,0.2875,0.2882,0.2905,0.2947,0.2986,0.3187,0.4242,0.6269,0.8167,1.0432,1.2422,1.4134,1.5087,1.5181,1.5181,1.5181,1.5181,1.5181,1.5181,1.5174,1.5133,1.5113,1.5334,1.619,1.6521,1.6987,1.7715,1.8119,1.8119,1.8119,1.8127,1.8168,1.8144,1.816,1.816,1.816,1.8168,1.8168,1.8144,1.8135,1.8176,1.8176,1.8176,1.8176,1.8176,1.8176,1.8176,1.8176,1.8176,1.8176,1.8176,1.8176,1.8176,1.8176,1.8176,1.8176,1.8176,1.8111,1.8022,1.807,1.8062,1.803,1.8038,1.8095,1.8119,1.8135,1.8152,1.8176,1.8176,1.8192,1.8217,1.8257,1.8306,1.8444,1.8485,1.8541,1.8615,1.8801,1.8923,1.9021,1.9151,1.9175,1.9248,1.9248,1.9264,1.9264,1.9264,1.9264,1.9264,1.9264,1.9264,1.9264,1.9264,1.9264,1.9264,1.9264,1.9264,1.9264,1.9264,1.9264,1.9264,1.9264,1.9264,1.9264,1.9264,1.9264,0.2874,0.2874,0.2874,0.2874,0.2874,0.2874,0.2874,0.2874,0.2874,0.2885,0.2902,0.2949,0.2984,0.3006,0.3312,0.4934,0.7701,0.8648,1.1107,1.3281,1.4892,1.5181,1.5181,1.5181,1.5181,1.5181,1.5181,1.5181,1.5181,1.5181,1.5181,1.5462,1.6213,1.6767,1.7336,1.7803,1.8083,1.8176,1.8176,1.8176,1.8176,1.8176,1.8176,1.8176,1.8176,1.8176,1.8176,1.8176,1.8176,1.8176,1.8176,1.8176,1.8176,1.8176,1.8176,1.8176,1.8176,1.8168,1.8168,1.8168,1.8176,1.8176,1.8176,1.8176,1.8176,1.8176,1.8152,1.8119,1.8119,1.8119,1.8119,1.8135,1.8168,1.8176,1.8176,1.8176,1.8176,1.8176,1.8217,1.8249,1.8282,1.833,1.8501,1.8663,1.8728,1.8801,1.9004,1.9167,1.9224,1.9264,1.9264,1.9264,1.9264,1.9264,1.9264,1.9264,1.9264,1.9264,1.9264,1.9264,1.9264,1.9264,1.9264,1.9264,1.9264,1.9264,1.9264,1.9264,1.9264,1.9264,1.9264,1.9264,1.9264,1.9264,1.9264,0.2882,0.2875,0.2874,0.2874,0.2874,0.2874,0.2874,0.2874,0.2874,0.2897,0.2932,0.2983,0.3013,0.3025,0.3135,0.533,0.808,0.9406,1.1773,1.3758,1.5087,1.5181,1.5181,1.5181,1.5181,1.5181,1.5181,1.5181,1.5181,1.5181,1.5181,1.5462,1.6025,1.6587,1.7242,1.7896,1.8176,1.8176,1.8176,1.8176,1.8176,1.8176,1.8176,1.8176,1.8176,1.8176,1.8176,1.8176,1.8176,1.8176,1.8176,1.8176,1.8176,1.8176,1.8176,1.8176,1.8168,1.816,1.8119,1.8152,1.8144,1.8087,1.8152,1.8168,1.8176,1.8176,1.816,1.8168,1.8168,1.8176,1.8176,1.8176,1.8176,1.8176,1.8176,1.8176,1.8176,1.8184,1.8241,1.829,1.8363,1.8485,1.8631,1.8826,1.8948,1.9004,1.9094,1.9216,1.9232,1.9264,1.9264,1.9264,1.9264,1.9264,1.9264,1.9264,1.9264,1.9264,1.9264,1.9264,1.9264,1.9264,1.9264,1.9264,1.9264,1.9264,1.9264,1.9264,1.9264,1.9264,1.9264,1.9281,1.9264,1.9264,1.9264,0.2898,0.2875,0.2874,0.2874,0.2874,0.2874,0.2874,0.2876,0.2881,0.2912,0.2961,0.2998,0.3025,0.3138,0.3337,0.5805,0.8459,0.9406,1.1485,1.4422,1.5181,1.5181,1.5181,1.5181,1.5181,1.5181,1.5181,1.5181,1.5181,1.5181,1.5181,1.5368,1.5744,1.6306,1.6774,1.7709,1.8176,1.8176,1.8176,1.8083,1.8176,1.8176,1.8083,1.8176,1.8176,1.8176,1.8176,1.8176,1.8176,1.8176,1.8176,1.8176,1.8176,1.8176,1.8176,1.8176,1.816,1.8079,1.7949,1.8087,1.8095,1.8038,1.8127,1.8168,1.8176,1.8176,1.8176,1.8176,1.8176,1.8176,1.8176,1.8176,1.8176,1.8176,1.8176,1.8176,1.8176,1.8184,1.8233,1.8371,1.8566,1.8728,1.8842,1.898,1.9142,1.9224,1.9248,1.9264,1.9264,1.9264,1.9264,1.9264,1.9264,1.9264,1.9264,1.9264,1.9264,1.9264,1.9264,1.9264,1.9264,1.9264,1.9264,1.9264,1.9264,1.9264,1.9264,1.9264,1.9264,1.9264,1.9297,1.9305,1.9281,1.9289,1.9313,0.2911,0.29,0.2882,0.2874,0.2874,0.2874,0.2874,0.2882,0.2915,0.2954,0.2991,0.3024,0.304,0.3431,0.4666,0.647,0.8838,1.0918,1.2999,1.4899,1.5181,1.5181,1.5181,1.5181,1.5181,1.5181,1.5181,1.5181,1.5181,1.5181,1.5181,1.5275,1.5744,1.64,1.7149,1.7896,1.8176,1.8083,1.7896,1.7803,1.8083,1.7896,1.7896,1.8176,1.8176,1.8176,1.8176,1.8176,1.8176,1.8176,1.8176,1.8176,1.8176,1.8176,1.8168,1.8135,1.8095,1.7916,1.7867,1.7965,1.8144,1.8119,1.8127,1.8176,1.8176,1.8176,1.8176,1.8176,1.8176,1.8176,1.8176,1.8176,1.8176,1.8176,1.8176,1.8176,1.8176,1.8184,1.8241,1.8452,1.8647,1.8785,1.8907,1.9045,1.9207,1.9264,1.9264,1.9264,1.9264,1.9264,1.9264,1.9264,1.9264,1.9264,1.9264,1.9264,1.9264,1.9264,1.9264,1.9264,1.9264,1.9264,1.9264,1.9264,1.9264,1.9264,1.9264,1.9264,1.9264,1.9272,1.9345,1.9394,1.9394,1.941,1.9443,0.292,0.29,0.2882,0.2874,0.2874,0.2874,0.2879,0.2896,0.2941,0.2979,0.3009,0.3037,0.3148,0.3718,0.5237,0.723,0.9216,1.1202,1.3281,1.4993,1.5181,1.5181,1.5181,1.5181,1.5181,1.5181,1.5181,1.5181,1.5181,1.5181,1.5181,1.5275,1.5657,1.6126,1.6774,1.7242,1.7616,1.7523,1.7336,1.7429,1.7616,1.7709,1.7717,1.7989,1.8176,1.8176,1.8176,1.8176,1.8176,1.8176,1.8176,1.8176,1.8176,1.8176,1.8144,1.8062,1.7916,1.7827,1.7916,1.7924,1.8087,1.816,1.8176,1.8176,1.8176,1.8176,1.8176,1.8176,1.8176,1.8176,1.8176,1.8176,1.8176,1.8176,1.8176,1.8176,1.8208,1.8217,1.8322,1.8533,1.8744,1.8866,1.8988,1.911,1.9256,1.9264,1.9264,1.9264,1.9264,1.9264,1.9264,1.9264,1.9264,1.9264,1.9264,1.9264,1.9264,1.9264,1.9264,1.9264,1.9264,1.9264,1.9264,1.9264,1.9264,1.9264,1.9264,1.9264,1.9264,1.9354,1.9484,1.9516,1.9516,1.9557,1.9605,0.2928,0.2881,0.2875,0.2874,0.2874,0.2876,0.2893,0.292,0.295,0.2983,0.3011,0.3041,0.3337,0.3718,0.5427,0.7511,0.969,1.1673,1.3469,1.4704,1.5181,1.5181,1.5181,1.5181,1.5181,1.5181,1.5181,1.5181,1.5181,1.5181,1.5181,1.5275,1.5563,1.5845,1.6126,1.64,1.6774,1.6868,1.6774,1.6962,1.7242,1.7343,1.7523,1.7896,1.8083,1.8176,1.8176,1.8083,1.8083,1.8083,1.8083,1.8083,1.8176,1.8176,1.807,1.7932,1.777,1.7908,1.7997,1.7989,1.8054,1.816,1.8176,1.8176,1.8176,1.8176,1.8176,1.8176,1.8176,1.8176,1.8176,1.8176,1.8176,1.8176,1.8176,1.82,1.8241,1.8314,1.8428,1.8623,1.8858,1.9013,1.9142,1.9256,1.9264,1.9264,1.9264,1.9264,1.9264,1.9264,1.9264,1.9264,1.9264,1.9264,1.9264,1.9264,1.9264,1.9264,1.9264,1.9264,1.9264,1.9264,1.9264,1.9264,1.9264,1.9264,1.9264,1.9264,1.9281,1.9394,1.9565,1.9622,1.9622,1.9743,1.9792,0.2951,0.3024,0.2891,0.2874,0.2876,0.2896,0.2921,0.295,0.298,0.3011,0.3039,0.3048,0.3813,0.5332,0.7324,0.9311,1.1296,1.3187,1.4328,1.5087,1.5181,1.5181,1.5181,1.5174,1.5181,1.5174,1.5167,1.5153,1.5174,1.5174,1.5181,1.5275,1.5375,1.5469,1.5469,1.5556,1.6119,1.64,1.6306,1.6494,1.6774,1.6868,1.7242,1.7523,1.7896,1.7989,1.7989,1.7803,1.7709,1.7616,1.7616,1.7616,1.7616,1.7981,1.8103,1.7957,1.7949,1.8038,1.8014,1.8062,1.8119,1.816,1.8176,1.8176,1.8176,1.8176,1.8176,1.8176,1.8176,1.8176,1.8176,1.8176,1.8176,1.8176,1.82,1.8265,1.8322,1.8452,1.8574,1.8818,1.9045,1.9118,1.9248,1.9264,1.9264,1.9264,1.9264,1.9264,1.9264,1.9264,1.9264,1.9264,1.9264,1.9264,1.9264,1.9264,1.9264,1.9264,1.9264,1.9264,1.9264,1.9264,1.9264,1.9264,1.9264,1.9264,1.9264,1.9281,1.9329,1.9475,1.963,1.9687,1.976,1.9882,1.9979,0.2947,0.2923,0.2889,0.2881,0.2894,0.2921,0.2951,0.298,0.2999,0.3024,0.3146,0.3148,0.4192,0.609,0.808,1.0162,1.2145,1.3946,1.5087,1.5087,1.5174,1.5181,1.5174,1.5126,1.5092,1.5086,1.5052,1.5004,1.5092,1.5167,1.5181,1.5181,1.5181,1.5181,1.5275,1.5368,1.5556,1.5744,1.5838,1.6025,1.6213,1.64,1.6688,1.7055,1.7523,1.7616,1.7616,1.7242,1.7149,1.7149,1.7242,1.7437,1.7507,1.784,1.8119,1.7997,1.7997,1.8046,1.8062,1.8119,1.816,1.8176,1.8176,1.8176,1.8176,1.8176,1.8176,1.8176,1.8176,1.8176,1.8176,1.8176,1.8176,1.8176,1.8257,1.8338,1.846,1.859,1.8801,1.9037,1.9159,1.9216,1.9264,1.9264,1.9264,1.9264,1.9264,1.9264,1.9264,1.9264,1.9264,1.9264,1.9264,1.9264,1.9264,1.9264,1.9264,1.9264,1.9264,1.9264,1.9264,1.9264,1.9264,1.9264,1.9264,1.9272,1.9305,1.9362,1.9427,1.9581,1.9735,1.9849,1.9946,2.006,2.0125,0.293,0.2881,0.2875,0.289,0.2919,0.2946,0.2977,0.3006,0.301,0.3026,0.3145,0.3148,0.4383,0.6755,0.8459,1.054,1.2622,1.4516,1.5153,1.516,1.5133,1.512,1.5059,1.5025,1.4957,1.4903,1.4882,1.4896,1.4997,1.5099,1.5181,1.5181,1.5181,1.5181,1.5181,1.5181,1.5368,1.5368,1.5462,1.5462,1.5744,1.5938,1.6126,1.6587,1.6774,1.6767,1.6774,1.6681,1.6587,1.6774,1.6962,1.7156,1.7483,1.78,1.7986,1.8079,1.8054,1.807,1.8111,1.816,1.8168,1.8176,1.8176,1.8176,1.8176,1.8176,1.8176,1.8176,1.8176,1.8176,1.8176,1.8184,1.8184,1.8249,1.8338,1.8476,1.8631,1.8785,1.8996,1.9175,1.9207,1.9264,1.9264,1.9264,1.9264,1.9264,1.9264,1.9264,1.9264,1.9264,1.9264,1.9264,1.9264,1.9264,1.9264,1.9264,1.9264,1.9264,1.9264,1.9264,1.9264,1.9264,1.9264,1.9264,1.9264,1.9329,1.9378,1.9427,1.9516,1.9695,1.9857,2.0011,2.0133,2.0214,2.0239,0.2941,0.2904,0.2883,0.289,0.2919,0.2949,0.2979,0.3009,0.3032,0.3139,0.3051,0.3338,0.5047,0.8083,0.8924,1.0998,1.3933,1.4645,1.5013,1.5045,1.5018,1.497,1.4875,1.4835,1.4801,1.4787,1.478,1.4821,1.497,1.5099,1.5181,1.5181,1.5181,1.5181,1.5181,1.5181,1.5181,1.5181,1.5181,1.5275,1.5368,1.5751,1.6032,1.6213,1.6306,1.6587,1.6494,1.6306,1.6119,1.6126,1.622,1.6688,1.7336,1.7848,1.8135,1.816,1.8127,1.8135,1.8152,1.8176,1.8176,1.8176,1.8176,1.8176,1.8176,1.8176,1.8176,1.8176,1.8176,1.8176,1.8184,1.8192,1.8225,1.833,1.8547,1.8639,1.8818,1.8996,1.9191,1.9224,1.9256,1.9264,1.9264,1.9264,1.9264,1.9264,1.9264,1.9264,1.9264,1.9264,1.9264,1.9264,1.9264,1.9264,1.9264,1.9264,1.9264,1.9264,1.9264,1.9264,1.9264,1.9264,1.9264,1.9264,1.9272,1.9354,1.9419,1.9451,1.9573,1.9817,1.9963,2.0117,2.0198,2.0279,2.0296,0.2936,0.2898,0.2894,0.2909,0.2939,0.2969,0.2999,0.3026,0.3046,0.3148,0.3338,0.4192,0.6185,0.9204,0.9933,1.1705,1.4706,1.4911,1.4936,1.4882,1.4862,1.4821,1.4746,1.4665,1.4645,1.4645,1.4726,1.4821,1.497,1.5099,1.5181,1.5181,1.5181,1.5181,1.5181,1.5181,1.5181,1.5181,1.5181,1.5181,1.5181,1.5462,1.5563,1.5744,1.5838,1.6119,1.6025,1.5744,1.565,1.5845,1.6025,1.6688,1.7343,1.7888,1.8168,1.8176,1.8168,1.8176,1.8176,1.8176,1.8176,1.8176,1.8176,1.8176,1.8176,1.8176,1.8176,1.8176,1.8176,1.8176,1.8225,1.8241,1.8322,1.8412,1.8639,1.8858,1.9004,1.9151,1.9232,1.9248,1.9264,1.9264,1.9264,1.9264,1.9264,1.9264,1.9264,1.9264,1.9264,1.9264,1.9264,1.9264,1.9264,1.9264,1.9264,1.9264,1.9264,1.9264,1.9264,1.9264,1.9264,1.9264,1.9264,1.9281,1.9321,1.9394,1.9443,1.9549,1.9776,2.0052,2.0141,2.0214,2.0279,2.032,2.032,0.2927,0.2881,0.2904,0.2934,0.2964,0.2994,0.3022,0.3048,0.3148,0.3148,0.3527,0.5522,0.7514,0.9188,1.1111,1.3132,1.4401,1.4837,1.4828,1.4719,1.4713,1.4658,1.4597,1.4543,1.4523,1.4597,1.4713,1.4835,1.497,1.5099,1.5181,1.5181,1.5181,1.5181,1.5181,1.5181,1.5181,1.5181,1.5181,1.5181,1.5181,1.5181,1.5275,1.5275,1.5181,1.5181,1.5181,1.5181,1.5181,1.5556,1.6119,1.6681,1.7242,1.7803,1.8083,1.8176,1.8176,1.8083,1.8083,1.8083,1.8083,1.8083,1.8176,1.8184,1.8184,1.8217,1.8217,1.8225,1.8225,1.8241,1.829,1.8363,1.8452,1.8582,1.8842,1.9037,1.9159,1.9256,1.9256,1.9264,1.9264,1.9264,1.9264,1.9264,1.9264,1.9264,1.9264,1.9264,1.9264,1.9264,1.9264,1.9264,1.9264,1.9264,1.9264,1.9264,1.9264,1.9264,1.9264,1.9264,1.9264,1.9264,1.9281,1.9329,1.9378,1.9459,1.9613,1.976,2.0011,2.0198,2.0247,2.0263,2.0288,2.032,2.032,0.2927,0.2876,0.2904,0.2934,0.2964,0.2995,0.3024,0.3145,0.3148,0.3148,0.4099,0.685,0.8932,0.9216,1.1281,1.3192,1.4639,1.4855,1.4713,1.459,1.4563,1.4489,1.4462,1.4496,1.4448,1.4577,1.4774,1.4923,1.5018,1.512,1.5181,1.5181,1.5181,1.5181,1.5181,1.5181,1.5181,1.5181,1.5181,1.5181,1.5181,1.5181,1.5181,1.5181,1.5181,1.5181,1.5181,1.5181,1.5181,1.5462,1.6119,1.6587,1.7149,1.7709,1.8083,1.8176,1.8176,1.7896,1.7803,1.7989,1.7989,1.7717,1.7912,1.8217,1.8257,1.8355,1.8371,1.8403,1.8412,1.842,1.8468,1.8582,1.8688,1.885,1.9077,1.9151,1.924,1.9256,1.9256,1.9264,1.9264,1.9264,1.9264,1.9264,1.9264,1.9264,1.9264,1.9264,1.9264,1.9264,1.9264,1.9264,1.9264,1.9264,1.9264,1.9264,1.9264,1.9264,1.9264,1.9264,1.9264,1.9264,1.9289,1.9378,1.9459,1.9549,1.9719,1.9914,2.002,2.0174,2.0263,2.0304,2.032,2.0392,2.0471]}]]